<?xml version="1.0" encoding="UTF-8" standalone="no" ?>
<gpx xmlns="http://www.topografix.com/GPX/1/1" xmlns:xsi="http://www.w3.org/2001/XMLSchema-instance" xsi:schemaLocation="http://www.topografix.com/GPX/1/1 http://www.topografix.com/GPX/1/1/gpx.xsd" version="1.1" creator="VisuGPX - https://www.visugpx.com">
  <metadata>
    <name>La chaize/Roisey/Vinzieux/Col du Fayet/St-Jacques d'Atticieux/St Appolinard/Veranne</name>
    <desc><![CDATA[Parcours relativement roulant, 3 belles montées , un peu de Single, pas de zones techniques.]]></desc>
  </metadata>
  <trk>
    <name><![CDATA[La chaize/Roisey/Vinzieux/Col du Fayet/St-Jacques d'Atticieux/St Appolinard/Veranne_1]]></name>
    <trkseg>
      <trkpt lat="45.40535" lon="4.69007">
        <ele>318.33</ele>
        <time>2020-05-21T12:06:11Z</time>
      </trkpt>
      <trkpt lat="45.4053" lon="4.68989">
        <ele>318.33</ele>
        <time>2020-05-21T12:06:14Z</time>
      </trkpt>
      <trkpt lat="45.40498" lon="4.68899">
        <ele>317.85</ele>
        <time>2020-05-21T12:06:28Z</time>
      </trkpt>
      <trkpt lat="45.40487" lon="4.68866">
        <ele>317.85</ele>
        <time>2020-05-21T12:06:33Z</time>
      </trkpt>
      <trkpt lat="45.40481" lon="4.68856">
        <ele>317.85</ele>
        <time>2020-05-21T12:06:35Z</time>
      </trkpt>
      <trkpt lat="45.40478" lon="4.68851">
        <ele>318.33</ele>
        <time>2020-05-21T12:06:36Z</time>
      </trkpt>
      <trkpt lat="45.4045" lon="4.68819">
        <ele>321.22</ele>
        <time>2020-05-21T12:06:47Z</time>
      </trkpt>
      <trkpt lat="45.40432" lon="4.68797">
        <ele>324.1</ele>
        <time>2020-05-21T12:06:57Z</time>
      </trkpt>
      <trkpt lat="45.40414" lon="4.68775">
        <ele>327.47</ele>
        <time>2020-05-21T12:07:08Z</time>
      </trkpt>
      <trkpt lat="45.40389" lon="4.68741">
        <ele>330.35</ele>
        <time>2020-05-21T12:07:24Z</time>
      </trkpt>
      <trkpt lat="45.40372" lon="4.68719">
        <ele>333.71</ele>
        <time>2020-05-21T12:07:35Z</time>
      </trkpt>
      <trkpt lat="45.40352" lon="4.68698">
        <ele>336.6</ele>
        <time>2020-05-21T12:07:47Z</time>
      </trkpt>
      <trkpt lat="45.40332" lon="4.68679">
        <ele>339.96</ele>
        <time>2020-05-21T12:07:59Z</time>
      </trkpt>
      <trkpt lat="45.40307" lon="4.6866">
        <ele>342.85</ele>
        <time>2020-05-21T12:08:14Z</time>
      </trkpt>
      <trkpt lat="45.40283" lon="4.68654">
        <ele>346.21</ele>
        <time>2020-05-21T12:08:27Z</time>
      </trkpt>
      <trkpt lat="45.40265" lon="4.68642">
        <ele>349.1</ele>
        <time>2020-05-21T12:08:38Z</time>
      </trkpt>
      <trkpt lat="45.40261" lon="4.68628">
        <ele>351.02</ele>
        <time>2020-05-21T12:08:44Z</time>
      </trkpt>
      <trkpt lat="45.40259" lon="4.686">
        <ele>354.38</ele>
        <time>2020-05-21T12:08:56Z</time>
      </trkpt>
      <trkpt lat="45.40252" lon="4.6857">
        <ele>357.27</ele>
        <time>2020-05-21T12:09:09Z</time>
      </trkpt>
      <trkpt lat="45.40245" lon="4.68547">
        <ele>360.15</ele>
        <time>2020-05-21T12:09:19Z</time>
      </trkpt>
      <trkpt lat="45.40237" lon="4.68522">
        <ele>363.52</ele>
        <time>2020-05-21T12:09:32Z</time>
      </trkpt>
      <trkpt lat="45.40236" lon="4.68521">
        <ele>364</ele>
        <time>2020-05-21T12:09:33Z</time>
      </trkpt>
      <trkpt lat="45.40232" lon="4.68515">
        <ele>365.44</ele>
        <time>2020-05-21T12:09:37Z</time>
      </trkpt>
      <trkpt lat="45.40231" lon="4.68513">
        <ele>365.44</ele>
        <time>2020-05-21T12:09:38Z</time>
      </trkpt>
      <trkpt lat="45.40231" lon="4.68511">
        <ele>365.44</ele>
        <time>2020-05-21T12:09:39Z</time>
      </trkpt>
      <trkpt lat="45.40227" lon="4.68489">
        <ele>367.84</ele>
        <time>2020-05-21T12:09:47Z</time>
      </trkpt>
      <trkpt lat="45.40227" lon="4.68486">
        <ele>367.84</ele>
        <time>2020-05-21T12:09:48Z</time>
      </trkpt>
      <trkpt lat="45.40226" lon="4.68484">
        <ele>367.84</ele>
        <time>2020-05-21T12:09:49Z</time>
      </trkpt>
      <trkpt lat="45.40225" lon="4.68481">
        <ele>368.32</ele>
        <time>2020-05-21T12:09:50Z</time>
      </trkpt>
      <trkpt lat="45.40225" lon="4.68479">
        <ele>368.32</ele>
        <time>2020-05-21T12:09:51Z</time>
      </trkpt>
      <trkpt lat="45.40224" lon="4.68476">
        <ele>368.8</ele>
        <time>2020-05-21T12:09:52Z</time>
      </trkpt>
      <trkpt lat="45.40216" lon="4.68448">
        <ele>371.69</ele>
        <time>2020-05-21T12:10:04Z</time>
      </trkpt>
      <trkpt lat="45.40206" lon="4.68414">
        <ele>375.05</ele>
        <time>2020-05-21T12:10:19Z</time>
      </trkpt>
      <trkpt lat="45.40194" lon="4.68389">
        <ele>378.42</ele>
        <time>2020-05-21T12:10:30Z</time>
      </trkpt>
      <trkpt lat="45.40182" lon="4.68352">
        <ele>380.82</ele>
        <time>2020-05-21T12:10:46Z</time>
      </trkpt>
      <trkpt lat="45.40176" lon="4.68325">
        <ele>383.7</ele>
        <time>2020-05-21T12:10:57Z</time>
      </trkpt>
      <trkpt lat="45.4017" lon="4.68293">
        <ele>387.07</ele>
        <time>2020-05-21T12:11:10Z</time>
      </trkpt>
      <trkpt lat="45.40162" lon="4.68267">
        <ele>389.95</ele>
        <time>2020-05-21T12:11:22Z</time>
      </trkpt>
      <trkpt lat="45.40148" lon="4.68245">
        <ele>393.32</ele>
        <time>2020-05-21T12:11:34Z</time>
      </trkpt>
      <trkpt lat="45.40138" lon="4.68226">
        <ele>396.2</ele>
        <time>2020-05-21T12:11:44Z</time>
      </trkpt>
      <trkpt lat="45.40125" lon="4.682">
        <ele>399.08</ele>
        <time>2020-05-21T12:11:57Z</time>
      </trkpt>
      <trkpt lat="45.40113" lon="4.68181">
        <ele>401.97</ele>
        <time>2020-05-21T12:12:08Z</time>
      </trkpt>
      <trkpt lat="45.40111" lon="4.68179">
        <ele>402.45</ele>
        <time>2020-05-21T12:12:09Z</time>
      </trkpt>
      <trkpt lat="45.40101" lon="4.68167">
        <ele>405.33</ele>
        <time>2020-05-21T12:12:18Z</time>
      </trkpt>
      <trkpt lat="45.40101" lon="4.68166">
        <ele>405.33</ele>
        <time>2020-05-21T12:12:19Z</time>
      </trkpt>
      <trkpt lat="45.401" lon="4.68163">
        <ele>405.33</ele>
        <time>2020-05-21T12:12:20Z</time>
      </trkpt>
      <trkpt lat="45.40093" lon="4.68146">
        <ele>408.7</ele>
        <time>2020-05-21T12:12:29Z</time>
      </trkpt>
      <trkpt lat="45.40086" lon="4.6813">
        <ele>410.62</ele>
        <time>2020-05-21T12:12:37Z</time>
      </trkpt>
      <trkpt lat="45.40086" lon="4.68127">
        <ele>411.1</ele>
        <time>2020-05-21T12:12:38Z</time>
      </trkpt>
      <trkpt lat="45.40085" lon="4.68125">
        <ele>411.58</ele>
        <time>2020-05-21T12:12:39Z</time>
      </trkpt>
      <trkpt lat="45.40084" lon="4.68124">
        <ele>411.58</ele>
        <time>2020-05-21T12:12:40Z</time>
      </trkpt>
      <trkpt lat="45.40084" lon="4.68122">
        <ele>412.06</ele>
        <time>2020-05-21T12:12:41Z</time>
      </trkpt>
      <trkpt lat="45.40083" lon="4.6812">
        <ele>412.06</ele>
        <time>2020-05-21T12:12:42Z</time>
      </trkpt>
      <trkpt lat="45.40083" lon="4.68117">
        <ele>412.54</ele>
        <time>2020-05-21T12:12:43Z</time>
      </trkpt>
      <trkpt lat="45.40082" lon="4.68115">
        <ele>412.54</ele>
        <time>2020-05-21T12:12:44Z</time>
      </trkpt>
      <trkpt lat="45.40076" lon="4.68094">
        <ele>415.43</ele>
        <time>2020-05-21T12:12:53Z</time>
      </trkpt>
      <trkpt lat="45.40074" lon="4.68093">
        <ele>415.43</ele>
        <time>2020-05-21T12:12:54Z</time>
      </trkpt>
      <trkpt lat="45.40042" lon="4.68089">
        <ele>416.87</ele>
        <time>2020-05-21T12:13:07Z</time>
      </trkpt>
      <trkpt lat="45.40011" lon="4.68085">
        <ele>417.83</ele>
        <time>2020-05-21T12:13:20Z</time>
      </trkpt>
      <trkpt lat="45.39983" lon="4.68081">
        <ele>419.75</ele>
        <time>2020-05-21T12:13:32Z</time>
      </trkpt>
      <trkpt lat="45.39956" lon="4.68078">
        <ele>421.19</ele>
        <time>2020-05-21T12:13:43Z</time>
      </trkpt>
      <trkpt lat="45.39907" lon="4.68068">
        <ele>422.64</ele>
        <time>2020-05-21T12:13:59Z</time>
      </trkpt>
      <trkpt lat="45.39872" lon="4.68056">
        <ele>425.52</ele>
        <time>2020-05-21T12:14:12Z</time>
      </trkpt>
      <trkpt lat="45.3984" lon="4.68029">
        <ele>425.52</ele>
        <time>2020-05-21T12:14:23Z</time>
      </trkpt>
      <trkpt lat="45.39801" lon="4.68002">
        <ele>425.04</ele>
        <time>2020-05-21T12:14:34Z</time>
      </trkpt>
      <trkpt lat="45.39753" lon="4.67977">
        <ele>423.6</ele>
        <time>2020-05-21T12:14:44Z</time>
      </trkpt>
      <trkpt lat="45.39747" lon="4.67974">
        <ele>423.6</ele>
        <time>2020-05-21T12:14:45Z</time>
      </trkpt>
      <trkpt lat="45.39743" lon="4.67969">
        <ele>423.6</ele>
        <time>2020-05-21T12:14:46Z</time>
      </trkpt>
      <trkpt lat="45.39741" lon="4.67962">
        <ele>424.08</ele>
        <time>2020-05-21T12:14:47Z</time>
      </trkpt>
      <trkpt lat="45.39739" lon="4.67956">
        <ele>424.08</ele>
        <time>2020-05-21T12:14:48Z</time>
      </trkpt>
      <trkpt lat="45.39738" lon="4.6795">
        <ele>424.56</ele>
        <time>2020-05-21T12:14:49Z</time>
      </trkpt>
      <trkpt lat="45.39736" lon="4.67944">
        <ele>425.04</ele>
        <time>2020-05-21T12:14:50Z</time>
      </trkpt>
      <trkpt lat="45.39734" lon="4.67939">
        <ele>425.52</ele>
        <time>2020-05-21T12:14:51Z</time>
      </trkpt>
      <trkpt lat="45.39732" lon="4.67934">
        <ele>425.52</ele>
        <time>2020-05-21T12:14:52Z</time>
      </trkpt>
      <trkpt lat="45.39731" lon="4.67929">
        <ele>425.52</ele>
        <time>2020-05-21T12:14:53Z</time>
      </trkpt>
      <trkpt lat="45.39715" lon="4.67886">
        <ele>428.89</ele>
        <time>2020-05-21T12:15:03Z</time>
      </trkpt>
      <trkpt lat="45.39702" lon="4.67851">
        <ele>431.29</ele>
        <time>2020-05-21T12:15:12Z</time>
      </trkpt>
      <trkpt lat="45.39687" lon="4.67821">
        <ele>431.77</ele>
        <time>2020-05-21T12:15:18Z</time>
      </trkpt>
      <trkpt lat="45.39639" lon="4.67753">
        <ele>433.21</ele>
        <time>2020-05-21T12:15:33Z</time>
      </trkpt>
      <trkpt lat="45.39599" lon="4.677">
        <ele>435.13</ele>
        <time>2020-05-21T12:15:47Z</time>
      </trkpt>
      <trkpt lat="45.39561" lon="4.67643">
        <ele>436.58</ele>
        <time>2020-05-21T12:16:00Z</time>
      </trkpt>
      <trkpt lat="45.39538" lon="4.67599">
        <ele>438.98</ele>
        <time>2020-05-21T12:16:10Z</time>
      </trkpt>
      <trkpt lat="45.39527" lon="4.67567">
        <ele>440.42</ele>
        <time>2020-05-21T12:16:17Z</time>
      </trkpt>
      <trkpt lat="45.39516" lon="4.67533">
        <ele>439.94</ele>
        <time>2020-05-21T12:16:23Z</time>
      </trkpt>
      <trkpt lat="45.39493" lon="4.67484">
        <ele>439.46</ele>
        <time>2020-05-21T12:16:32Z</time>
      </trkpt>
      <trkpt lat="45.39492" lon="4.67478">
        <ele>439.46</ele>
        <time>2020-05-21T12:16:33Z</time>
      </trkpt>
      <trkpt lat="45.39491" lon="4.67471">
        <ele>439.94</ele>
        <time>2020-05-21T12:16:34Z</time>
      </trkpt>
      <trkpt lat="45.39489" lon="4.67459">
        <ele>439.94</ele>
        <time>2020-05-21T12:16:36Z</time>
      </trkpt>
      <trkpt lat="45.39488" lon="4.67453">
        <ele>440.42</ele>
        <time>2020-05-21T12:16:37Z</time>
      </trkpt>
      <trkpt lat="45.39487" lon="4.67447">
        <ele>440.42</ele>
        <time>2020-05-21T12:16:38Z</time>
      </trkpt>
      <trkpt lat="45.39484" lon="4.67442">
        <ele>440.42</ele>
        <time>2020-05-21T12:16:39Z</time>
      </trkpt>
      <trkpt lat="45.39481" lon="4.67437">
        <ele>440.42</ele>
        <time>2020-05-21T12:16:40Z</time>
      </trkpt>
      <trkpt lat="45.39478" lon="4.67432">
        <ele>440.42</ele>
        <time>2020-05-21T12:16:41Z</time>
      </trkpt>
      <trkpt lat="45.39464" lon="4.67414">
        <ele>440.9</ele>
        <time>2020-05-21T12:16:45Z</time>
      </trkpt>
      <trkpt lat="45.39459" lon="4.67411">
        <ele>440.42</ele>
        <time>2020-05-21T12:16:46Z</time>
      </trkpt>
      <trkpt lat="45.39444" lon="4.674">
        <ele>439.46</ele>
        <time>2020-05-21T12:16:49Z</time>
      </trkpt>
      <trkpt lat="45.39439" lon="4.67395">
        <ele>439.46</ele>
        <time>2020-05-21T12:16:50Z</time>
      </trkpt>
      <trkpt lat="45.39435" lon="4.67389">
        <ele>438.98</ele>
        <time>2020-05-21T12:16:51Z</time>
      </trkpt>
      <trkpt lat="45.39431" lon="4.67382">
        <ele>438.98</ele>
        <time>2020-05-21T12:16:52Z</time>
      </trkpt>
      <trkpt lat="45.39428" lon="4.67374">
        <ele>438.5</ele>
        <time>2020-05-21T12:16:53Z</time>
      </trkpt>
      <trkpt lat="45.3941" lon="4.67343">
        <ele>437.54</ele>
        <time>2020-05-21T12:16:57Z</time>
      </trkpt>
      <trkpt lat="45.39405" lon="4.67336">
        <ele>437.06</ele>
        <time>2020-05-21T12:16:58Z</time>
      </trkpt>
      <trkpt lat="45.394" lon="4.67332">
        <ele>437.06</ele>
        <time>2020-05-21T12:16:59Z</time>
      </trkpt>
      <trkpt lat="45.39395" lon="4.6733">
        <ele>437.06</ele>
        <time>2020-05-21T12:17:00Z</time>
      </trkpt>
      <trkpt lat="45.39389" lon="4.67328">
        <ele>437.06</ele>
        <time>2020-05-21T12:17:01Z</time>
      </trkpt>
      <trkpt lat="45.39383" lon="4.67328">
        <ele>437.54</ele>
        <time>2020-05-21T12:17:02Z</time>
      </trkpt>
      <trkpt lat="45.39378" lon="4.67328">
        <ele>437.54</ele>
        <time>2020-05-21T12:17:03Z</time>
      </trkpt>
      <trkpt lat="45.39372" lon="4.67329">
        <ele>438.02</ele>
        <time>2020-05-21T12:17:04Z</time>
      </trkpt>
      <trkpt lat="45.39304" lon="4.67325">
        <ele>439.94</ele>
        <time>2020-05-21T12:17:17Z</time>
      </trkpt>
      <trkpt lat="45.393" lon="4.67323">
        <ele>439.94</ele>
        <time>2020-05-21T12:17:18Z</time>
      </trkpt>
      <trkpt lat="45.39291" lon="4.67317">
        <ele>440.42</ele>
        <time>2020-05-21T12:17:20Z</time>
      </trkpt>
      <trkpt lat="45.39286" lon="4.67315">
        <ele>440.42</ele>
        <time>2020-05-21T12:17:21Z</time>
      </trkpt>
      <trkpt lat="45.39256" lon="4.67303">
        <ele>442.82</ele>
        <time>2020-05-21T12:17:28Z</time>
      </trkpt>
      <trkpt lat="45.39187" lon="4.67274">
        <ele>443.79</ele>
        <time>2020-05-21T12:17:44Z</time>
      </trkpt>
      <trkpt lat="45.39175" lon="4.67269">
        <ele>443.79</ele>
        <time>2020-05-21T12:17:47Z</time>
      </trkpt>
      <trkpt lat="45.39158" lon="4.67263">
        <ele>443.79</ele>
        <time>2020-05-21T12:17:51Z</time>
      </trkpt>
      <trkpt lat="45.39153" lon="4.67261">
        <ele>442.34</ele>
        <time>2020-05-21T12:17:52Z</time>
      </trkpt>
      <trkpt lat="45.39149" lon="4.67257">
        <ele>442.34</ele>
        <time>2020-05-21T12:17:53Z</time>
      </trkpt>
      <trkpt lat="45.39146" lon="4.67252">
        <ele>442.34</ele>
        <time>2020-05-21T12:17:54Z</time>
      </trkpt>
      <trkpt lat="45.39143" lon="4.67247">
        <ele>442.82</ele>
        <time>2020-05-21T12:17:55Z</time>
      </trkpt>
      <trkpt lat="45.39139" lon="4.67244">
        <ele>443.31</ele>
        <time>2020-05-21T12:17:56Z</time>
      </trkpt>
      <trkpt lat="45.39136" lon="4.67242">
        <ele>442.82</ele>
        <time>2020-05-21T12:17:57Z</time>
      </trkpt>
      <trkpt lat="45.39131" lon="4.67239">
        <ele>442.34</ele>
        <time>2020-05-21T12:17:58Z</time>
      </trkpt>
      <trkpt lat="45.39127" lon="4.67236">
        <ele>442.34</ele>
        <time>2020-05-21T12:17:59Z</time>
      </trkpt>
      <trkpt lat="45.39114" lon="4.67226">
        <ele>442.34</ele>
        <time>2020-05-21T12:18:02Z</time>
      </trkpt>
      <trkpt lat="45.39109" lon="4.67224">
        <ele>441.86</ele>
        <time>2020-05-21T12:18:03Z</time>
      </trkpt>
      <trkpt lat="45.39104" lon="4.67222">
        <ele>441.86</ele>
        <time>2020-05-21T12:18:04Z</time>
      </trkpt>
      <trkpt lat="45.39098" lon="4.6722">
        <ele>441.86</ele>
        <time>2020-05-21T12:18:05Z</time>
      </trkpt>
      <trkpt lat="45.39092" lon="4.67219">
        <ele>441.86</ele>
        <time>2020-05-21T12:18:06Z</time>
      </trkpt>
      <trkpt lat="45.39087" lon="4.67219">
        <ele>441.38</ele>
        <time>2020-05-21T12:18:07Z</time>
      </trkpt>
      <trkpt lat="45.39081" lon="4.6722">
        <ele>440.9</ele>
        <time>2020-05-21T12:18:08Z</time>
      </trkpt>
      <trkpt lat="45.39076" lon="4.67221">
        <ele>440.42</ele>
        <time>2020-05-21T12:18:09Z</time>
      </trkpt>
      <trkpt lat="45.39071" lon="4.67224">
        <ele>440.42</ele>
        <time>2020-05-21T12:18:10Z</time>
      </trkpt>
      <trkpt lat="45.39066" lon="4.67227">
        <ele>439.94</ele>
        <time>2020-05-21T12:18:11Z</time>
      </trkpt>
      <trkpt lat="45.39062" lon="4.67229">
        <ele>439.94</ele>
        <time>2020-05-21T12:18:12Z</time>
      </trkpt>
      <trkpt lat="45.39057" lon="4.67227">
        <ele>439.46</ele>
        <time>2020-05-21T12:18:13Z</time>
      </trkpt>
      <trkpt lat="45.39054" lon="4.67224">
        <ele>439.94</ele>
        <time>2020-05-21T12:18:14Z</time>
      </trkpt>
      <trkpt lat="45.39051" lon="4.67219">
        <ele>440.42</ele>
        <time>2020-05-21T12:18:15Z</time>
      </trkpt>
      <trkpt lat="45.39049" lon="4.67214">
        <ele>440.42</ele>
        <time>2020-05-21T12:18:16Z</time>
      </trkpt>
      <trkpt lat="45.39046" lon="4.6721">
        <ele>440.42</ele>
        <time>2020-05-21T12:18:17Z</time>
      </trkpt>
      <trkpt lat="45.39029" lon="4.67181">
        <ele>440.9</ele>
        <time>2020-05-21T12:18:23Z</time>
      </trkpt>
      <trkpt lat="45.39026" lon="4.67177">
        <ele>441.38</ele>
        <time>2020-05-21T12:18:24Z</time>
      </trkpt>
      <trkpt lat="45.39022" lon="4.67174">
        <ele>441.86</ele>
        <time>2020-05-21T12:18:25Z</time>
      </trkpt>
      <trkpt lat="45.39019" lon="4.67171">
        <ele>441.86</ele>
        <time>2020-05-21T12:18:26Z</time>
      </trkpt>
      <trkpt lat="45.39015" lon="4.67168">
        <ele>442.34</ele>
        <time>2020-05-21T12:18:27Z</time>
      </trkpt>
      <trkpt lat="45.3897" lon="4.67144">
        <ele>444.27</ele>
        <time>2020-05-21T12:18:39Z</time>
      </trkpt>
      <trkpt lat="45.38944" lon="4.67143">
        <ele>445.23</ele>
        <time>2020-05-21T12:18:45Z</time>
      </trkpt>
      <trkpt lat="45.3894" lon="4.67145">
        <ele>445.71</ele>
        <time>2020-05-21T12:18:46Z</time>
      </trkpt>
      <trkpt lat="45.38894" lon="4.67164">
        <ele>448.59</ele>
        <time>2020-05-21T12:18:58Z</time>
      </trkpt>
      <trkpt lat="45.38841" lon="4.6718">
        <ele>451.96</ele>
        <time>2020-05-21T12:19:12Z</time>
      </trkpt>
      <trkpt lat="45.38805" lon="4.67183">
        <ele>455.32</ele>
        <time>2020-05-21T12:19:22Z</time>
      </trkpt>
      <trkpt lat="45.38802" lon="4.67181">
        <ele>455.32</ele>
        <time>2020-05-21T12:19:23Z</time>
      </trkpt>
      <trkpt lat="45.38755" lon="4.67191">
        <ele>455.8</ele>
        <time>2020-05-21T12:19:35Z</time>
      </trkpt>
      <trkpt lat="45.38719" lon="4.6721">
        <ele>454.84</ele>
        <time>2020-05-21T12:19:42Z</time>
      </trkpt>
      <trkpt lat="45.38715" lon="4.67215">
        <ele>454.36</ele>
        <time>2020-05-21T12:19:43Z</time>
      </trkpt>
      <trkpt lat="45.38712" lon="4.6722">
        <ele>454.36</ele>
        <time>2020-05-21T12:19:44Z</time>
      </trkpt>
      <trkpt lat="45.38709" lon="4.67227">
        <ele>453.88</ele>
        <time>2020-05-21T12:19:45Z</time>
      </trkpt>
      <trkpt lat="45.38707" lon="4.67233">
        <ele>453.88</ele>
        <time>2020-05-21T12:19:46Z</time>
      </trkpt>
      <trkpt lat="45.38706" lon="4.6724">
        <ele>453.88</ele>
        <time>2020-05-21T12:19:47Z</time>
      </trkpt>
      <trkpt lat="45.38706" lon="4.67247">
        <ele>453.4</ele>
        <time>2020-05-21T12:19:48Z</time>
      </trkpt>
      <trkpt lat="45.38707" lon="4.67254">
        <ele>454.36</ele>
        <time>2020-05-21T12:19:49Z</time>
      </trkpt>
      <trkpt lat="45.38708" lon="4.67261">
        <ele>454.84</ele>
        <time>2020-05-21T12:19:50Z</time>
      </trkpt>
      <trkpt lat="45.3871" lon="4.67268">
        <ele>455.32</ele>
        <time>2020-05-21T12:19:51Z</time>
      </trkpt>
      <trkpt lat="45.38728" lon="4.67347">
        <ele>454.84</ele>
        <time>2020-05-21T12:20:02Z</time>
      </trkpt>
      <trkpt lat="45.38731" lon="4.67352">
        <ele>454.36</ele>
        <time>2020-05-21T12:20:03Z</time>
      </trkpt>
      <trkpt lat="45.38766" lon="4.67413">
        <ele>451</ele>
        <time>2020-05-21T12:20:12Z</time>
      </trkpt>
      <trkpt lat="45.38797" lon="4.67482">
        <ele>450.03</ele>
        <time>2020-05-21T12:20:21Z</time>
      </trkpt>
      <trkpt lat="45.38838" lon="4.67593">
        <ele>447.63</ele>
        <time>2020-05-21T12:20:35Z</time>
      </trkpt>
      <trkpt lat="45.38842" lon="4.67603">
        <ele>447.15</ele>
        <time>2020-05-21T12:20:36Z</time>
      </trkpt>
      <trkpt lat="45.38845" lon="4.67614">
        <ele>446.67</ele>
        <time>2020-05-21T12:20:37Z</time>
      </trkpt>
      <trkpt lat="45.38847" lon="4.67625">
        <ele>446.67</ele>
        <time>2020-05-21T12:20:38Z</time>
      </trkpt>
      <trkpt lat="45.38849" lon="4.67636">
        <ele>446.19</ele>
        <time>2020-05-21T12:20:39Z</time>
      </trkpt>
      <trkpt lat="45.38852" lon="4.6768">
        <ele>444.75</ele>
        <time>2020-05-21T12:20:43Z</time>
      </trkpt>
      <trkpt lat="45.38852" lon="4.67688">
        <ele>445.71</ele>
        <time>2020-05-21T12:20:44Z</time>
      </trkpt>
      <trkpt lat="45.38851" lon="4.67694">
        <ele>446.19</ele>
        <time>2020-05-21T12:20:45Z</time>
      </trkpt>
      <trkpt lat="45.3885" lon="4.67698">
        <ele>446.67</ele>
        <time>2020-05-21T12:20:46Z</time>
      </trkpt>
      <trkpt lat="45.38847" lon="4.67702">
        <ele>446.67</ele>
        <time>2020-05-21T12:20:47Z</time>
      </trkpt>
      <trkpt lat="45.38845" lon="4.67707">
        <ele>446.67</ele>
        <time>2020-05-21T12:20:48Z</time>
      </trkpt>
      <trkpt lat="45.38843" lon="4.67714">
        <ele>446.19</ele>
        <time>2020-05-21T12:20:49Z</time>
      </trkpt>
      <trkpt lat="45.38842" lon="4.67721">
        <ele>446.19</ele>
        <time>2020-05-21T12:20:50Z</time>
      </trkpt>
      <trkpt lat="45.38842" lon="4.6773">
        <ele>445.71</ele>
        <time>2020-05-21T12:20:51Z</time>
      </trkpt>
      <trkpt lat="45.38842" lon="4.67739">
        <ele>445.23</ele>
        <time>2020-05-21T12:20:52Z</time>
      </trkpt>
      <trkpt lat="45.38839" lon="4.67781">
        <ele>443.31</ele>
        <time>2020-05-21T12:20:56Z</time>
      </trkpt>
      <trkpt lat="45.38837" lon="4.67791">
        <ele>443.31</ele>
        <time>2020-05-21T12:20:57Z</time>
      </trkpt>
      <trkpt lat="45.38833" lon="4.67798">
        <ele>443.31</ele>
        <time>2020-05-21T12:20:58Z</time>
      </trkpt>
      <trkpt lat="45.38824" lon="4.6781">
        <ele>443.31</ele>
        <time>2020-05-21T12:21:00Z</time>
      </trkpt>
      <trkpt lat="45.38821" lon="4.67817">
        <ele>443.31</ele>
        <time>2020-05-21T12:21:01Z</time>
      </trkpt>
      <trkpt lat="45.3882" lon="4.67825">
        <ele>443.31</ele>
        <time>2020-05-21T12:21:02Z</time>
      </trkpt>
      <trkpt lat="45.38819" lon="4.67843">
        <ele>442.34</ele>
        <time>2020-05-21T12:21:04Z</time>
      </trkpt>
      <trkpt lat="45.38817" lon="4.67852">
        <ele>441.38</ele>
        <time>2020-05-21T12:21:05Z</time>
      </trkpt>
      <trkpt lat="45.38815" lon="4.67861">
        <ele>441.38</ele>
        <time>2020-05-21T12:21:06Z</time>
      </trkpt>
      <trkpt lat="45.38812" lon="4.67869">
        <ele>440.9</ele>
        <time>2020-05-21T12:21:07Z</time>
      </trkpt>
      <trkpt lat="45.38809" lon="4.67878">
        <ele>441.38</ele>
        <time>2020-05-21T12:21:08Z</time>
      </trkpt>
      <trkpt lat="45.38805" lon="4.67885">
        <ele>440.9</ele>
        <time>2020-05-21T12:21:09Z</time>
      </trkpt>
      <trkpt lat="45.38801" lon="4.67892">
        <ele>440.42</ele>
        <time>2020-05-21T12:21:10Z</time>
      </trkpt>
      <trkpt lat="45.38797" lon="4.67898">
        <ele>440.42</ele>
        <time>2020-05-21T12:21:11Z</time>
      </trkpt>
      <trkpt lat="45.38794" lon="4.67904">
        <ele>439.46</ele>
        <time>2020-05-21T12:21:12Z</time>
      </trkpt>
      <trkpt lat="45.3879" lon="4.6791">
        <ele>438.98</ele>
        <time>2020-05-21T12:21:13Z</time>
      </trkpt>
      <trkpt lat="45.38786" lon="4.67916">
        <ele>438.02</ele>
        <time>2020-05-21T12:21:14Z</time>
      </trkpt>
      <trkpt lat="45.38782" lon="4.67922">
        <ele>437.54</ele>
        <time>2020-05-21T12:21:15Z</time>
      </trkpt>
      <trkpt lat="45.38779" lon="4.67929">
        <ele>436.58</ele>
        <time>2020-05-21T12:21:16Z</time>
      </trkpt>
      <trkpt lat="45.38775" lon="4.67934">
        <ele>436.58</ele>
        <time>2020-05-21T12:21:17Z</time>
      </trkpt>
      <trkpt lat="45.38773" lon="4.67939">
        <ele>435.61</ele>
        <time>2020-05-21T12:21:18Z</time>
      </trkpt>
      <trkpt lat="45.38771" lon="4.67944">
        <ele>435.13</ele>
        <time>2020-05-21T12:21:19Z</time>
      </trkpt>
      <trkpt lat="45.38767" lon="4.67947">
        <ele>434.17</ele>
        <time>2020-05-21T12:21:20Z</time>
      </trkpt>
      <trkpt lat="45.38764" lon="4.67948">
        <ele>433.69</ele>
        <time>2020-05-21T12:21:21Z</time>
      </trkpt>
      <trkpt lat="45.3876" lon="4.67951">
        <ele>433.69</ele>
        <time>2020-05-21T12:21:22Z</time>
      </trkpt>
      <trkpt lat="45.38757" lon="4.67954">
        <ele>433.21</ele>
        <time>2020-05-21T12:21:23Z</time>
      </trkpt>
      <trkpt lat="45.38753" lon="4.67955">
        <ele>432.73</ele>
        <time>2020-05-21T12:21:24Z</time>
      </trkpt>
      <trkpt lat="45.38749" lon="4.67957">
        <ele>432.25</ele>
        <time>2020-05-21T12:21:25Z</time>
      </trkpt>
      <trkpt lat="45.38745" lon="4.67962">
        <ele>431.77</ele>
        <time>2020-05-21T12:21:26Z</time>
      </trkpt>
      <trkpt lat="45.38743" lon="4.67968">
        <ele>430.81</ele>
        <time>2020-05-21T12:21:27Z</time>
      </trkpt>
      <trkpt lat="45.38741" lon="4.67973">
        <ele>430.33</ele>
        <time>2020-05-21T12:21:28Z</time>
      </trkpt>
      <trkpt lat="45.3874" lon="4.67979">
        <ele>429.37</ele>
        <time>2020-05-21T12:21:29Z</time>
      </trkpt>
      <trkpt lat="45.38737" lon="4.67984">
        <ele>428.89</ele>
        <time>2020-05-21T12:21:30Z</time>
      </trkpt>
      <trkpt lat="45.38734" lon="4.67987">
        <ele>428.4</ele>
        <time>2020-05-21T12:21:31Z</time>
      </trkpt>
      <trkpt lat="45.38729" lon="4.67987">
        <ele>427.92</ele>
        <time>2020-05-21T12:21:32Z</time>
      </trkpt>
      <trkpt lat="45.38724" lon="4.67986">
        <ele>427.92</ele>
        <time>2020-05-21T12:21:33Z</time>
      </trkpt>
      <trkpt lat="45.38718" lon="4.67984">
        <ele>427.44</ele>
        <time>2020-05-21T12:21:34Z</time>
      </trkpt>
      <trkpt lat="45.38712" lon="4.67981">
        <ele>427.44</ele>
        <time>2020-05-21T12:21:35Z</time>
      </trkpt>
      <trkpt lat="45.38706" lon="4.67979">
        <ele>426.96</ele>
        <time>2020-05-21T12:21:36Z</time>
      </trkpt>
      <trkpt lat="45.38701" lon="4.6798">
        <ele>426.48</ele>
        <time>2020-05-21T12:21:37Z</time>
      </trkpt>
      <trkpt lat="45.38697" lon="4.67983">
        <ele>425.04</ele>
        <time>2020-05-21T12:21:38Z</time>
      </trkpt>
      <trkpt lat="45.38692" lon="4.67984">
        <ele>425.04</ele>
        <time>2020-05-21T12:21:39Z</time>
      </trkpt>
      <trkpt lat="45.38679" lon="4.67984">
        <ele>424.08</ele>
        <time>2020-05-21T12:21:41Z</time>
      </trkpt>
      <trkpt lat="45.38672" lon="4.67982">
        <ele>424.08</ele>
        <time>2020-05-21T12:21:42Z</time>
      </trkpt>
      <trkpt lat="45.38657" lon="4.67976">
        <ele>423.12</ele>
        <time>2020-05-21T12:21:44Z</time>
      </trkpt>
      <trkpt lat="45.3865" lon="4.67972">
        <ele>422.64</ele>
        <time>2020-05-21T12:21:45Z</time>
      </trkpt>
      <trkpt lat="45.38643" lon="4.67967">
        <ele>422.64</ele>
        <time>2020-05-21T12:21:46Z</time>
      </trkpt>
      <trkpt lat="45.38638" lon="4.67964">
        <ele>423.12</ele>
        <time>2020-05-21T12:21:47Z</time>
      </trkpt>
      <trkpt lat="45.38633" lon="4.67961">
        <ele>423.6</ele>
        <time>2020-05-21T12:21:48Z</time>
      </trkpt>
      <trkpt lat="45.38628" lon="4.67959">
        <ele>423.6</ele>
        <time>2020-05-21T12:21:49Z</time>
      </trkpt>
      <trkpt lat="45.38602" lon="4.67951">
        <ele>424.08</ele>
        <time>2020-05-21T12:21:54Z</time>
      </trkpt>
      <trkpt lat="45.38596" lon="4.6795">
        <ele>424.08</ele>
        <time>2020-05-21T12:21:55Z</time>
      </trkpt>
      <trkpt lat="45.38591" lon="4.67948">
        <ele>424.08</ele>
        <time>2020-05-21T12:21:56Z</time>
      </trkpt>
      <trkpt lat="45.38586" lon="4.67945">
        <ele>424.56</ele>
        <time>2020-05-21T12:21:57Z</time>
      </trkpt>
      <trkpt lat="45.38583" lon="4.67942">
        <ele>425.04</ele>
        <time>2020-05-21T12:21:58Z</time>
      </trkpt>
      <trkpt lat="45.38568" lon="4.6793">
        <ele>426.48</ele>
        <time>2020-05-21T12:22:02Z</time>
      </trkpt>
      <trkpt lat="45.38565" lon="4.67927">
        <ele>426.48</ele>
        <time>2020-05-21T12:22:03Z</time>
      </trkpt>
      <trkpt lat="45.38562" lon="4.67925">
        <ele>426.96</ele>
        <time>2020-05-21T12:22:04Z</time>
      </trkpt>
      <trkpt lat="45.38522" lon="4.67895">
        <ele>428.89</ele>
        <time>2020-05-21T12:22:15Z</time>
      </trkpt>
      <trkpt lat="45.38508" lon="4.67891">
        <ele>428.89</ele>
        <time>2020-05-21T12:22:18Z</time>
      </trkpt>
      <trkpt lat="45.38498" lon="4.6789">
        <ele>428.89</ele>
        <time>2020-05-21T12:22:20Z</time>
      </trkpt>
      <trkpt lat="45.38493" lon="4.67888">
        <ele>428.89</ele>
        <time>2020-05-21T12:22:21Z</time>
      </trkpt>
      <trkpt lat="45.38488" lon="4.67886">
        <ele>428.89</ele>
        <time>2020-05-21T12:22:22Z</time>
      </trkpt>
      <trkpt lat="45.38482" lon="4.67885">
        <ele>429.37</ele>
        <time>2020-05-21T12:22:23Z</time>
      </trkpt>
      <trkpt lat="45.38477" lon="4.67883">
        <ele>428.89</ele>
        <time>2020-05-21T12:22:24Z</time>
      </trkpt>
      <trkpt lat="45.38472" lon="4.67881">
        <ele>428.89</ele>
        <time>2020-05-21T12:22:25Z</time>
      </trkpt>
      <trkpt lat="45.38467" lon="4.67877">
        <ele>428.89</ele>
        <time>2020-05-21T12:22:26Z</time>
      </trkpt>
      <trkpt lat="45.38463" lon="4.67872">
        <ele>429.37</ele>
        <time>2020-05-21T12:22:27Z</time>
      </trkpt>
      <trkpt lat="45.3846" lon="4.67868">
        <ele>429.85</ele>
        <time>2020-05-21T12:22:28Z</time>
      </trkpt>
      <trkpt lat="45.38434" lon="4.67844">
        <ele>432.73</ele>
        <time>2020-05-21T12:22:37Z</time>
      </trkpt>
      <trkpt lat="45.38417" lon="4.67826">
        <ele>433.69</ele>
        <time>2020-05-21T12:22:43Z</time>
      </trkpt>
      <trkpt lat="45.38414" lon="4.67822">
        <ele>433.69</ele>
        <time>2020-05-21T12:22:44Z</time>
      </trkpt>
      <trkpt lat="45.38412" lon="4.67817">
        <ele>433.69</ele>
        <time>2020-05-21T12:22:45Z</time>
      </trkpt>
      <trkpt lat="45.38411" lon="4.67814">
        <ele>434.17</ele>
        <time>2020-05-21T12:22:46Z</time>
      </trkpt>
      <trkpt lat="45.38409" lon="4.67811">
        <ele>434.65</ele>
        <time>2020-05-21T12:22:47Z</time>
      </trkpt>
      <trkpt lat="45.38407" lon="4.67809">
        <ele>434.65</ele>
        <time>2020-05-21T12:22:48Z</time>
      </trkpt>
      <trkpt lat="45.38389" lon="4.67781">
        <ele>436.58</ele>
        <time>2020-05-21T12:22:56Z</time>
      </trkpt>
      <trkpt lat="45.38386" lon="4.67778">
        <ele>436.58</ele>
        <time>2020-05-21T12:22:57Z</time>
      </trkpt>
      <trkpt lat="45.38382" lon="4.67775">
        <ele>436.1</ele>
        <time>2020-05-21T12:22:58Z</time>
      </trkpt>
      <trkpt lat="45.38373" lon="4.6777">
        <ele>436.1</ele>
        <time>2020-05-21T12:23:00Z</time>
      </trkpt>
      <trkpt lat="45.38339" lon="4.67753">
        <ele>436.58</ele>
        <time>2020-05-21T12:23:08Z</time>
      </trkpt>
      <trkpt lat="45.38335" lon="4.6775">
        <ele>437.06</ele>
        <time>2020-05-21T12:23:09Z</time>
      </trkpt>
      <trkpt lat="45.3833" lon="4.67748">
        <ele>436.58</ele>
        <time>2020-05-21T12:23:10Z</time>
      </trkpt>
      <trkpt lat="45.38325" lon="4.67748">
        <ele>436.58</ele>
        <time>2020-05-21T12:23:11Z</time>
      </trkpt>
      <trkpt lat="45.38319" lon="4.67748">
        <ele>436.58</ele>
        <time>2020-05-21T12:23:12Z</time>
      </trkpt>
      <trkpt lat="45.38314" lon="4.67747">
        <ele>435.61</ele>
        <time>2020-05-21T12:23:13Z</time>
      </trkpt>
      <trkpt lat="45.38308" lon="4.67745">
        <ele>435.61</ele>
        <time>2020-05-21T12:23:14Z</time>
      </trkpt>
      <trkpt lat="45.38262" lon="4.67736">
        <ele>434.65</ele>
        <time>2020-05-21T12:23:22Z</time>
      </trkpt>
      <trkpt lat="45.38251" lon="4.67731">
        <ele>434.65</ele>
        <time>2020-05-21T12:23:24Z</time>
      </trkpt>
      <trkpt lat="45.38245" lon="4.67727">
        <ele>434.65</ele>
        <time>2020-05-21T12:23:25Z</time>
      </trkpt>
      <trkpt lat="45.38241" lon="4.67721">
        <ele>434.65</ele>
        <time>2020-05-21T12:23:26Z</time>
      </trkpt>
      <trkpt lat="45.38214" lon="4.67695">
        <ele>436.58</ele>
        <time>2020-05-21T12:23:34Z</time>
      </trkpt>
      <trkpt lat="45.38211" lon="4.67696">
        <ele>436.58</ele>
        <time>2020-05-21T12:23:35Z</time>
      </trkpt>
      <trkpt lat="45.38209" lon="4.67698">
        <ele>436.58</ele>
        <time>2020-05-21T12:23:36Z</time>
      </trkpt>
      <trkpt lat="45.38181" lon="4.6773">
        <ele>433.69</ele>
        <time>2020-05-21T12:23:46Z</time>
      </trkpt>
      <trkpt lat="45.38176" lon="4.67735">
        <ele>432.25</ele>
        <time>2020-05-21T12:23:47Z</time>
      </trkpt>
      <trkpt lat="45.3817" lon="4.67741">
        <ele>431.29</ele>
        <time>2020-05-21T12:23:48Z</time>
      </trkpt>
      <trkpt lat="45.38164" lon="4.67744">
        <ele>430.81</ele>
        <time>2020-05-21T12:23:49Z</time>
      </trkpt>
      <trkpt lat="45.38158" lon="4.67747">
        <ele>429.37</ele>
        <time>2020-05-21T12:23:50Z</time>
      </trkpt>
      <trkpt lat="45.38154" lon="4.6775">
        <ele>428.89</ele>
        <time>2020-05-21T12:23:51Z</time>
      </trkpt>
      <trkpt lat="45.38149" lon="4.67757">
        <ele>427.92</ele>
        <time>2020-05-21T12:23:52Z</time>
      </trkpt>
      <trkpt lat="45.38145" lon="4.67765">
        <ele>427.44</ele>
        <time>2020-05-21T12:23:53Z</time>
      </trkpt>
      <trkpt lat="45.38139" lon="4.67785">
        <ele>425.04</ele>
        <time>2020-05-21T12:23:55Z</time>
      </trkpt>
      <trkpt lat="45.38135" lon="4.67794">
        <ele>424.56</ele>
        <time>2020-05-21T12:23:56Z</time>
      </trkpt>
      <trkpt lat="45.3813" lon="4.67803">
        <ele>423.6</ele>
        <time>2020-05-21T12:23:57Z</time>
      </trkpt>
      <trkpt lat="45.38124" lon="4.67811">
        <ele>423.12</ele>
        <time>2020-05-21T12:23:58Z</time>
      </trkpt>
      <trkpt lat="45.38118" lon="4.67818">
        <ele>422.16</ele>
        <time>2020-05-21T12:23:59Z</time>
      </trkpt>
      <trkpt lat="45.38112" lon="4.67825">
        <ele>421.68</ele>
        <time>2020-05-21T12:24:00Z</time>
      </trkpt>
      <trkpt lat="45.38106" lon="4.67829">
        <ele>420.71</ele>
        <time>2020-05-21T12:24:01Z</time>
      </trkpt>
      <trkpt lat="45.38101" lon="4.67829">
        <ele>420.23</ele>
        <time>2020-05-21T12:24:02Z</time>
      </trkpt>
      <trkpt lat="45.38095" lon="4.67827">
        <ele>419.75</ele>
        <time>2020-05-21T12:24:03Z</time>
      </trkpt>
      <trkpt lat="45.3809" lon="4.67825">
        <ele>418.79</ele>
        <time>2020-05-21T12:24:04Z</time>
      </trkpt>
      <trkpt lat="45.38084" lon="4.67823">
        <ele>418.79</ele>
        <time>2020-05-21T12:24:05Z</time>
      </trkpt>
      <trkpt lat="45.38079" lon="4.67822">
        <ele>419.27</ele>
        <time>2020-05-21T12:24:06Z</time>
      </trkpt>
      <trkpt lat="45.38074" lon="4.67823">
        <ele>419.75</ele>
        <time>2020-05-21T12:24:07Z</time>
      </trkpt>
      <trkpt lat="45.38069" lon="4.67825">
        <ele>419.75</ele>
        <time>2020-05-21T12:24:08Z</time>
      </trkpt>
      <trkpt lat="45.38065" lon="4.67827">
        <ele>420.23</ele>
        <time>2020-05-21T12:24:09Z</time>
      </trkpt>
      <trkpt lat="45.38062" lon="4.67828">
        <ele>421.19</ele>
        <time>2020-05-21T12:24:10Z</time>
      </trkpt>
      <trkpt lat="45.38059" lon="4.6783">
        <ele>421.68</ele>
        <time>2020-05-21T12:24:11Z</time>
      </trkpt>
      <trkpt lat="45.38055" lon="4.67831">
        <ele>421.68</ele>
        <time>2020-05-21T12:24:12Z</time>
      </trkpt>
      <trkpt lat="45.38025" lon="4.67843">
        <ele>425.04</ele>
        <time>2020-05-21T12:24:22Z</time>
      </trkpt>
      <trkpt lat="45.37993" lon="4.67864">
        <ele>426.48</ele>
        <time>2020-05-21T12:24:32Z</time>
      </trkpt>
      <trkpt lat="45.37985" lon="4.67867">
        <ele>426</ele>
        <time>2020-05-21T12:24:34Z</time>
      </trkpt>
      <trkpt lat="45.37954" lon="4.67874">
        <ele>424.56</ele>
        <time>2020-05-21T12:24:40Z</time>
      </trkpt>
      <trkpt lat="45.37949" lon="4.67875">
        <ele>424.56</ele>
        <time>2020-05-21T12:24:41Z</time>
      </trkpt>
      <trkpt lat="45.37934" lon="4.67878">
        <ele>424.56</ele>
        <time>2020-05-21T12:24:44Z</time>
      </trkpt>
      <trkpt lat="45.37929" lon="4.67878">
        <ele>424.56</ele>
        <time>2020-05-21T12:24:45Z</time>
      </trkpt>
      <trkpt lat="45.37924" lon="4.67878">
        <ele>425.04</ele>
        <time>2020-05-21T12:24:46Z</time>
      </trkpt>
      <trkpt lat="45.37915" lon="4.67874">
        <ele>425.52</ele>
        <time>2020-05-21T12:24:48Z</time>
      </trkpt>
      <trkpt lat="45.37907" lon="4.67869">
        <ele>426</ele>
        <time>2020-05-21T12:24:50Z</time>
      </trkpt>
      <trkpt lat="45.37895" lon="4.67864">
        <ele>427.44</ele>
        <time>2020-05-21T12:24:53Z</time>
      </trkpt>
      <trkpt lat="45.37857" lon="4.67847">
        <ele>427.92</ele>
        <time>2020-05-21T12:25:03Z</time>
      </trkpt>
      <trkpt lat="45.37829" lon="4.6784">
        <ele>427.44</ele>
        <time>2020-05-21T12:25:09Z</time>
      </trkpt>
      <trkpt lat="45.37824" lon="4.67841">
        <ele>426.96</ele>
        <time>2020-05-21T12:25:10Z</time>
      </trkpt>
      <trkpt lat="45.37794" lon="4.67841">
        <ele>425.52</ele>
        <time>2020-05-21T12:25:15Z</time>
      </trkpt>
      <trkpt lat="45.37788" lon="4.6784">
        <ele>425.52</ele>
        <time>2020-05-21T12:25:16Z</time>
      </trkpt>
      <trkpt lat="45.37718" lon="4.67836">
        <ele>425.52</ele>
        <time>2020-05-21T12:25:28Z</time>
      </trkpt>
      <trkpt lat="45.37683" lon="4.67824">
        <ele>426.48</ele>
        <time>2020-05-21T12:25:34Z</time>
      </trkpt>
      <trkpt lat="45.37627" lon="4.67806">
        <ele>427.92</ele>
        <time>2020-05-21T12:25:46Z</time>
      </trkpt>
      <trkpt lat="45.37623" lon="4.67803">
        <ele>427.92</ele>
        <time>2020-05-21T12:25:47Z</time>
      </trkpt>
      <trkpt lat="45.37618" lon="4.67799">
        <ele>427.92</ele>
        <time>2020-05-21T12:25:48Z</time>
      </trkpt>
      <trkpt lat="45.37614" lon="4.67795">
        <ele>427.92</ele>
        <time>2020-05-21T12:25:49Z</time>
      </trkpt>
      <trkpt lat="45.37595" lon="4.67773">
        <ele>428.4</ele>
        <time>2020-05-21T12:25:54Z</time>
      </trkpt>
      <trkpt lat="45.37557" lon="4.67715">
        <ele>429.85</ele>
        <time>2020-05-21T12:26:05Z</time>
      </trkpt>
      <trkpt lat="45.37553" lon="4.67712">
        <ele>429.85</ele>
        <time>2020-05-21T12:26:06Z</time>
      </trkpt>
      <trkpt lat="45.37548" lon="4.6771">
        <ele>429.85</ele>
        <time>2020-05-21T12:26:07Z</time>
      </trkpt>
      <trkpt lat="45.37543" lon="4.6771">
        <ele>429.37</ele>
        <time>2020-05-21T12:26:08Z</time>
      </trkpt>
      <trkpt lat="45.37538" lon="4.67712">
        <ele>428.89</ele>
        <time>2020-05-21T12:26:09Z</time>
      </trkpt>
      <trkpt lat="45.37533" lon="4.67715">
        <ele>428.89</ele>
        <time>2020-05-21T12:26:10Z</time>
      </trkpt>
      <trkpt lat="45.37528" lon="4.67716">
        <ele>428.89</ele>
        <time>2020-05-21T12:26:11Z</time>
      </trkpt>
      <trkpt lat="45.37522" lon="4.67717">
        <ele>427.92</ele>
        <time>2020-05-21T12:26:12Z</time>
      </trkpt>
      <trkpt lat="45.37502" lon="4.67717">
        <ele>426.48</ele>
        <time>2020-05-21T12:26:15Z</time>
      </trkpt>
      <trkpt lat="45.37495" lon="4.67715">
        <ele>426</ele>
        <time>2020-05-21T12:26:16Z</time>
      </trkpt>
      <trkpt lat="45.37488" lon="4.67713">
        <ele>426</ele>
        <time>2020-05-21T12:26:17Z</time>
      </trkpt>
      <trkpt lat="45.3748" lon="4.67713">
        <ele>425.52</ele>
        <time>2020-05-21T12:26:18Z</time>
      </trkpt>
      <trkpt lat="45.37473" lon="4.67713">
        <ele>425.04</ele>
        <time>2020-05-21T12:26:19Z</time>
      </trkpt>
      <trkpt lat="45.37465" lon="4.67713">
        <ele>424.56</ele>
        <time>2020-05-21T12:26:20Z</time>
      </trkpt>
      <trkpt lat="45.37458" lon="4.67713">
        <ele>424.56</ele>
        <time>2020-05-21T12:26:21Z</time>
      </trkpt>
      <trkpt lat="45.3745" lon="4.67713">
        <ele>424.08</ele>
        <time>2020-05-21T12:26:22Z</time>
      </trkpt>
      <trkpt lat="45.37382" lon="4.67724">
        <ele>421.19</ele>
        <time>2020-05-21T12:26:31Z</time>
      </trkpt>
      <trkpt lat="45.37355" lon="4.67736">
        <ele>418.79</ele>
        <time>2020-05-21T12:26:34Z</time>
      </trkpt>
      <trkpt lat="45.37346" lon="4.67741">
        <ele>418.79</ele>
        <time>2020-05-21T12:26:35Z</time>
      </trkpt>
      <trkpt lat="45.37337" lon="4.67745">
        <ele>418.79</ele>
        <time>2020-05-21T12:26:36Z</time>
      </trkpt>
      <trkpt lat="45.37329" lon="4.67747">
        <ele>418.79</ele>
        <time>2020-05-21T12:26:37Z</time>
      </trkpt>
      <trkpt lat="45.3732" lon="4.67749">
        <ele>418.31</ele>
        <time>2020-05-21T12:26:38Z</time>
      </trkpt>
      <trkpt lat="45.37238" lon="4.67768">
        <ele>419.75</ele>
        <time>2020-05-21T12:26:50Z</time>
      </trkpt>
      <trkpt lat="45.37197" lon="4.67769">
        <ele>421.68</ele>
        <time>2020-05-21T12:26:57Z</time>
      </trkpt>
      <trkpt lat="45.37167" lon="4.67761">
        <ele>425.04</ele>
        <time>2020-05-21T12:27:04Z</time>
      </trkpt>
      <trkpt lat="45.37158" lon="4.67759">
        <ele>426</ele>
        <time>2020-05-21T12:27:06Z</time>
      </trkpt>
      <trkpt lat="45.37115" lon="4.67762">
        <ele>429.37</ele>
        <time>2020-05-21T12:27:17Z</time>
      </trkpt>
      <trkpt lat="45.37091" lon="4.67766">
        <ele>431.77</ele>
        <time>2020-05-21T12:27:25Z</time>
      </trkpt>
      <trkpt lat="45.37054" lon="4.67756">
        <ele>434.65</ele>
        <time>2020-05-21T12:27:37Z</time>
      </trkpt>
      <trkpt lat="45.37042" lon="4.6775">
        <ele>436.58</ele>
        <time>2020-05-21T12:27:41Z</time>
      </trkpt>
      <trkpt lat="45.36994" lon="4.67727">
        <ele>438.98</ele>
        <time>2020-05-21T12:27:56Z</time>
      </trkpt>
      <trkpt lat="45.3696" lon="4.67669">
        <ele>438.98</ele>
        <time>2020-05-21T12:28:09Z</time>
      </trkpt>
      <trkpt lat="45.36942" lon="4.67627">
        <ele>436.58</ele>
        <time>2020-05-21T12:28:14Z</time>
      </trkpt>
      <trkpt lat="45.36917" lon="4.6758">
        <ele>433.69</ele>
        <time>2020-05-21T12:28:19Z</time>
      </trkpt>
      <trkpt lat="45.36913" lon="4.6757">
        <ele>433.21</ele>
        <time>2020-05-21T12:28:20Z</time>
      </trkpt>
      <trkpt lat="45.36909" lon="4.67559">
        <ele>433.21</ele>
        <time>2020-05-21T12:28:21Z</time>
      </trkpt>
      <trkpt lat="45.36906" lon="4.67548">
        <ele>433.21</ele>
        <time>2020-05-21T12:28:22Z</time>
      </trkpt>
      <trkpt lat="45.36888" lon="4.67467">
        <ele>435.13</ele>
        <time>2020-05-21T12:28:32Z</time>
      </trkpt>
      <trkpt lat="45.36884" lon="4.67454">
        <ele>435.61</ele>
        <time>2020-05-21T12:28:35Z</time>
      </trkpt>
      <trkpt lat="45.36881" lon="4.67454">
        <ele>435.61</ele>
        <time>2020-05-21T12:28:36Z</time>
      </trkpt>
      <trkpt lat="45.36877" lon="4.67457">
        <ele>434.65</ele>
        <time>2020-05-21T12:28:37Z</time>
      </trkpt>
      <trkpt lat="45.36867" lon="4.67466">
        <ele>432.25</ele>
        <time>2020-05-21T12:28:39Z</time>
      </trkpt>
      <trkpt lat="45.36861" lon="4.6747">
        <ele>431.29</ele>
        <time>2020-05-21T12:28:40Z</time>
      </trkpt>
      <trkpt lat="45.36853" lon="4.67473">
        <ele>429.85</ele>
        <time>2020-05-21T12:28:41Z</time>
      </trkpt>
      <trkpt lat="45.36846" lon="4.67476">
        <ele>428.89</ele>
        <time>2020-05-21T12:28:42Z</time>
      </trkpt>
      <trkpt lat="45.36837" lon="4.67479">
        <ele>428.4</ele>
        <time>2020-05-21T12:28:43Z</time>
      </trkpt>
      <trkpt lat="45.36819" lon="4.67486">
        <ele>426</ele>
        <time>2020-05-21T12:28:45Z</time>
      </trkpt>
      <trkpt lat="45.36811" lon="4.67492">
        <ele>425.04</ele>
        <time>2020-05-21T12:28:46Z</time>
      </trkpt>
      <trkpt lat="45.36802" lon="4.67496">
        <ele>424.08</ele>
        <time>2020-05-21T12:28:47Z</time>
      </trkpt>
      <trkpt lat="45.36792" lon="4.67499">
        <ele>422.64</ele>
        <time>2020-05-21T12:28:48Z</time>
      </trkpt>
      <trkpt lat="45.36782" lon="4.67502">
        <ele>422.64</ele>
        <time>2020-05-21T12:28:49Z</time>
      </trkpt>
      <trkpt lat="45.36744" lon="4.67523">
        <ele>419.75</ele>
        <time>2020-05-21T12:28:53Z</time>
      </trkpt>
      <trkpt lat="45.36727" lon="4.67538">
        <ele>417.83</ele>
        <time>2020-05-21T12:28:55Z</time>
      </trkpt>
      <trkpt lat="45.36711" lon="4.67549">
        <ele>416.87</ele>
        <time>2020-05-21T12:28:57Z</time>
      </trkpt>
      <trkpt lat="45.36705" lon="4.67551">
        <ele>416.39</ele>
        <time>2020-05-21T12:28:58Z</time>
      </trkpt>
      <trkpt lat="45.36699" lon="4.67554">
        <ele>415.91</ele>
        <time>2020-05-21T12:28:59Z</time>
      </trkpt>
      <trkpt lat="45.36695" lon="4.67556">
        <ele>415.43</ele>
        <time>2020-05-21T12:29:00Z</time>
      </trkpt>
      <trkpt lat="45.3669" lon="4.67554">
        <ele>415.43</ele>
        <time>2020-05-21T12:29:01Z</time>
      </trkpt>
      <trkpt lat="45.36685" lon="4.6755">
        <ele>414.95</ele>
        <time>2020-05-21T12:29:02Z</time>
      </trkpt>
      <trkpt lat="45.3668" lon="4.67545">
        <ele>414.47</ele>
        <time>2020-05-21T12:29:03Z</time>
      </trkpt>
      <trkpt lat="45.36656" lon="4.67519">
        <ele>412.06</ele>
        <time>2020-05-21T12:29:08Z</time>
      </trkpt>
      <trkpt lat="45.36649" lon="4.67516">
        <ele>412.06</ele>
        <time>2020-05-21T12:29:09Z</time>
      </trkpt>
      <trkpt lat="45.36643" lon="4.67515">
        <ele>411.58</ele>
        <time>2020-05-21T12:29:10Z</time>
      </trkpt>
      <trkpt lat="45.36635" lon="4.67516">
        <ele>411.58</ele>
        <time>2020-05-21T12:29:11Z</time>
      </trkpt>
      <trkpt lat="45.36628" lon="4.67518">
        <ele>411.1</ele>
        <time>2020-05-21T12:29:12Z</time>
      </trkpt>
      <trkpt lat="45.3662" lon="4.6752">
        <ele>410.62</ele>
        <time>2020-05-21T12:29:13Z</time>
      </trkpt>
      <trkpt lat="45.36595" lon="4.67523">
        <ele>410.62</ele>
        <time>2020-05-21T12:29:16Z</time>
      </trkpt>
      <trkpt lat="45.36543" lon="4.67529">
        <ele>408.7</ele>
        <time>2020-05-21T12:29:22Z</time>
      </trkpt>
      <trkpt lat="45.36498" lon="4.67538">
        <ele>406.77</ele>
        <time>2020-05-21T12:29:27Z</time>
      </trkpt>
      <trkpt lat="45.36453" lon="4.6755">
        <ele>404.37</ele>
        <time>2020-05-21T12:29:32Z</time>
      </trkpt>
      <trkpt lat="45.36444" lon="4.67555">
        <ele>403.89</ele>
        <time>2020-05-21T12:29:33Z</time>
      </trkpt>
      <trkpt lat="45.36436" lon="4.67561">
        <ele>403.89</ele>
        <time>2020-05-21T12:29:34Z</time>
      </trkpt>
      <trkpt lat="45.36347" lon="4.67633">
        <ele>401.97</ele>
        <time>2020-05-21T12:29:46Z</time>
      </trkpt>
      <trkpt lat="45.36334" lon="4.67642">
        <ele>401.97</ele>
        <time>2020-05-21T12:29:48Z</time>
      </trkpt>
      <trkpt lat="45.36327" lon="4.67644">
        <ele>401.97</ele>
        <time>2020-05-21T12:29:49Z</time>
      </trkpt>
      <trkpt lat="45.36321" lon="4.67643">
        <ele>402.45</ele>
        <time>2020-05-21T12:29:50Z</time>
      </trkpt>
      <trkpt lat="45.36315" lon="4.6764">
        <ele>402.93</ele>
        <time>2020-05-21T12:29:51Z</time>
      </trkpt>
      <trkpt lat="45.36311" lon="4.67635">
        <ele>402.93</ele>
        <time>2020-05-21T12:29:52Z</time>
      </trkpt>
      <trkpt lat="45.36308" lon="4.67631">
        <ele>404.37</ele>
        <time>2020-05-21T12:29:53Z</time>
      </trkpt>
      <trkpt lat="45.36304" lon="4.67627">
        <ele>404.37</ele>
        <time>2020-05-21T12:29:54Z</time>
      </trkpt>
      <trkpt lat="45.363" lon="4.67624">
        <ele>404.37</ele>
        <time>2020-05-21T12:29:55Z</time>
      </trkpt>
      <trkpt lat="45.36296" lon="4.6762">
        <ele>404.85</ele>
        <time>2020-05-21T12:29:56Z</time>
      </trkpt>
      <trkpt lat="45.36233" lon="4.67569">
        <ele>406.29</ele>
        <time>2020-05-21T12:30:10Z</time>
      </trkpt>
      <trkpt lat="45.36158" lon="4.67546">
        <ele>407.26</ele>
        <time>2020-05-21T12:30:24Z</time>
      </trkpt>
      <trkpt lat="45.36088" lon="4.67549">
        <ele>407.74</ele>
        <time>2020-05-21T12:30:36Z</time>
      </trkpt>
      <trkpt lat="45.36082" lon="4.67548">
        <ele>407.74</ele>
        <time>2020-05-21T12:30:37Z</time>
      </trkpt>
      <trkpt lat="45.36011" lon="4.67511">
        <ele>409.18</ele>
        <time>2020-05-21T12:30:50Z</time>
      </trkpt>
      <trkpt lat="45.35956" lon="4.67447">
        <ele>411.1</ele>
        <time>2020-05-21T12:31:04Z</time>
      </trkpt>
      <trkpt lat="45.35914" lon="4.67399">
        <ele>413.5</ele>
        <time>2020-05-21T12:31:16Z</time>
      </trkpt>
      <trkpt lat="45.35879" lon="4.67391">
        <ele>415.43</ele>
        <time>2020-05-21T12:31:27Z</time>
      </trkpt>
      <trkpt lat="45.35848" lon="4.67437">
        <ele>411.58</ele>
        <time>2020-05-21T12:31:35Z</time>
      </trkpt>
      <trkpt lat="45.35844" lon="4.67447">
        <ele>411.1</ele>
        <time>2020-05-21T12:31:36Z</time>
      </trkpt>
      <trkpt lat="45.35841" lon="4.67456">
        <ele>410.14</ele>
        <time>2020-05-21T12:31:37Z</time>
      </trkpt>
      <trkpt lat="45.35838" lon="4.67466">
        <ele>410.14</ele>
        <time>2020-05-21T12:31:38Z</time>
      </trkpt>
      <trkpt lat="45.35835" lon="4.67477">
        <ele>409.66</ele>
        <time>2020-05-21T12:31:39Z</time>
      </trkpt>
      <trkpt lat="45.35822" lon="4.67555">
        <ele>407.26</ele>
        <time>2020-05-21T12:31:46Z</time>
      </trkpt>
      <trkpt lat="45.35819" lon="4.67567">
        <ele>405.81</ele>
        <time>2020-05-21T12:31:47Z</time>
      </trkpt>
      <trkpt lat="45.35815" lon="4.67579">
        <ele>405.81</ele>
        <time>2020-05-21T12:31:48Z</time>
      </trkpt>
      <trkpt lat="45.35802" lon="4.67616">
        <ele>402.45</ele>
        <time>2020-05-21T12:31:51Z</time>
      </trkpt>
      <trkpt lat="45.35786" lon="4.67664">
        <ele>399.57</ele>
        <time>2020-05-21T12:31:55Z</time>
      </trkpt>
      <trkpt lat="45.35775" lon="4.67698">
        <ele>399.08</ele>
        <time>2020-05-21T12:32:02Z</time>
      </trkpt>
      <trkpt lat="45.3577" lon="4.67717">
        <ele>397.64</ele>
        <time>2020-05-21T12:32:05Z</time>
      </trkpt>
      <trkpt lat="45.35743" lon="4.67811">
        <ele>394.76</ele>
        <time>2020-05-21T12:32:16Z</time>
      </trkpt>
      <trkpt lat="45.35728" lon="4.67856">
        <ele>394.28</ele>
        <time>2020-05-21T12:32:21Z</time>
      </trkpt>
      <trkpt lat="45.35725" lon="4.67864">
        <ele>393.32</ele>
        <time>2020-05-21T12:32:22Z</time>
      </trkpt>
      <trkpt lat="45.35716" lon="4.67879">
        <ele>393.32</ele>
        <time>2020-05-21T12:32:24Z</time>
      </trkpt>
      <trkpt lat="45.35706" lon="4.67902">
        <ele>393.32</ele>
        <time>2020-05-21T12:32:27Z</time>
      </trkpt>
      <trkpt lat="45.35697" lon="4.67927">
        <ele>391.87</ele>
        <time>2020-05-21T12:32:30Z</time>
      </trkpt>
      <trkpt lat="45.35683" lon="4.67987">
        <ele>389.47</ele>
        <time>2020-05-21T12:32:36Z</time>
      </trkpt>
      <trkpt lat="45.35672" lon="4.68033">
        <ele>386.59</ele>
        <time>2020-05-21T12:32:40Z</time>
      </trkpt>
      <trkpt lat="45.35656" lon="4.68091">
        <ele>383.22</ele>
        <time>2020-05-21T12:32:45Z</time>
      </trkpt>
      <trkpt lat="45.35644" lon="4.68126">
        <ele>381.78</ele>
        <time>2020-05-21T12:32:48Z</time>
      </trkpt>
      <trkpt lat="45.35623" lon="4.68185">
        <ele>379.38</ele>
        <time>2020-05-21T12:32:53Z</time>
      </trkpt>
      <trkpt lat="45.35602" lon="4.68242">
        <ele>378.42</ele>
        <time>2020-05-21T12:32:58Z</time>
      </trkpt>
      <trkpt lat="45.35598" lon="4.68258">
        <ele>377.94</ele>
        <time>2020-05-21T12:33:00Z</time>
      </trkpt>
      <trkpt lat="45.35597" lon="4.68264">
        <ele>378.42</ele>
        <time>2020-05-21T12:33:01Z</time>
      </trkpt>
      <trkpt lat="45.35597" lon="4.6827">
        <ele>378.42</ele>
        <time>2020-05-21T12:33:02Z</time>
      </trkpt>
      <trkpt lat="45.35596" lon="4.68276">
        <ele>377.94</ele>
        <time>2020-05-21T12:33:03Z</time>
      </trkpt>
      <trkpt lat="45.35595" lon="4.68283">
        <ele>377.94</ele>
        <time>2020-05-21T12:33:04Z</time>
      </trkpt>
      <trkpt lat="45.35595" lon="4.68291">
        <ele>377.45</ele>
        <time>2020-05-21T12:33:05Z</time>
      </trkpt>
      <trkpt lat="45.3558" lon="4.68375">
        <ele>374.57</ele>
        <time>2020-05-21T12:33:14Z</time>
      </trkpt>
      <trkpt lat="45.35563" lon="4.68464">
        <ele>372.65</ele>
        <time>2020-05-21T12:33:23Z</time>
      </trkpt>
      <trkpt lat="45.35562" lon="4.68474">
        <ele>372.65</ele>
        <time>2020-05-21T12:33:24Z</time>
      </trkpt>
      <trkpt lat="45.35567" lon="4.6851">
        <ele>373.13</ele>
        <time>2020-05-21T12:33:30Z</time>
      </trkpt>
      <trkpt lat="45.35567" lon="4.6853">
        <ele>372.65</ele>
        <time>2020-05-21T12:33:33Z</time>
      </trkpt>
      <trkpt lat="45.35565" lon="4.68598">
        <ele>372.17</ele>
        <time>2020-05-21T12:33:41Z</time>
      </trkpt>
      <trkpt lat="45.35528" lon="4.68707">
        <ele>371.69</ele>
        <time>2020-05-21T12:33:55Z</time>
      </trkpt>
      <trkpt lat="45.35505" lon="4.68832">
        <ele>370.73</ele>
        <time>2020-05-21T12:34:10Z</time>
      </trkpt>
      <trkpt lat="45.35497" lon="4.68884">
        <ele>370.73</ele>
        <time>2020-05-21T12:34:17Z</time>
      </trkpt>
      <trkpt lat="45.35495" lon="4.6889">
        <ele>370.24</ele>
        <time>2020-05-21T12:34:18Z</time>
      </trkpt>
      <trkpt lat="45.35491" lon="4.68895">
        <ele>370.24</ele>
        <time>2020-05-21T12:34:19Z</time>
      </trkpt>
      <trkpt lat="45.35488" lon="4.68899">
        <ele>370.24</ele>
        <time>2020-05-21T12:34:20Z</time>
      </trkpt>
      <trkpt lat="45.35484" lon="4.68902">
        <ele>371.21</ele>
        <time>2020-05-21T12:34:21Z</time>
      </trkpt>
      <trkpt lat="45.3548" lon="4.68905">
        <ele>371.21</ele>
        <time>2020-05-21T12:34:22Z</time>
      </trkpt>
      <trkpt lat="45.35477" lon="4.68909">
        <ele>371.69</ele>
        <time>2020-05-21T12:34:23Z</time>
      </trkpt>
      <trkpt lat="45.35463" lon="4.68922">
        <ele>373.13</ele>
        <time>2020-05-21T12:34:27Z</time>
      </trkpt>
      <trkpt lat="45.35443" lon="4.68944">
        <ele>374.57</ele>
        <time>2020-05-21T12:34:33Z</time>
      </trkpt>
      <trkpt lat="45.35436" lon="4.68952">
        <ele>375.05</ele>
        <time>2020-05-21T12:34:35Z</time>
      </trkpt>
      <trkpt lat="45.35433" lon="4.68956">
        <ele>375.53</ele>
        <time>2020-05-21T12:34:36Z</time>
      </trkpt>
      <trkpt lat="45.3543" lon="4.6896">
        <ele>376.01</ele>
        <time>2020-05-21T12:34:37Z</time>
      </trkpt>
      <trkpt lat="45.35403" lon="4.69001">
        <ele>378.9</ele>
        <time>2020-05-21T12:34:47Z</time>
      </trkpt>
      <trkpt lat="45.35377" lon="4.69033">
        <ele>379.86</ele>
        <time>2020-05-21T12:34:55Z</time>
      </trkpt>
      <trkpt lat="45.35346" lon="4.69096">
        <ele>380.82</ele>
        <time>2020-05-21T12:35:07Z</time>
      </trkpt>
      <trkpt lat="45.35345" lon="4.69102">
        <ele>380.82</ele>
        <time>2020-05-21T12:35:08Z</time>
      </trkpt>
      <trkpt lat="45.3534" lon="4.69146">
        <ele>379.38</ele>
        <time>2020-05-21T12:35:14Z</time>
      </trkpt>
      <trkpt lat="45.35335" lon="4.69177">
        <ele>379.38</ele>
        <time>2020-05-21T12:35:18Z</time>
      </trkpt>
      <trkpt lat="45.35333" lon="4.69185">
        <ele>379.38</ele>
        <time>2020-05-21T12:35:19Z</time>
      </trkpt>
      <trkpt lat="45.35298" lon="4.69292">
        <ele>380.34</ele>
        <time>2020-05-21T12:35:34Z</time>
      </trkpt>
      <trkpt lat="45.35237" lon="4.6942">
        <ele>382.26</ele>
        <time>2020-05-21T12:35:54Z</time>
      </trkpt>
      <trkpt lat="45.35196" lon="4.69515">
        <ele>382.74</ele>
        <time>2020-05-21T12:36:09Z</time>
      </trkpt>
      <trkpt lat="45.35193" lon="4.69521">
        <ele>382.26</ele>
        <time>2020-05-21T12:36:10Z</time>
      </trkpt>
      <trkpt lat="45.3519" lon="4.69527">
        <ele>381.78</ele>
        <time>2020-05-21T12:36:11Z</time>
      </trkpt>
      <trkpt lat="45.35186" lon="4.69531">
        <ele>381.78</ele>
        <time>2020-05-21T12:36:12Z</time>
      </trkpt>
      <trkpt lat="45.3518" lon="4.69535">
        <ele>381.78</ele>
        <time>2020-05-21T12:36:13Z</time>
      </trkpt>
      <trkpt lat="45.35176" lon="4.69539">
        <ele>381.3</ele>
        <time>2020-05-21T12:36:14Z</time>
      </trkpt>
      <trkpt lat="45.35172" lon="4.69545">
        <ele>381.3</ele>
        <time>2020-05-21T12:36:15Z</time>
      </trkpt>
      <trkpt lat="45.35169" lon="4.69552">
        <ele>380.34</ele>
        <time>2020-05-21T12:36:16Z</time>
      </trkpt>
      <trkpt lat="45.35167" lon="4.6956">
        <ele>380.34</ele>
        <time>2020-05-21T12:36:17Z</time>
      </trkpt>
      <trkpt lat="45.35164" lon="4.69569">
        <ele>380.34</ele>
        <time>2020-05-21T12:36:18Z</time>
      </trkpt>
      <trkpt lat="45.35161" lon="4.69576">
        <ele>379.86</ele>
        <time>2020-05-21T12:36:19Z</time>
      </trkpt>
      <trkpt lat="45.35149" lon="4.69601">
        <ele>378.42</ele>
        <time>2020-05-21T12:36:23Z</time>
      </trkpt>
      <trkpt lat="45.35151" lon="4.69605">
        <ele>377.94</ele>
        <time>2020-05-21T12:36:24Z</time>
      </trkpt>
      <trkpt lat="45.35154" lon="4.69607">
        <ele>377.45</ele>
        <time>2020-05-21T12:36:25Z</time>
      </trkpt>
      <trkpt lat="45.35157" lon="4.69608">
        <ele>376.97</ele>
        <time>2020-05-21T12:36:26Z</time>
      </trkpt>
      <trkpt lat="45.35162" lon="4.6961">
        <ele>376.49</ele>
        <time>2020-05-21T12:36:27Z</time>
      </trkpt>
      <trkpt lat="45.35167" lon="4.69612">
        <ele>376.49</ele>
        <time>2020-05-21T12:36:28Z</time>
      </trkpt>
      <trkpt lat="45.35177" lon="4.69617">
        <ele>374.57</ele>
        <time>2020-05-21T12:36:30Z</time>
      </trkpt>
      <trkpt lat="45.35181" lon="4.69621">
        <ele>374.09</ele>
        <time>2020-05-21T12:36:31Z</time>
      </trkpt>
      <trkpt lat="45.35185" lon="4.69625">
        <ele>373.61</ele>
        <time>2020-05-21T12:36:32Z</time>
      </trkpt>
      <trkpt lat="45.3519" lon="4.69625">
        <ele>372.65</ele>
        <time>2020-05-21T12:36:33Z</time>
      </trkpt>
      <trkpt lat="45.35196" lon="4.69622">
        <ele>371.69</ele>
        <time>2020-05-21T12:36:34Z</time>
      </trkpt>
      <trkpt lat="45.35202" lon="4.6962">
        <ele>370.73</ele>
        <time>2020-05-21T12:36:35Z</time>
      </trkpt>
      <trkpt lat="45.3521" lon="4.69619">
        <ele>369.76</ele>
        <time>2020-05-21T12:36:36Z</time>
      </trkpt>
      <trkpt lat="45.35217" lon="4.69621">
        <ele>368.8</ele>
        <time>2020-05-21T12:36:37Z</time>
      </trkpt>
      <trkpt lat="45.35224" lon="4.69628">
        <ele>367.84</ele>
        <time>2020-05-21T12:36:38Z</time>
      </trkpt>
      <trkpt lat="45.3523" lon="4.69637">
        <ele>366.88</ele>
        <time>2020-05-21T12:36:39Z</time>
      </trkpt>
      <trkpt lat="45.35236" lon="4.69647">
        <ele>366.4</ele>
        <time>2020-05-21T12:36:40Z</time>
      </trkpt>
      <trkpt lat="45.35259" lon="4.69686">
        <ele>364</ele>
        <time>2020-05-21T12:36:44Z</time>
      </trkpt>
      <trkpt lat="45.35274" lon="4.69715">
        <ele>363.52</ele>
        <time>2020-05-21T12:36:47Z</time>
      </trkpt>
      <trkpt lat="45.35277" lon="4.69725">
        <ele>364</ele>
        <time>2020-05-21T12:36:48Z</time>
      </trkpt>
      <trkpt lat="45.35278" lon="4.69735">
        <ele>364</ele>
        <time>2020-05-21T12:36:49Z</time>
      </trkpt>
      <trkpt lat="45.35277" lon="4.69745">
        <ele>364</ele>
        <time>2020-05-21T12:36:50Z</time>
      </trkpt>
      <trkpt lat="45.35275" lon="4.69755">
        <ele>364.48</ele>
        <time>2020-05-21T12:36:51Z</time>
      </trkpt>
      <trkpt lat="45.35271" lon="4.69764">
        <ele>364</ele>
        <time>2020-05-21T12:36:52Z</time>
      </trkpt>
      <trkpt lat="45.35267" lon="4.69774">
        <ele>364</ele>
        <time>2020-05-21T12:36:53Z</time>
      </trkpt>
      <trkpt lat="45.3525" lon="4.69802">
        <ele>359.67</ele>
        <time>2020-05-21T12:36:56Z</time>
      </trkpt>
      <trkpt lat="45.35242" lon="4.69811">
        <ele>360.15</ele>
        <time>2020-05-21T12:36:57Z</time>
      </trkpt>
      <trkpt lat="45.35234" lon="4.69822">
        <ele>358.71</ele>
        <time>2020-05-21T12:36:58Z</time>
      </trkpt>
      <trkpt lat="45.35226" lon="4.69834">
        <ele>353.42</ele>
        <time>2020-05-21T12:36:59Z</time>
      </trkpt>
      <trkpt lat="45.35218" lon="4.69848">
        <ele>351.5</ele>
        <time>2020-05-21T12:37:00Z</time>
      </trkpt>
      <trkpt lat="45.35211" lon="4.69862">
        <ele>351.02</ele>
        <time>2020-05-21T12:37:01Z</time>
      </trkpt>
      <trkpt lat="45.35198" lon="4.69889">
        <ele>348.13</ele>
        <time>2020-05-21T12:37:03Z</time>
      </trkpt>
      <trkpt lat="45.35186" lon="4.69919">
        <ele>346.69</ele>
        <time>2020-05-21T12:37:05Z</time>
      </trkpt>
      <trkpt lat="45.35164" lon="4.69961">
        <ele>341.89</ele>
        <time>2020-05-21T12:37:08Z</time>
      </trkpt>
      <trkpt lat="45.35144" lon="4.70003">
        <ele>339</ele>
        <time>2020-05-21T12:37:11Z</time>
      </trkpt>
      <trkpt lat="45.35139" lon="4.70018">
        <ele>338.04</ele>
        <time>2020-05-21T12:37:12Z</time>
      </trkpt>
      <trkpt lat="45.35127" lon="4.70066">
        <ele>333.23</ele>
        <time>2020-05-21T12:37:15Z</time>
      </trkpt>
      <trkpt lat="45.35124" lon="4.7008">
        <ele>332.27</ele>
        <time>2020-05-21T12:37:16Z</time>
      </trkpt>
      <trkpt lat="45.3512" lon="4.70092">
        <ele>331.79</ele>
        <time>2020-05-21T12:37:17Z</time>
      </trkpt>
      <trkpt lat="45.35114" lon="4.70101">
        <ele>331.31</ele>
        <time>2020-05-21T12:37:18Z</time>
      </trkpt>
      <trkpt lat="45.35106" lon="4.70108">
        <ele>330.35</ele>
        <time>2020-05-21T12:37:19Z</time>
      </trkpt>
      <trkpt lat="45.35098" lon="4.70115">
        <ele>329.39</ele>
        <time>2020-05-21T12:37:20Z</time>
      </trkpt>
      <trkpt lat="45.3509" lon="4.70123">
        <ele>328.91</ele>
        <time>2020-05-21T12:37:21Z</time>
      </trkpt>
      <trkpt lat="45.35083" lon="4.70132">
        <ele>327.47</ele>
        <time>2020-05-21T12:37:22Z</time>
      </trkpt>
      <trkpt lat="45.35076" lon="4.70141">
        <ele>326.02</ele>
        <time>2020-05-21T12:37:23Z</time>
      </trkpt>
      <trkpt lat="45.35068" lon="4.70149">
        <ele>325.06</ele>
        <time>2020-05-21T12:37:24Z</time>
      </trkpt>
      <trkpt lat="45.35046" lon="4.70176">
        <ele>321.22</ele>
        <time>2020-05-21T12:37:27Z</time>
      </trkpt>
      <trkpt lat="45.35032" lon="4.70196">
        <ele>318.33</ele>
        <time>2020-05-21T12:37:29Z</time>
      </trkpt>
      <trkpt lat="45.35026" lon="4.70208">
        <ele>317.37</ele>
        <time>2020-05-21T12:37:30Z</time>
      </trkpt>
      <trkpt lat="45.35023" lon="4.70224">
        <ele>315.93</ele>
        <time>2020-05-21T12:37:31Z</time>
      </trkpt>
      <trkpt lat="45.3502" lon="4.7024">
        <ele>314.97</ele>
        <time>2020-05-21T12:37:32Z</time>
      </trkpt>
      <trkpt lat="45.3502" lon="4.70255">
        <ele>314.49</ele>
        <time>2020-05-21T12:37:33Z</time>
      </trkpt>
      <trkpt lat="45.35021" lon="4.70268">
        <ele>314.01</ele>
        <time>2020-05-21T12:37:34Z</time>
      </trkpt>
      <trkpt lat="45.35023" lon="4.70278">
        <ele>314.01</ele>
        <time>2020-05-21T12:37:35Z</time>
      </trkpt>
      <trkpt lat="45.35025" lon="4.70287">
        <ele>314.01</ele>
        <time>2020-05-21T12:37:36Z</time>
      </trkpt>
      <trkpt lat="45.35027" lon="4.70295">
        <ele>314.01</ele>
        <time>2020-05-21T12:37:37Z</time>
      </trkpt>
      <trkpt lat="45.35028" lon="4.70303">
        <ele>313.53</ele>
        <time>2020-05-21T12:37:38Z</time>
      </trkpt>
      <trkpt lat="45.35028" lon="4.70309">
        <ele>313.05</ele>
        <time>2020-05-21T12:37:39Z</time>
      </trkpt>
      <trkpt lat="45.35025" lon="4.70312">
        <ele>313.05</ele>
        <time>2020-05-21T12:37:40Z</time>
      </trkpt>
      <trkpt lat="45.35023" lon="4.70313">
        <ele>312.09</ele>
        <time>2020-05-21T12:37:41Z</time>
      </trkpt>
      <trkpt lat="45.35019" lon="4.70312">
        <ele>311.6</ele>
        <time>2020-05-21T12:37:42Z</time>
      </trkpt>
      <trkpt lat="45.35016" lon="4.70309">
        <ele>311.12</ele>
        <time>2020-05-21T12:37:43Z</time>
      </trkpt>
      <trkpt lat="45.35013" lon="4.70305">
        <ele>311.12</ele>
        <time>2020-05-21T12:37:44Z</time>
      </trkpt>
      <trkpt lat="45.3501" lon="4.70301">
        <ele>311.12</ele>
        <time>2020-05-21T12:37:45Z</time>
      </trkpt>
      <trkpt lat="45.34994" lon="4.7028">
        <ele>308.24</ele>
        <time>2020-05-21T12:37:49Z</time>
      </trkpt>
      <trkpt lat="45.3499" lon="4.7028">
        <ele>307.76</ele>
        <time>2020-05-21T12:37:50Z</time>
      </trkpt>
      <trkpt lat="45.34987" lon="4.70284">
        <ele>307.28</ele>
        <time>2020-05-21T12:37:51Z</time>
      </trkpt>
      <trkpt lat="45.34987" lon="4.70291">
        <ele>306.8</ele>
        <time>2020-05-21T12:37:52Z</time>
      </trkpt>
      <trkpt lat="45.34987" lon="4.70298">
        <ele>305.84</ele>
        <time>2020-05-21T12:37:53Z</time>
      </trkpt>
      <trkpt lat="45.34989" lon="4.70307">
        <ele>305.36</ele>
        <time>2020-05-21T12:37:54Z</time>
      </trkpt>
      <trkpt lat="45.34991" lon="4.70316">
        <ele>303.91</ele>
        <time>2020-05-21T12:37:55Z</time>
      </trkpt>
      <trkpt lat="45.34992" lon="4.70327">
        <ele>302.47</ele>
        <time>2020-05-21T12:37:56Z</time>
      </trkpt>
      <trkpt lat="45.34991" lon="4.70338">
        <ele>301.99</ele>
        <time>2020-05-21T12:37:57Z</time>
      </trkpt>
      <trkpt lat="45.34988" lon="4.70349">
        <ele>301.51</ele>
        <time>2020-05-21T12:37:58Z</time>
      </trkpt>
      <trkpt lat="45.34984" lon="4.70381">
        <ele>301.51</ele>
        <time>2020-05-21T12:38:01Z</time>
      </trkpt>
      <trkpt lat="45.34984" lon="4.70391">
        <ele>301.51</ele>
        <time>2020-05-21T12:38:02Z</time>
      </trkpt>
      <trkpt lat="45.34986" lon="4.70432">
        <ele>305.36</ele>
        <time>2020-05-21T12:38:09Z</time>
      </trkpt>
      <trkpt lat="45.34988" lon="4.70459">
        <ele>308.24</ele>
        <time>2020-05-21T12:38:17Z</time>
      </trkpt>
      <trkpt lat="45.34987" lon="4.70476">
        <ele>310.16</ele>
        <time>2020-05-21T12:38:23Z</time>
      </trkpt>
      <trkpt lat="45.34986" lon="4.70477">
        <ele>310.64</ele>
        <time>2020-05-21T12:38:24Z</time>
      </trkpt>
      <trkpt lat="45.34984" lon="4.70478">
        <ele>310.64</ele>
        <time>2020-05-21T12:38:25Z</time>
      </trkpt>
      <trkpt lat="45.34983" lon="4.70479">
        <ele>311.12</ele>
        <time>2020-05-21T12:38:26Z</time>
      </trkpt>
      <trkpt lat="45.34981" lon="4.70478">
        <ele>311.6</ele>
        <time>2020-05-21T12:38:27Z</time>
      </trkpt>
      <trkpt lat="45.3498" lon="4.70477">
        <ele>312.09</ele>
        <time>2020-05-21T12:38:28Z</time>
      </trkpt>
      <trkpt lat="45.34979" lon="4.70476">
        <ele>312.09</ele>
        <time>2020-05-21T12:38:29Z</time>
      </trkpt>
      <trkpt lat="45.34977" lon="4.70474">
        <ele>312.57</ele>
        <time>2020-05-21T12:38:30Z</time>
      </trkpt>
      <trkpt lat="45.34976" lon="4.70472">
        <ele>313.05</ele>
        <time>2020-05-21T12:38:31Z</time>
      </trkpt>
      <trkpt lat="45.34975" lon="4.7047">
        <ele>313.05</ele>
        <time>2020-05-21T12:38:32Z</time>
      </trkpt>
      <trkpt lat="45.34974" lon="4.70468">
        <ele>313.53</ele>
        <time>2020-05-21T12:38:33Z</time>
      </trkpt>
      <trkpt lat="45.34973" lon="4.70466">
        <ele>313.53</ele>
        <time>2020-05-21T12:38:34Z</time>
      </trkpt>
      <trkpt lat="45.34971" lon="4.70463">
        <ele>313.53</ele>
        <time>2020-05-21T12:38:35Z</time>
      </trkpt>
      <trkpt lat="45.3497" lon="4.70461">
        <ele>314.01</ele>
        <time>2020-05-21T12:38:36Z</time>
      </trkpt>
      <trkpt lat="45.34969" lon="4.70458">
        <ele>314.49</ele>
        <time>2020-05-21T12:38:37Z</time>
      </trkpt>
      <trkpt lat="45.34967" lon="4.70456">
        <ele>314.97</ele>
        <time>2020-05-21T12:38:38Z</time>
      </trkpt>
      <trkpt lat="45.34956" lon="4.7045">
        <ele>316.41</ele>
        <time>2020-05-21T12:38:44Z</time>
      </trkpt>
      <trkpt lat="45.34954" lon="4.70453">
        <ele>316.89</ele>
        <time>2020-05-21T12:38:45Z</time>
      </trkpt>
      <trkpt lat="45.34954" lon="4.70456">
        <ele>316.89</ele>
        <time>2020-05-21T12:38:46Z</time>
      </trkpt>
      <trkpt lat="45.34954" lon="4.70459">
        <ele>317.37</ele>
        <time>2020-05-21T12:38:47Z</time>
      </trkpt>
      <trkpt lat="45.34955" lon="4.70461">
        <ele>317.37</ele>
        <time>2020-05-21T12:38:48Z</time>
      </trkpt>
      <trkpt lat="45.34955" lon="4.70464">
        <ele>317.85</ele>
        <time>2020-05-21T12:38:49Z</time>
      </trkpt>
      <trkpt lat="45.34956" lon="4.70467">
        <ele>317.85</ele>
        <time>2020-05-21T12:38:50Z</time>
      </trkpt>
      <trkpt lat="45.34957" lon="4.70469">
        <ele>318.33</ele>
        <time>2020-05-21T12:38:51Z</time>
      </trkpt>
      <trkpt lat="45.34958" lon="4.70471">
        <ele>318.81</ele>
        <time>2020-05-21T12:38:52Z</time>
      </trkpt>
      <trkpt lat="45.3496" lon="4.70474">
        <ele>318.81</ele>
        <time>2020-05-21T12:38:53Z</time>
      </trkpt>
      <trkpt lat="45.34967" lon="4.70508">
        <ele>321.7</ele>
        <time>2020-05-21T12:39:06Z</time>
      </trkpt>
      <trkpt lat="45.3497" lon="4.70538">
        <ele>325.06</ele>
        <time>2020-05-21T12:39:18Z</time>
      </trkpt>
      <trkpt lat="45.34969" lon="4.7054">
        <ele>325.06</ele>
        <time>2020-05-21T12:39:19Z</time>
      </trkpt>
      <trkpt lat="45.34968" lon="4.70542">
        <ele>325.54</ele>
        <time>2020-05-21T12:39:20Z</time>
      </trkpt>
      <trkpt lat="45.34967" lon="4.70542">
        <ele>325.54</ele>
        <time>2020-05-21T12:39:21Z</time>
      </trkpt>
      <trkpt lat="45.34965" lon="4.70541">
        <ele>326.02</ele>
        <time>2020-05-21T12:39:22Z</time>
      </trkpt>
      <trkpt lat="45.34964" lon="4.70539">
        <ele>326.5</ele>
        <time>2020-05-21T12:39:23Z</time>
      </trkpt>
      <trkpt lat="45.34964" lon="4.70537">
        <ele>326.5</ele>
        <time>2020-05-21T12:39:24Z</time>
      </trkpt>
      <trkpt lat="45.34963" lon="4.70534">
        <ele>326.5</ele>
        <time>2020-05-21T12:39:25Z</time>
      </trkpt>
      <trkpt lat="45.34944" lon="4.70508">
        <ele>327.95</ele>
        <time>2020-05-21T12:39:38Z</time>
      </trkpt>
      <trkpt lat="45.34922" lon="4.70527">
        <ele>330.83</ele>
        <time>2020-05-21T12:39:51Z</time>
      </trkpt>
      <trkpt lat="45.34921" lon="4.70529">
        <ele>331.31</ele>
        <time>2020-05-21T12:39:52Z</time>
      </trkpt>
      <trkpt lat="45.3492" lon="4.70531">
        <ele>331.31</ele>
        <time>2020-05-21T12:39:53Z</time>
      </trkpt>
      <trkpt lat="45.34896" lon="4.70554">
        <ele>334.2</ele>
        <time>2020-05-21T12:40:07Z</time>
      </trkpt>
      <trkpt lat="45.34869" lon="4.70571">
        <ele>337.08</ele>
        <time>2020-05-21T12:40:21Z</time>
      </trkpt>
      <trkpt lat="45.3483" lon="4.70563">
        <ele>339.48</ele>
        <time>2020-05-21T12:40:35Z</time>
      </trkpt>
      <trkpt lat="45.34796" lon="4.70549">
        <ele>340.92</ele>
        <time>2020-05-21T12:40:48Z</time>
      </trkpt>
      <trkpt lat="45.34769" lon="4.70542">
        <ele>343.81</ele>
        <time>2020-05-21T12:41:01Z</time>
      </trkpt>
      <trkpt lat="45.34742" lon="4.7053">
        <ele>345.73</ele>
        <time>2020-05-21T12:41:12Z</time>
      </trkpt>
      <trkpt lat="45.34703" lon="4.70513">
        <ele>347.65</ele>
        <time>2020-05-21T12:41:26Z</time>
      </trkpt>
      <trkpt lat="45.34674" lon="4.70513">
        <ele>351.02</ele>
        <time>2020-05-21T12:41:37Z</time>
      </trkpt>
      <trkpt lat="45.3467" lon="4.70513">
        <ele>351.5</ele>
        <time>2020-05-21T12:41:39Z</time>
      </trkpt>
      <trkpt lat="45.34667" lon="4.70514">
        <ele>351.98</ele>
        <time>2020-05-21T12:41:40Z</time>
      </trkpt>
      <trkpt lat="45.34665" lon="4.70515">
        <ele>352.46</ele>
        <time>2020-05-21T12:41:41Z</time>
      </trkpt>
      <trkpt lat="45.34663" lon="4.70514">
        <ele>352.46</ele>
        <time>2020-05-21T12:41:42Z</time>
      </trkpt>
      <trkpt lat="45.34661" lon="4.70513">
        <ele>352.94</ele>
        <time>2020-05-21T12:41:43Z</time>
      </trkpt>
      <trkpt lat="45.34653" lon="4.70499">
        <ele>351.98</ele>
        <time>2020-05-21T12:41:47Z</time>
      </trkpt>
      <trkpt lat="45.34651" lon="4.70493">
        <ele>351.98</ele>
        <time>2020-05-21T12:41:48Z</time>
      </trkpt>
      <trkpt lat="45.3465" lon="4.70486">
        <ele>351.5</ele>
        <time>2020-05-21T12:41:49Z</time>
      </trkpt>
      <trkpt lat="45.34644" lon="4.7045">
        <ele>350.54</ele>
        <time>2020-05-21T12:41:54Z</time>
      </trkpt>
      <trkpt lat="45.34608" lon="4.70341">
        <ele>351.5</ele>
        <time>2020-05-21T12:42:12Z</time>
      </trkpt>
      <trkpt lat="45.34606" lon="4.70334">
        <ele>351.5</ele>
        <time>2020-05-21T12:42:13Z</time>
      </trkpt>
      <trkpt lat="45.34595" lon="4.70289">
        <ele>350.06</ele>
        <time>2020-05-21T12:42:19Z</time>
      </trkpt>
      <trkpt lat="45.34592" lon="4.70282">
        <ele>350.06</ele>
        <time>2020-05-21T12:42:20Z</time>
      </trkpt>
      <trkpt lat="45.34589" lon="4.70276">
        <ele>350.06</ele>
        <time>2020-05-21T12:42:21Z</time>
      </trkpt>
      <trkpt lat="45.34585" lon="4.7027">
        <ele>350.06</ele>
        <time>2020-05-21T12:42:22Z</time>
      </trkpt>
      <trkpt lat="45.34581" lon="4.70265">
        <ele>350.06</ele>
        <time>2020-05-21T12:42:23Z</time>
      </trkpt>
      <trkpt lat="45.34577" lon="4.7026">
        <ele>350.06</ele>
        <time>2020-05-21T12:42:24Z</time>
      </trkpt>
      <trkpt lat="45.34573" lon="4.70256">
        <ele>350.06</ele>
        <time>2020-05-21T12:42:25Z</time>
      </trkpt>
      <trkpt lat="45.34569" lon="4.7025">
        <ele>350.54</ele>
        <time>2020-05-21T12:42:26Z</time>
      </trkpt>
      <trkpt lat="45.34567" lon="4.70245">
        <ele>350.54</ele>
        <time>2020-05-21T12:42:27Z</time>
      </trkpt>
      <trkpt lat="45.34566" lon="4.70238">
        <ele>350.54</ele>
        <time>2020-05-21T12:42:28Z</time>
      </trkpt>
      <trkpt lat="45.34566" lon="4.70231">
        <ele>350.54</ele>
        <time>2020-05-21T12:42:29Z</time>
      </trkpt>
      <trkpt lat="45.34565" lon="4.70225">
        <ele>350.54</ele>
        <time>2020-05-21T12:42:30Z</time>
      </trkpt>
      <trkpt lat="45.34565" lon="4.7022">
        <ele>351.02</ele>
        <time>2020-05-21T12:42:31Z</time>
      </trkpt>
      <trkpt lat="45.34563" lon="4.70214">
        <ele>351.98</ele>
        <time>2020-05-21T12:42:32Z</time>
      </trkpt>
      <trkpt lat="45.34562" lon="4.7021">
        <ele>351.98</ele>
        <time>2020-05-21T12:42:33Z</time>
      </trkpt>
      <trkpt lat="45.3456" lon="4.70205">
        <ele>351.98</ele>
        <time>2020-05-21T12:42:34Z</time>
      </trkpt>
      <trkpt lat="45.34558" lon="4.70201">
        <ele>352.46</ele>
        <time>2020-05-21T12:42:35Z</time>
      </trkpt>
      <trkpt lat="45.34557" lon="4.70197">
        <ele>352.94</ele>
        <time>2020-05-21T12:42:36Z</time>
      </trkpt>
      <trkpt lat="45.3455" lon="4.70189">
        <ele>353.9</ele>
        <time>2020-05-21T12:42:39Z</time>
      </trkpt>
      <trkpt lat="45.34523" lon="4.70196">
        <ele>357.27</ele>
        <time>2020-05-21T12:42:50Z</time>
      </trkpt>
      <trkpt lat="45.34502" lon="4.702">
        <ele>360.15</ele>
        <time>2020-05-21T12:43:01Z</time>
      </trkpt>
      <trkpt lat="45.34478" lon="4.70202">
        <ele>363.52</ele>
        <time>2020-05-21T12:43:13Z</time>
      </trkpt>
      <trkpt lat="45.34458" lon="4.70205">
        <ele>366.4</ele>
        <time>2020-05-21T12:43:24Z</time>
      </trkpt>
      <trkpt lat="45.34434" lon="4.70208">
        <ele>369.76</ele>
        <time>2020-05-21T12:43:37Z</time>
      </trkpt>
      <trkpt lat="45.34409" lon="4.70206">
        <ele>371.69</ele>
        <time>2020-05-21T12:43:50Z</time>
      </trkpt>
      <trkpt lat="45.34377" lon="4.70212">
        <ele>374.57</ele>
        <time>2020-05-21T12:44:06Z</time>
      </trkpt>
      <trkpt lat="45.3435" lon="4.70215">
        <ele>377.45</ele>
        <time>2020-05-21T12:44:20Z</time>
      </trkpt>
      <trkpt lat="45.34326" lon="4.70219">
        <ele>380.34</ele>
        <time>2020-05-21T12:44:33Z</time>
      </trkpt>
      <trkpt lat="45.34295" lon="4.70226">
        <ele>383.22</ele>
        <time>2020-05-21T12:44:49Z</time>
      </trkpt>
      <trkpt lat="45.34276" lon="4.70231">
        <ele>387.07</ele>
        <time>2020-05-21T12:44:59Z</time>
      </trkpt>
      <trkpt lat="45.34274" lon="4.70232">
        <ele>387.55</ele>
        <time>2020-05-21T12:45:00Z</time>
      </trkpt>
      <trkpt lat="45.34245" lon="4.70251">
        <ele>389.95</ele>
        <time>2020-05-21T12:45:15Z</time>
      </trkpt>
      <trkpt lat="45.34221" lon="4.70263">
        <ele>391.39</ele>
        <time>2020-05-21T12:45:28Z</time>
      </trkpt>
      <trkpt lat="45.34195" lon="4.70277">
        <ele>394.76</ele>
        <time>2020-05-21T12:45:43Z</time>
      </trkpt>
      <trkpt lat="45.34174" lon="4.70291">
        <ele>397.16</ele>
        <time>2020-05-21T12:45:56Z</time>
      </trkpt>
      <trkpt lat="45.34154" lon="4.70305">
        <ele>400.53</ele>
        <time>2020-05-21T12:46:09Z</time>
      </trkpt>
      <trkpt lat="45.34132" lon="4.7032">
        <ele>403.89</ele>
        <time>2020-05-21T12:46:24Z</time>
      </trkpt>
      <trkpt lat="45.34119" lon="4.70326">
        <ele>405.81</ele>
        <time>2020-05-21T12:46:33Z</time>
      </trkpt>
      <trkpt lat="45.34117" lon="4.70327">
        <ele>406.29</ele>
        <time>2020-05-21T12:46:34Z</time>
      </trkpt>
      <trkpt lat="45.34101" lon="4.7034">
        <ele>409.18</ele>
        <time>2020-05-21T12:46:46Z</time>
      </trkpt>
      <trkpt lat="45.34101" lon="4.70342">
        <ele>409.18</ele>
        <time>2020-05-21T12:46:47Z</time>
      </trkpt>
      <trkpt lat="45.341" lon="4.70343">
        <ele>409.66</ele>
        <time>2020-05-21T12:46:48Z</time>
      </trkpt>
      <trkpt lat="45.341" lon="4.70345">
        <ele>410.14</ele>
        <time>2020-05-21T12:46:49Z</time>
      </trkpt>
      <trkpt lat="45.34099" lon="4.70347">
        <ele>410.14</ele>
        <time>2020-05-21T12:46:50Z</time>
      </trkpt>
      <trkpt lat="45.34099" lon="4.70348">
        <ele>410.14</ele>
        <time>2020-05-21T12:46:51Z</time>
      </trkpt>
      <trkpt lat="45.34098" lon="4.7035">
        <ele>410.62</ele>
        <time>2020-05-21T12:46:52Z</time>
      </trkpt>
      <trkpt lat="45.34098" lon="4.70352">
        <ele>411.1</ele>
        <time>2020-05-21T12:46:53Z</time>
      </trkpt>
      <trkpt lat="45.34097" lon="4.70353">
        <ele>411.58</ele>
        <time>2020-05-21T12:46:54Z</time>
      </trkpt>
      <trkpt lat="45.34093" lon="4.70368">
        <ele>413.5</ele>
        <time>2020-05-21T12:47:03Z</time>
      </trkpt>
      <trkpt lat="45.34092" lon="4.7037">
        <ele>413.98</ele>
        <time>2020-05-21T12:47:04Z</time>
      </trkpt>
      <trkpt lat="45.34079" lon="4.70398">
        <ele>417.83</ele>
        <time>2020-05-21T12:47:21Z</time>
      </trkpt>
      <trkpt lat="45.34079" lon="4.70399">
        <ele>417.83</ele>
        <time>2020-05-21T12:47:22Z</time>
      </trkpt>
      <trkpt lat="45.34078" lon="4.70403">
        <ele>418.79</ele>
        <time>2020-05-21T12:47:25Z</time>
      </trkpt>
      <trkpt lat="45.34077" lon="4.70403">
        <ele>419.27</ele>
        <time>2020-05-21T12:47:26Z</time>
      </trkpt>
      <trkpt lat="45.34076" lon="4.70405">
        <ele>419.27</ele>
        <time>2020-05-21T12:47:27Z</time>
      </trkpt>
      <trkpt lat="45.34075" lon="4.70406">
        <ele>419.27</ele>
        <time>2020-05-21T12:47:28Z</time>
      </trkpt>
      <trkpt lat="45.34074" lon="4.70407">
        <ele>419.27</ele>
        <time>2020-05-21T12:47:29Z</time>
      </trkpt>
      <trkpt lat="45.34073" lon="4.70408">
        <ele>419.75</ele>
        <time>2020-05-21T12:47:30Z</time>
      </trkpt>
      <trkpt lat="45.34072" lon="4.70409">
        <ele>419.75</ele>
        <time>2020-05-21T12:47:31Z</time>
      </trkpt>
      <trkpt lat="45.3407" lon="4.7041">
        <ele>420.23</ele>
        <time>2020-05-21T12:47:32Z</time>
      </trkpt>
      <trkpt lat="45.34069" lon="4.70411">
        <ele>420.23</ele>
        <time>2020-05-21T12:47:33Z</time>
      </trkpt>
      <trkpt lat="45.34068" lon="4.70412">
        <ele>420.71</ele>
        <time>2020-05-21T12:47:34Z</time>
      </trkpt>
      <trkpt lat="45.34066" lon="4.70412">
        <ele>420.71</ele>
        <time>2020-05-21T12:47:35Z</time>
      </trkpt>
      <trkpt lat="45.34065" lon="4.70412">
        <ele>421.19</ele>
        <time>2020-05-21T12:47:36Z</time>
      </trkpt>
      <trkpt lat="45.34064" lon="4.70413">
        <ele>421.19</ele>
        <time>2020-05-21T12:47:37Z</time>
      </trkpt>
      <trkpt lat="45.34063" lon="4.70413">
        <ele>421.19</ele>
        <time>2020-05-21T12:47:38Z</time>
      </trkpt>
      <trkpt lat="45.34061" lon="4.70414">
        <ele>421.68</ele>
        <time>2020-05-21T12:47:39Z</time>
      </trkpt>
      <trkpt lat="45.3406" lon="4.70415">
        <ele>421.68</ele>
        <time>2020-05-21T12:47:40Z</time>
      </trkpt>
      <trkpt lat="45.34059" lon="4.70416">
        <ele>421.68</ele>
        <time>2020-05-21T12:47:41Z</time>
      </trkpt>
      <trkpt lat="45.34058" lon="4.70417">
        <ele>422.16</ele>
        <time>2020-05-21T12:47:42Z</time>
      </trkpt>
      <trkpt lat="45.34036" lon="4.70426">
        <ele>425.04</ele>
        <time>2020-05-21T12:47:56Z</time>
      </trkpt>
      <trkpt lat="45.34014" lon="4.70431">
        <ele>427.44</ele>
        <time>2020-05-21T12:48:09Z</time>
      </trkpt>
      <trkpt lat="45.33995" lon="4.70433">
        <ele>430.33</ele>
        <time>2020-05-21T12:48:22Z</time>
      </trkpt>
      <trkpt lat="45.33979" lon="4.7043">
        <ele>433.69</ele>
        <time>2020-05-21T12:48:34Z</time>
      </trkpt>
      <trkpt lat="45.33957" lon="4.70418">
        <ele>437.06</ele>
        <time>2020-05-21T12:48:51Z</time>
      </trkpt>
      <trkpt lat="45.33941" lon="4.70411">
        <ele>439.94</ele>
        <time>2020-05-21T12:49:01Z</time>
      </trkpt>
      <trkpt lat="45.33924" lon="4.70415">
        <ele>442.34</ele>
        <time>2020-05-21T12:49:12Z</time>
      </trkpt>
      <trkpt lat="45.33923" lon="4.70416">
        <ele>442.34</ele>
        <time>2020-05-21T12:49:13Z</time>
      </trkpt>
      <trkpt lat="45.33922" lon="4.70417">
        <ele>442.82</ele>
        <time>2020-05-21T12:49:14Z</time>
      </trkpt>
      <trkpt lat="45.33921" lon="4.70418">
        <ele>442.82</ele>
        <time>2020-05-21T12:49:15Z</time>
      </trkpt>
      <trkpt lat="45.3392" lon="4.70419">
        <ele>442.82</ele>
        <time>2020-05-21T12:49:16Z</time>
      </trkpt>
      <trkpt lat="45.33919" lon="4.70421">
        <ele>443.31</ele>
        <time>2020-05-21T12:49:17Z</time>
      </trkpt>
      <trkpt lat="45.33917" lon="4.70423">
        <ele>443.79</ele>
        <time>2020-05-21T12:49:18Z</time>
      </trkpt>
      <trkpt lat="45.33916" lon="4.70424">
        <ele>444.27</ele>
        <time>2020-05-21T12:49:19Z</time>
      </trkpt>
      <trkpt lat="45.33915" lon="4.70425">
        <ele>444.75</ele>
        <time>2020-05-21T12:49:20Z</time>
      </trkpt>
      <trkpt lat="45.33914" lon="4.70427">
        <ele>444.27</ele>
        <time>2020-05-21T12:49:21Z</time>
      </trkpt>
      <trkpt lat="45.33913" lon="4.70428">
        <ele>444.75</ele>
        <time>2020-05-21T12:49:22Z</time>
      </trkpt>
      <trkpt lat="45.33895" lon="4.70445">
        <ele>448.11</ele>
        <time>2020-05-21T12:49:36Z</time>
      </trkpt>
      <trkpt lat="45.33874" lon="4.7046">
        <ele>451</ele>
        <time>2020-05-21T12:49:49Z</time>
      </trkpt>
      <trkpt lat="45.33838" lon="4.70465">
        <ele>452.92</ele>
        <time>2020-05-21T12:50:05Z</time>
      </trkpt>
      <trkpt lat="45.338" lon="4.70458">
        <ele>454.36</ele>
        <time>2020-05-21T12:50:20Z</time>
      </trkpt>
      <trkpt lat="45.33789" lon="4.70457">
        <ele>455.32</ele>
        <time>2020-05-21T12:50:34Z</time>
      </trkpt>
      <trkpt lat="45.33788" lon="4.70457">
        <ele>455.8</ele>
        <time>2020-05-21T12:51:00Z</time>
      </trkpt>
      <trkpt lat="45.33788" lon="4.70457">
        <ele>455.8</ele>
        <time>2020-05-21T12:51:24Z</time>
      </trkpt>
      <trkpt lat="45.33783" lon="4.70457">
        <ele>456.28</ele>
        <time>2020-05-21T12:51:49Z</time>
      </trkpt>
      <trkpt lat="45.33775" lon="4.70459">
        <ele>456.28</ele>
        <time>2020-05-21T12:51:53Z</time>
      </trkpt>
      <trkpt lat="45.33774" lon="4.70458">
        <ele>456.76</ele>
        <time>2020-05-21T12:51:54Z</time>
      </trkpt>
      <trkpt lat="45.33772" lon="4.70456">
        <ele>456.76</ele>
        <time>2020-05-21T12:51:55Z</time>
      </trkpt>
      <trkpt lat="45.3377" lon="4.70456">
        <ele>456.76</ele>
        <time>2020-05-21T12:51:56Z</time>
      </trkpt>
      <trkpt lat="45.33768" lon="4.70456">
        <ele>456.76</ele>
        <time>2020-05-21T12:51:57Z</time>
      </trkpt>
      <trkpt lat="45.33736" lon="4.70453">
        <ele>458.69</ele>
        <time>2020-05-21T12:52:11Z</time>
      </trkpt>
      <trkpt lat="45.33696" lon="4.7045">
        <ele>462.05</ele>
        <time>2020-05-21T12:52:29Z</time>
      </trkpt>
      <trkpt lat="45.33672" lon="4.70449">
        <ele>464.93</ele>
        <time>2020-05-21T12:52:41Z</time>
      </trkpt>
      <trkpt lat="45.33644" lon="4.70446">
        <ele>468.3</ele>
        <time>2020-05-21T12:52:54Z</time>
      </trkpt>
      <trkpt lat="45.33617" lon="4.70437">
        <ele>471.66</ele>
        <time>2020-05-21T12:53:09Z</time>
      </trkpt>
      <trkpt lat="45.33591" lon="4.70426">
        <ele>474.55</ele>
        <time>2020-05-21T12:53:23Z</time>
      </trkpt>
      <trkpt lat="45.33558" lon="4.70414">
        <ele>477.43</ele>
        <time>2020-05-21T12:53:38Z</time>
      </trkpt>
      <trkpt lat="45.33511" lon="4.70393">
        <ele>477.43</ele>
        <time>2020-05-21T12:53:54Z</time>
      </trkpt>
      <trkpt lat="45.33455" lon="4.7034">
        <ele>476.47</ele>
        <time>2020-05-21T12:54:09Z</time>
      </trkpt>
      <trkpt lat="45.33433" lon="4.70311">
        <ele>476.47</ele>
        <time>2020-05-21T12:54:15Z</time>
      </trkpt>
      <trkpt lat="45.33382" lon="4.7022">
        <ele>477.91</ele>
        <time>2020-05-21T12:54:32Z</time>
      </trkpt>
      <trkpt lat="45.33372" lon="4.70206">
        <ele>477.43</ele>
        <time>2020-05-21T12:54:35Z</time>
      </trkpt>
      <trkpt lat="45.33354" lon="4.70189">
        <ele>476.95</ele>
        <time>2020-05-21T12:54:39Z</time>
      </trkpt>
      <trkpt lat="45.33349" lon="4.70186">
        <ele>476.95</ele>
        <time>2020-05-21T12:54:40Z</time>
      </trkpt>
      <trkpt lat="45.33291" lon="4.70166">
        <ele>477.91</ele>
        <time>2020-05-21T12:54:52Z</time>
      </trkpt>
      <trkpt lat="45.33253" lon="4.70165">
        <ele>476.95</ele>
        <time>2020-05-21T12:54:59Z</time>
      </trkpt>
      <trkpt lat="45.33171" lon="4.70147">
        <ele>477.43</ele>
        <time>2020-05-21T12:55:14Z</time>
      </trkpt>
      <trkpt lat="45.33132" lon="4.70128">
        <ele>477.43</ele>
        <time>2020-05-21T12:55:22Z</time>
      </trkpt>
      <trkpt lat="45.33127" lon="4.70124">
        <ele>477.43</ele>
        <time>2020-05-21T12:55:23Z</time>
      </trkpt>
      <trkpt lat="45.33092" lon="4.70086">
        <ele>475.03</ele>
        <time>2020-05-21T12:55:30Z</time>
      </trkpt>
      <trkpt lat="45.33063" lon="4.70057">
        <ele>473.11</ele>
        <time>2020-05-21T12:55:35Z</time>
      </trkpt>
      <trkpt lat="45.33021" lon="4.70028">
        <ele>469.26</ele>
        <time>2020-05-21T12:55:41Z</time>
      </trkpt>
      <trkpt lat="45.32979" lon="4.70005">
        <ele>465.9</ele>
        <time>2020-05-21T12:55:46Z</time>
      </trkpt>
      <trkpt lat="45.3297" lon="4.70003">
        <ele>465.42</ele>
        <time>2020-05-21T12:55:47Z</time>
      </trkpt>
      <trkpt lat="45.3296" lon="4.70005">
        <ele>464.45</ele>
        <time>2020-05-21T12:55:48Z</time>
      </trkpt>
      <trkpt lat="45.32952" lon="4.70009">
        <ele>463.97</ele>
        <time>2020-05-21T12:55:49Z</time>
      </trkpt>
      <trkpt lat="45.32945" lon="4.70015">
        <ele>463.97</ele>
        <time>2020-05-21T12:55:50Z</time>
      </trkpt>
      <trkpt lat="45.32938" lon="4.70024">
        <ele>463.49</ele>
        <time>2020-05-21T12:55:51Z</time>
      </trkpt>
      <trkpt lat="45.32915" lon="4.70048">
        <ele>460.13</ele>
        <time>2020-05-21T12:55:54Z</time>
      </trkpt>
      <trkpt lat="45.32907" lon="4.70056">
        <ele>459.65</ele>
        <time>2020-05-21T12:55:55Z</time>
      </trkpt>
      <trkpt lat="45.32872" lon="4.70086">
        <ele>455.8</ele>
        <time>2020-05-21T12:55:59Z</time>
      </trkpt>
      <trkpt lat="45.32855" lon="4.70102">
        <ele>453.88</ele>
        <time>2020-05-21T12:56:01Z</time>
      </trkpt>
      <trkpt lat="45.32846" lon="4.70108">
        <ele>452.44</ele>
        <time>2020-05-21T12:56:02Z</time>
      </trkpt>
      <trkpt lat="45.32836" lon="4.70113">
        <ele>451.48</ele>
        <time>2020-05-21T12:56:03Z</time>
      </trkpt>
      <trkpt lat="45.32827" lon="4.70116">
        <ele>451.48</ele>
        <time>2020-05-21T12:56:04Z</time>
      </trkpt>
      <trkpt lat="45.32821" lon="4.7012">
        <ele>451.48</ele>
        <time>2020-05-21T12:56:05Z</time>
      </trkpt>
      <trkpt lat="45.32817" lon="4.70125">
        <ele>451.48</ele>
        <time>2020-05-21T12:56:06Z</time>
      </trkpt>
      <trkpt lat="45.32815" lon="4.70131">
        <ele>451.48</ele>
        <time>2020-05-21T12:56:07Z</time>
      </trkpt>
      <trkpt lat="45.32813" lon="4.70137">
        <ele>451</ele>
        <time>2020-05-21T12:56:08Z</time>
      </trkpt>
      <trkpt lat="45.32801" lon="4.70168">
        <ele>447.63</ele>
        <time>2020-05-21T12:56:15Z</time>
      </trkpt>
      <trkpt lat="45.32796" lon="4.70168">
        <ele>447.15</ele>
        <time>2020-05-21T12:56:16Z</time>
      </trkpt>
      <trkpt lat="45.32793" lon="4.70165">
        <ele>446.67</ele>
        <time>2020-05-21T12:56:17Z</time>
      </trkpt>
      <trkpt lat="45.32792" lon="4.70161">
        <ele>446.67</ele>
        <time>2020-05-21T12:56:18Z</time>
      </trkpt>
      <trkpt lat="45.32791" lon="4.70157">
        <ele>446.67</ele>
        <time>2020-05-21T12:56:19Z</time>
      </trkpt>
      <trkpt lat="45.32792" lon="4.70152">
        <ele>446.67</ele>
        <time>2020-05-21T12:56:20Z</time>
      </trkpt>
      <trkpt lat="45.32793" lon="4.70146">
        <ele>446.67</ele>
        <time>2020-05-21T12:56:21Z</time>
      </trkpt>
      <trkpt lat="45.32794" lon="4.7014">
        <ele>446.67</ele>
        <time>2020-05-21T12:56:22Z</time>
      </trkpt>
      <trkpt lat="45.32801" lon="4.70111">
        <ele>448.11</ele>
        <time>2020-05-21T12:56:29Z</time>
      </trkpt>
      <trkpt lat="45.328" lon="4.70109">
        <ele>448.11</ele>
        <time>2020-05-21T12:56:30Z</time>
      </trkpt>
      <trkpt lat="45.32799" lon="4.70105">
        <ele>447.63</ele>
        <time>2020-05-21T12:56:31Z</time>
      </trkpt>
      <trkpt lat="45.32798" lon="4.701">
        <ele>447.63</ele>
        <time>2020-05-21T12:56:32Z</time>
      </trkpt>
      <trkpt lat="45.32798" lon="4.70094">
        <ele>447.15</ele>
        <time>2020-05-21T12:56:33Z</time>
      </trkpt>
      <trkpt lat="45.32798" lon="4.70089">
        <ele>447.15</ele>
        <time>2020-05-21T12:56:34Z</time>
      </trkpt>
      <trkpt lat="45.32795" lon="4.70084">
        <ele>447.15</ele>
        <time>2020-05-21T12:56:35Z</time>
      </trkpt>
      <trkpt lat="45.32792" lon="4.70082">
        <ele>446.67</ele>
        <time>2020-05-21T12:56:36Z</time>
      </trkpt>
      <trkpt lat="45.32775" lon="4.70076">
        <ele>444.27</ele>
        <time>2020-05-21T12:56:39Z</time>
      </trkpt>
      <trkpt lat="45.3277" lon="4.70072">
        <ele>443.79</ele>
        <time>2020-05-21T12:56:40Z</time>
      </trkpt>
      <trkpt lat="45.32766" lon="4.70067">
        <ele>443.31</ele>
        <time>2020-05-21T12:56:41Z</time>
      </trkpt>
      <trkpt lat="45.32748" lon="4.70046">
        <ele>442.82</ele>
        <time>2020-05-21T12:56:45Z</time>
      </trkpt>
      <trkpt lat="45.32742" lon="4.70041">
        <ele>442.34</ele>
        <time>2020-05-21T12:56:47Z</time>
      </trkpt>
      <trkpt lat="45.32741" lon="4.70037">
        <ele>442.34</ele>
        <time>2020-05-21T12:56:48Z</time>
      </trkpt>
      <trkpt lat="45.32741" lon="4.70033">
        <ele>442.34</ele>
        <time>2020-05-21T12:56:49Z</time>
      </trkpt>
      <trkpt lat="45.32742" lon="4.70028">
        <ele>442.34</ele>
        <time>2020-05-21T12:56:50Z</time>
      </trkpt>
      <trkpt lat="45.32742" lon="4.70022">
        <ele>442.34</ele>
        <time>2020-05-21T12:56:51Z</time>
      </trkpt>
      <trkpt lat="45.32746" lon="4.69999">
        <ele>441.86</ele>
        <time>2020-05-21T12:56:55Z</time>
      </trkpt>
      <trkpt lat="45.32746" lon="4.69994">
        <ele>441.86</ele>
        <time>2020-05-21T12:56:56Z</time>
      </trkpt>
      <trkpt lat="45.32746" lon="4.69988">
        <ele>442.34</ele>
        <time>2020-05-21T12:56:57Z</time>
      </trkpt>
      <trkpt lat="45.32744" lon="4.69982">
        <ele>441.86</ele>
        <time>2020-05-21T12:56:58Z</time>
      </trkpt>
      <trkpt lat="45.32741" lon="4.69978">
        <ele>442.34</ele>
        <time>2020-05-21T12:56:59Z</time>
      </trkpt>
      <trkpt lat="45.32737" lon="4.69974">
        <ele>442.34</ele>
        <time>2020-05-21T12:57:00Z</time>
      </trkpt>
      <trkpt lat="45.32733" lon="4.69971">
        <ele>441.86</ele>
        <time>2020-05-21T12:57:01Z</time>
      </trkpt>
      <trkpt lat="45.32728" lon="4.69968">
        <ele>441.86</ele>
        <time>2020-05-21T12:57:02Z</time>
      </trkpt>
      <trkpt lat="45.32719" lon="4.69962">
        <ele>441.86</ele>
        <time>2020-05-21T12:57:04Z</time>
      </trkpt>
      <trkpt lat="45.32659" lon="4.69898">
        <ele>442.82</ele>
        <time>2020-05-21T12:57:19Z</time>
      </trkpt>
      <trkpt lat="45.32616" lon="4.69849">
        <ele>445.71</ele>
        <time>2020-05-21T12:57:32Z</time>
      </trkpt>
      <trkpt lat="45.32573" lon="4.69784">
        <ele>448.11</ele>
        <time>2020-05-21T12:57:48Z</time>
      </trkpt>
      <trkpt lat="45.32528" lon="4.69734">
        <ele>450.52</ele>
        <time>2020-05-21T12:58:04Z</time>
      </trkpt>
      <trkpt lat="45.32505" lon="4.69669">
        <ele>452.92</ele>
        <time>2020-05-21T12:58:19Z</time>
      </trkpt>
      <trkpt lat="45.32468" lon="4.69632">
        <ele>456.28</ele>
        <time>2020-05-21T12:58:34Z</time>
      </trkpt>
      <trkpt lat="45.32443" lon="4.69641">
        <ele>455.8</ele>
        <time>2020-05-21T12:58:41Z</time>
      </trkpt>
      <trkpt lat="45.32403" lon="4.69657">
        <ele>456.28</ele>
        <time>2020-05-21T12:58:51Z</time>
      </trkpt>
      <trkpt lat="45.32398" lon="4.69657">
        <ele>456.28</ele>
        <time>2020-05-21T12:58:52Z</time>
      </trkpt>
      <trkpt lat="45.32353" lon="4.69639">
        <ele>458.69</ele>
        <time>2020-05-21T12:59:04Z</time>
      </trkpt>
      <trkpt lat="45.32349" lon="4.69639">
        <ele>458.69</ele>
        <time>2020-05-21T12:59:05Z</time>
      </trkpt>
      <trkpt lat="45.32323" lon="4.69642">
        <ele>459.17</ele>
        <time>2020-05-21T12:59:11Z</time>
      </trkpt>
      <trkpt lat="45.32307" lon="4.6964">
        <ele>460.13</ele>
        <time>2020-05-21T12:59:15Z</time>
      </trkpt>
      <trkpt lat="45.3228" lon="4.69635">
        <ele>460.61</ele>
        <time>2020-05-21T12:59:21Z</time>
      </trkpt>
      <trkpt lat="45.32261" lon="4.6963">
        <ele>460.61</ele>
        <time>2020-05-21T12:59:25Z</time>
      </trkpt>
      <trkpt lat="45.3224" lon="4.69615">
        <ele>461.09</ele>
        <time>2020-05-21T12:59:30Z</time>
      </trkpt>
      <trkpt lat="45.3223" lon="4.69605">
        <ele>461.57</ele>
        <time>2020-05-21T12:59:33Z</time>
      </trkpt>
      <trkpt lat="45.32226" lon="4.69602">
        <ele>461.57</ele>
        <time>2020-05-21T12:59:34Z</time>
      </trkpt>
      <trkpt lat="45.32172" lon="4.69568">
        <ele>463.49</ele>
        <time>2020-05-21T12:59:49Z</time>
      </trkpt>
      <trkpt lat="45.3213" lon="4.69539">
        <ele>466.86</ele>
        <time>2020-05-21T13:00:04Z</time>
      </trkpt>
      <trkpt lat="45.32086" lon="4.69513">
        <ele>469.74</ele>
        <time>2020-05-21T13:00:19Z</time>
      </trkpt>
      <trkpt lat="45.32044" lon="4.69492">
        <ele>471.66</ele>
        <time>2020-05-21T13:00:34Z</time>
      </trkpt>
      <trkpt lat="45.31999" lon="4.69449">
        <ele>475.03</ele>
        <time>2020-05-21T13:00:51Z</time>
      </trkpt>
      <trkpt lat="45.31956" lon="4.6942">
        <ele>475.03</ele>
        <time>2020-05-21T13:01:03Z</time>
      </trkpt>
      <trkpt lat="45.31907" lon="4.69389">
        <ele>476.47</ele>
        <time>2020-05-21T13:01:18Z</time>
      </trkpt>
      <trkpt lat="45.31876" lon="4.69349">
        <ele>478.87</ele>
        <time>2020-05-21T13:01:31Z</time>
      </trkpt>
      <trkpt lat="45.31846" lon="4.69308">
        <ele>482.24</ele>
        <time>2020-05-21T13:01:45Z</time>
      </trkpt>
      <trkpt lat="45.31822" lon="4.69274">
        <ele>483.68</ele>
        <time>2020-05-21T13:01:56Z</time>
      </trkpt>
      <trkpt lat="45.31778" lon="4.69224">
        <ele>485.12</ele>
        <time>2020-05-21T13:02:12Z</time>
      </trkpt>
      <trkpt lat="45.31762" lon="4.6919">
        <ele>484.64</ele>
        <time>2020-05-21T13:02:19Z</time>
      </trkpt>
      <trkpt lat="45.31747" lon="4.69167">
        <ele>484.64</ele>
        <time>2020-05-21T13:02:24Z</time>
      </trkpt>
      <trkpt lat="45.31709" lon="4.69125">
        <ele>484.64</ele>
        <time>2020-05-21T13:02:35Z</time>
      </trkpt>
      <trkpt lat="45.31705" lon="4.6912">
        <ele>484.64</ele>
        <time>2020-05-21T13:02:36Z</time>
      </trkpt>
      <trkpt lat="45.317" lon="4.6911">
        <ele>484.64</ele>
        <time>2020-05-21T13:02:38Z</time>
      </trkpt>
      <trkpt lat="45.31696" lon="4.69099">
        <ele>484.64</ele>
        <time>2020-05-21T13:02:40Z</time>
      </trkpt>
      <trkpt lat="45.31694" lon="4.69093">
        <ele>485.12</ele>
        <time>2020-05-21T13:02:41Z</time>
      </trkpt>
      <trkpt lat="45.31668" lon="4.69042">
        <ele>485.6</ele>
        <time>2020-05-21T13:02:53Z</time>
      </trkpt>
      <trkpt lat="45.31651" lon="4.69071">
        <ele>487.53</ele>
        <time>2020-05-21T13:03:02Z</time>
      </trkpt>
      <trkpt lat="45.31631" lon="4.69091">
        <ele>490.41</ele>
        <time>2020-05-21T13:03:14Z</time>
      </trkpt>
      <trkpt lat="45.3161" lon="4.69098">
        <ele>492.33</ele>
        <time>2020-05-21T13:03:24Z</time>
      </trkpt>
      <trkpt lat="45.31585" lon="4.69091">
        <ele>494.74</ele>
        <time>2020-05-21T13:03:36Z</time>
      </trkpt>
      <trkpt lat="45.31554" lon="4.69072">
        <ele>496.18</ele>
        <time>2020-05-21T13:03:49Z</time>
      </trkpt>
      <trkpt lat="45.31522" lon="4.69041">
        <ele>499.54</ele>
        <time>2020-05-21T13:04:03Z</time>
      </trkpt>
      <trkpt lat="45.31498" lon="4.68996">
        <ele>501.95</ele>
        <time>2020-05-21T13:04:17Z</time>
      </trkpt>
      <trkpt lat="45.31478" lon="4.68932">
        <ele>503.87</ele>
        <time>2020-05-21T13:04:33Z</time>
      </trkpt>
      <trkpt lat="45.31468" lon="4.68868">
        <ele>506.27</ele>
        <time>2020-05-21T13:04:48Z</time>
      </trkpt>
      <trkpt lat="45.31466" lon="4.68864">
        <ele>506.27</ele>
        <time>2020-05-21T13:04:49Z</time>
      </trkpt>
      <trkpt lat="45.31463" lon="4.68861">
        <ele>506.27</ele>
        <time>2020-05-21T13:04:50Z</time>
      </trkpt>
      <trkpt lat="45.3146" lon="4.68859">
        <ele>506.27</ele>
        <time>2020-05-21T13:04:51Z</time>
      </trkpt>
      <trkpt lat="45.31457" lon="4.68858">
        <ele>506.27</ele>
        <time>2020-05-21T13:04:52Z</time>
      </trkpt>
      <trkpt lat="45.31453" lon="4.68857">
        <ele>506.27</ele>
        <time>2020-05-21T13:04:53Z</time>
      </trkpt>
      <trkpt lat="45.3145" lon="4.68855">
        <ele>506.27</ele>
        <time>2020-05-21T13:04:54Z</time>
      </trkpt>
      <trkpt lat="45.31446" lon="4.68854">
        <ele>506.27</ele>
        <time>2020-05-21T13:04:55Z</time>
      </trkpt>
      <trkpt lat="45.31415" lon="4.68828">
        <ele>508.19</ele>
        <time>2020-05-21T13:05:08Z</time>
      </trkpt>
      <trkpt lat="45.31399" lon="4.68808">
        <ele>511.08</ele>
        <time>2020-05-21T13:05:20Z</time>
      </trkpt>
      <trkpt lat="45.31397" lon="4.68806">
        <ele>511.56</ele>
        <time>2020-05-21T13:05:22Z</time>
      </trkpt>
      <trkpt lat="45.31396" lon="4.68806">
        <ele>512.04</ele>
        <time>2020-05-21T13:05:23Z</time>
      </trkpt>
      <trkpt lat="45.31394" lon="4.68805">
        <ele>512.04</ele>
        <time>2020-05-21T13:05:24Z</time>
      </trkpt>
      <trkpt lat="45.31393" lon="4.68804">
        <ele>512.52</ele>
        <time>2020-05-21T13:05:25Z</time>
      </trkpt>
      <trkpt lat="45.31391" lon="4.68803">
        <ele>513</ele>
        <time>2020-05-21T13:05:26Z</time>
      </trkpt>
      <trkpt lat="45.31371" lon="4.68791">
        <ele>515.88</ele>
        <time>2020-05-21T13:05:38Z</time>
      </trkpt>
      <trkpt lat="45.31365" lon="4.68782">
        <ele>517.33</ele>
        <time>2020-05-21T13:05:44Z</time>
      </trkpt>
      <trkpt lat="45.31364" lon="4.68779">
        <ele>517.81</ele>
        <time>2020-05-21T13:05:45Z</time>
      </trkpt>
      <trkpt lat="45.31363" lon="4.68777">
        <ele>517.81</ele>
        <time>2020-05-21T13:05:46Z</time>
      </trkpt>
      <trkpt lat="45.31361" lon="4.68776">
        <ele>518.29</ele>
        <time>2020-05-21T13:05:47Z</time>
      </trkpt>
      <trkpt lat="45.3136" lon="4.68774">
        <ele>518.77</ele>
        <time>2020-05-21T13:05:48Z</time>
      </trkpt>
      <trkpt lat="45.31359" lon="4.68773">
        <ele>518.77</ele>
        <time>2020-05-21T13:05:49Z</time>
      </trkpt>
      <trkpt lat="45.31358" lon="4.68771">
        <ele>519.25</ele>
        <time>2020-05-21T13:05:50Z</time>
      </trkpt>
      <trkpt lat="45.31356" lon="4.68769">
        <ele>519.25</ele>
        <time>2020-05-21T13:05:51Z</time>
      </trkpt>
      <trkpt lat="45.31355" lon="4.68768">
        <ele>519.73</ele>
        <time>2020-05-21T13:05:52Z</time>
      </trkpt>
      <trkpt lat="45.3134" lon="4.68745">
        <ele>523.09</ele>
        <time>2020-05-21T13:06:05Z</time>
      </trkpt>
      <trkpt lat="45.31329" lon="4.68714">
        <ele>525.02</ele>
        <time>2020-05-21T13:06:18Z</time>
      </trkpt>
      <trkpt lat="45.3132" lon="4.68686">
        <ele>527.42</ele>
        <time>2020-05-21T13:06:31Z</time>
      </trkpt>
      <trkpt lat="45.31313" lon="4.68657">
        <ele>530.3</ele>
        <time>2020-05-21T13:06:44Z</time>
      </trkpt>
      <trkpt lat="45.31312" lon="4.68655">
        <ele>530.3</ele>
        <time>2020-05-21T13:06:45Z</time>
      </trkpt>
      <trkpt lat="45.31307" lon="4.68627">
        <ele>533.19</ele>
        <time>2020-05-21T13:06:56Z</time>
      </trkpt>
      <trkpt lat="45.313" lon="4.68594">
        <ele>535.11</ele>
        <time>2020-05-21T13:07:08Z</time>
      </trkpt>
      <trkpt lat="45.31289" lon="4.68553">
        <ele>537.03</ele>
        <time>2020-05-21T13:07:21Z</time>
      </trkpt>
      <trkpt lat="45.3127" lon="4.68519">
        <ele>537.51</ele>
        <time>2020-05-21T13:07:32Z</time>
      </trkpt>
      <trkpt lat="45.31256" lon="4.68482">
        <ele>538.48</ele>
        <time>2020-05-21T13:07:41Z</time>
      </trkpt>
      <trkpt lat="45.31247" lon="4.68436">
        <ele>540.88</ele>
        <time>2020-05-21T13:07:53Z</time>
      </trkpt>
      <trkpt lat="45.31247" lon="4.6839">
        <ele>541.84</ele>
        <time>2020-05-21T13:08:04Z</time>
      </trkpt>
      <trkpt lat="45.31238" lon="4.68366">
        <ele>541.84</ele>
        <time>2020-05-21T13:08:13Z</time>
      </trkpt>
      <trkpt lat="45.31222" lon="4.68362">
        <ele>544.72</ele>
        <time>2020-05-21T13:08:23Z</time>
      </trkpt>
      <trkpt lat="45.3121" lon="4.68365">
        <ele>547.13</ele>
        <time>2020-05-21T13:08:31Z</time>
      </trkpt>
      <trkpt lat="45.31209" lon="4.68366">
        <ele>547.13</ele>
        <time>2020-05-21T13:08:32Z</time>
      </trkpt>
      <trkpt lat="45.31208" lon="4.68366">
        <ele>547.13</ele>
        <time>2020-05-21T13:08:33Z</time>
      </trkpt>
      <trkpt lat="45.31193" lon="4.68371">
        <ele>549.05</ele>
        <time>2020-05-21T13:08:43Z</time>
      </trkpt>
      <trkpt lat="45.31187" lon="4.68371">
        <ele>549.53</ele>
        <time>2020-05-21T13:08:46Z</time>
      </trkpt>
      <trkpt lat="45.31185" lon="4.68372">
        <ele>550.01</ele>
        <time>2020-05-21T13:08:47Z</time>
      </trkpt>
      <trkpt lat="45.31159" lon="4.68376">
        <ele>552.41</ele>
        <time>2020-05-21T13:09:00Z</time>
      </trkpt>
      <trkpt lat="45.31153" lon="4.68376">
        <ele>552.9</ele>
        <time>2020-05-21T13:09:02Z</time>
      </trkpt>
      <trkpt lat="45.31151" lon="4.68376">
        <ele>552.9</ele>
        <time>2020-05-21T13:09:03Z</time>
      </trkpt>
      <trkpt lat="45.31124" lon="4.68371">
        <ele>554.82</ele>
        <time>2020-05-21T13:09:16Z</time>
      </trkpt>
      <trkpt lat="45.31106" lon="4.68358">
        <ele>558.18</ele>
        <time>2020-05-21T13:09:27Z</time>
      </trkpt>
      <trkpt lat="45.31105" lon="4.68357">
        <ele>558.18</ele>
        <time>2020-05-21T13:09:28Z</time>
      </trkpt>
      <trkpt lat="45.31098" lon="4.68347">
        <ele>560.11</ele>
        <time>2020-05-21T13:09:34Z</time>
      </trkpt>
      <trkpt lat="45.31097" lon="4.68346">
        <ele>560.11</ele>
        <time>2020-05-21T13:09:35Z</time>
      </trkpt>
      <trkpt lat="45.31096" lon="4.68344">
        <ele>560.11</ele>
        <time>2020-05-21T13:09:36Z</time>
      </trkpt>
      <trkpt lat="45.31092" lon="4.6834">
        <ele>560.59</ele>
        <time>2020-05-21T13:09:38Z</time>
      </trkpt>
      <trkpt lat="45.31088" lon="4.68335">
        <ele>561.55</ele>
        <time>2020-05-21T13:09:43Z</time>
      </trkpt>
      <trkpt lat="45.31086" lon="4.68333">
        <ele>562.03</ele>
        <time>2020-05-21T13:09:44Z</time>
      </trkpt>
      <trkpt lat="45.31067" lon="4.6831">
        <ele>563.95</ele>
        <time>2020-05-21T13:09:57Z</time>
      </trkpt>
      <trkpt lat="45.3105" lon="4.6829">
        <ele>566.35</ele>
        <time>2020-05-21T13:10:11Z</time>
      </trkpt>
      <trkpt lat="45.31031" lon="4.68264">
        <ele>569.72</ele>
        <time>2020-05-21T13:10:24Z</time>
      </trkpt>
      <trkpt lat="45.31009" lon="4.6823">
        <ele>571.64</ele>
        <time>2020-05-21T13:10:39Z</time>
      </trkpt>
      <trkpt lat="45.30976" lon="4.68198">
        <ele>573.56</ele>
        <time>2020-05-21T13:10:55Z</time>
      </trkpt>
      <trkpt lat="45.30952" lon="4.6817">
        <ele>575.49</ele>
        <time>2020-05-21T13:11:08Z</time>
      </trkpt>
      <trkpt lat="45.30933" lon="4.68142">
        <ele>577.89</ele>
        <time>2020-05-21T13:11:22Z</time>
      </trkpt>
      <trkpt lat="45.30921" lon="4.68118">
        <ele>580.77</ele>
        <time>2020-05-21T13:11:35Z</time>
      </trkpt>
      <trkpt lat="45.30908" lon="4.68093">
        <ele>583.66</ele>
        <time>2020-05-21T13:11:50Z</time>
      </trkpt>
      <trkpt lat="45.30895" lon="4.68073">
        <ele>586.54</ele>
        <time>2020-05-21T13:12:03Z</time>
      </trkpt>
      <trkpt lat="45.30877" lon="4.6805">
        <ele>588.95</ele>
        <time>2020-05-21T13:12:18Z</time>
      </trkpt>
      <trkpt lat="45.30863" lon="4.68031">
        <ele>592.31</ele>
        <time>2020-05-21T13:12:32Z</time>
      </trkpt>
      <trkpt lat="45.30861" lon="4.68025">
        <ele>592.31</ele>
        <time>2020-05-21T13:12:35Z</time>
      </trkpt>
      <trkpt lat="45.30848" lon="4.68013">
        <ele>595.67</ele>
        <time>2020-05-21T13:12:47Z</time>
      </trkpt>
      <trkpt lat="45.30836" lon="4.67998">
        <ele>598.56</ele>
        <time>2020-05-21T13:12:59Z</time>
      </trkpt>
      <trkpt lat="45.30836" lon="4.67997">
        <ele>599.04</ele>
        <time>2020-05-21T13:13:00Z</time>
      </trkpt>
      <trkpt lat="45.30836" lon="4.67995">
        <ele>599.04</ele>
        <time>2020-05-21T13:13:01Z</time>
      </trkpt>
      <trkpt lat="45.30836" lon="4.67993">
        <ele>599.52</ele>
        <time>2020-05-21T13:13:02Z</time>
      </trkpt>
      <trkpt lat="45.30836" lon="4.67991">
        <ele>600</ele>
        <time>2020-05-21T13:13:03Z</time>
      </trkpt>
      <trkpt lat="45.30835" lon="4.67989">
        <ele>600</ele>
        <time>2020-05-21T13:13:04Z</time>
      </trkpt>
      <trkpt lat="45.30834" lon="4.67988">
        <ele>600</ele>
        <time>2020-05-21T13:13:05Z</time>
      </trkpt>
      <trkpt lat="45.30831" lon="4.67984">
        <ele>600</ele>
        <time>2020-05-21T13:13:08Z</time>
      </trkpt>
      <trkpt lat="45.30814" lon="4.67961">
        <ele>600.48</ele>
        <time>2020-05-21T13:13:23Z</time>
      </trkpt>
      <trkpt lat="45.30814" lon="4.67961">
        <ele>601.92</ele>
        <time>2020-05-21T13:13:46Z</time>
      </trkpt>
      <trkpt lat="45.30815" lon="4.67961">
        <ele>601.44</ele>
        <time>2020-05-21T13:14:17Z</time>
      </trkpt>
      <trkpt lat="45.30815" lon="4.67961">
        <ele>601.92</ele>
        <time>2020-05-21T13:14:46Z</time>
      </trkpt>
      <trkpt lat="45.30815" lon="4.67961">
        <ele>601.92</ele>
        <time>2020-05-21T13:15:11Z</time>
      </trkpt>
      <trkpt lat="45.30815" lon="4.67961">
        <ele>601.44</ele>
        <time>2020-05-21T13:15:37Z</time>
      </trkpt>
      <trkpt lat="45.30814" lon="4.67961">
        <ele>601.92</ele>
        <time>2020-05-21T13:16:07Z</time>
      </trkpt>
      <trkpt lat="45.30812" lon="4.67959">
        <ele>601.92</ele>
        <time>2020-05-21T13:16:23Z</time>
      </trkpt>
      <trkpt lat="45.30791" lon="4.67922">
        <ele>598.56</ele>
        <time>2020-05-21T13:16:31Z</time>
      </trkpt>
      <trkpt lat="45.30771" lon="4.67882">
        <ele>595.19</ele>
        <time>2020-05-21T13:16:36Z</time>
      </trkpt>
      <trkpt lat="45.30767" lon="4.67875">
        <ele>594.23</ele>
        <time>2020-05-21T13:16:37Z</time>
      </trkpt>
      <trkpt lat="45.30766" lon="4.67869">
        <ele>594.23</ele>
        <time>2020-05-21T13:16:38Z</time>
      </trkpt>
      <trkpt lat="45.30768" lon="4.67864">
        <ele>594.71</ele>
        <time>2020-05-21T13:16:39Z</time>
      </trkpt>
      <trkpt lat="45.30771" lon="4.67859">
        <ele>593.75</ele>
        <time>2020-05-21T13:16:40Z</time>
      </trkpt>
      <trkpt lat="45.30773" lon="4.67853">
        <ele>593.75</ele>
        <time>2020-05-21T13:16:41Z</time>
      </trkpt>
      <trkpt lat="45.30804" lon="4.67797">
        <ele>591.83</ele>
        <time>2020-05-21T13:16:53Z</time>
      </trkpt>
      <trkpt lat="45.30807" lon="4.67793">
        <ele>591.35</ele>
        <time>2020-05-21T13:16:54Z</time>
      </trkpt>
      <trkpt lat="45.3081" lon="4.67788">
        <ele>590.87</ele>
        <time>2020-05-21T13:16:55Z</time>
      </trkpt>
      <trkpt lat="45.30812" lon="4.67782">
        <ele>591.35</ele>
        <time>2020-05-21T13:16:56Z</time>
      </trkpt>
      <trkpt lat="45.30814" lon="4.67776">
        <ele>591.35</ele>
        <time>2020-05-21T13:16:57Z</time>
      </trkpt>
      <trkpt lat="45.30815" lon="4.67769">
        <ele>590.87</ele>
        <time>2020-05-21T13:16:58Z</time>
      </trkpt>
      <trkpt lat="45.30815" lon="4.67762">
        <ele>590.87</ele>
        <time>2020-05-21T13:16:59Z</time>
      </trkpt>
      <trkpt lat="45.30815" lon="4.67755">
        <ele>590.39</ele>
        <time>2020-05-21T13:17:00Z</time>
      </trkpt>
      <trkpt lat="45.30815" lon="4.67748">
        <ele>589.91</ele>
        <time>2020-05-21T13:17:01Z</time>
      </trkpt>
      <trkpt lat="45.30816" lon="4.6774">
        <ele>589.43</ele>
        <time>2020-05-21T13:17:02Z</time>
      </trkpt>
      <trkpt lat="45.30817" lon="4.67731">
        <ele>588.95</ele>
        <time>2020-05-21T13:17:03Z</time>
      </trkpt>
      <trkpt lat="45.30817" lon="4.67722">
        <ele>587.98</ele>
        <time>2020-05-21T13:17:04Z</time>
      </trkpt>
      <trkpt lat="45.30816" lon="4.67714">
        <ele>587.5</ele>
        <time>2020-05-21T13:17:05Z</time>
      </trkpt>
      <trkpt lat="45.30813" lon="4.67707">
        <ele>587.5</ele>
        <time>2020-05-21T13:17:06Z</time>
      </trkpt>
      <trkpt lat="45.30809" lon="4.67703">
        <ele>587.5</ele>
        <time>2020-05-21T13:17:07Z</time>
      </trkpt>
      <trkpt lat="45.30804" lon="4.677">
        <ele>587.5</ele>
        <time>2020-05-21T13:17:08Z</time>
      </trkpt>
      <trkpt lat="45.30798" lon="4.67697">
        <ele>587.02</ele>
        <time>2020-05-21T13:17:09Z</time>
      </trkpt>
      <trkpt lat="45.30778" lon="4.67682">
        <ele>586.06</ele>
        <time>2020-05-21T13:17:13Z</time>
      </trkpt>
      <trkpt lat="45.30774" lon="4.67677">
        <ele>585.58</ele>
        <time>2020-05-21T13:17:14Z</time>
      </trkpt>
      <trkpt lat="45.30765" lon="4.67664">
        <ele>585.1</ele>
        <time>2020-05-21T13:17:16Z</time>
      </trkpt>
      <trkpt lat="45.30761" lon="4.67657">
        <ele>585.1</ele>
        <time>2020-05-21T13:17:17Z</time>
      </trkpt>
      <trkpt lat="45.30758" lon="4.6765">
        <ele>584.62</ele>
        <time>2020-05-21T13:17:18Z</time>
      </trkpt>
      <trkpt lat="45.30747" lon="4.67622">
        <ele>584.14</ele>
        <time>2020-05-21T13:17:22Z</time>
      </trkpt>
      <trkpt lat="45.30743" lon="4.67617">
        <ele>584.14</ele>
        <time>2020-05-21T13:17:23Z</time>
      </trkpt>
      <trkpt lat="45.30739" lon="4.67612">
        <ele>584.62</ele>
        <time>2020-05-21T13:17:24Z</time>
      </trkpt>
      <trkpt lat="45.30735" lon="4.67608">
        <ele>585.1</ele>
        <time>2020-05-21T13:17:25Z</time>
      </trkpt>
      <trkpt lat="45.30731" lon="4.67605">
        <ele>585.1</ele>
        <time>2020-05-21T13:17:26Z</time>
      </trkpt>
      <trkpt lat="45.3069" lon="4.67548">
        <ele>585.58</ele>
        <time>2020-05-21T13:17:38Z</time>
      </trkpt>
      <trkpt lat="45.30684" lon="4.67534">
        <ele>585.1</ele>
        <time>2020-05-21T13:17:40Z</time>
      </trkpt>
      <trkpt lat="45.30661" lon="4.67488">
        <ele>584.62</ele>
        <time>2020-05-21T13:17:47Z</time>
      </trkpt>
      <trkpt lat="45.30656" lon="4.67483">
        <ele>584.14</ele>
        <time>2020-05-21T13:17:48Z</time>
      </trkpt>
      <trkpt lat="45.30607" lon="4.6741">
        <ele>583.66</ele>
        <time>2020-05-21T13:18:00Z</time>
      </trkpt>
      <trkpt lat="45.30598" lon="4.67384">
        <ele>583.66</ele>
        <time>2020-05-21T13:18:04Z</time>
      </trkpt>
      <trkpt lat="45.30565" lon="4.67275">
        <ele>584.62</ele>
        <time>2020-05-21T13:18:20Z</time>
      </trkpt>
      <trkpt lat="45.30552" lon="4.67223">
        <ele>584.62</ele>
        <time>2020-05-21T13:18:27Z</time>
      </trkpt>
      <trkpt lat="45.30552" lon="4.67215">
        <ele>584.62</ele>
        <time>2020-05-21T13:18:28Z</time>
      </trkpt>
      <trkpt lat="45.30552" lon="4.67207">
        <ele>583.66</ele>
        <time>2020-05-21T13:18:29Z</time>
      </trkpt>
      <trkpt lat="45.30553" lon="4.67198">
        <ele>583.66</ele>
        <time>2020-05-21T13:18:30Z</time>
      </trkpt>
      <trkpt lat="45.30554" lon="4.6719">
        <ele>583.66</ele>
        <time>2020-05-21T13:18:31Z</time>
      </trkpt>
      <trkpt lat="45.30556" lon="4.67182">
        <ele>583.66</ele>
        <time>2020-05-21T13:18:32Z</time>
      </trkpt>
      <trkpt lat="45.30559" lon="4.67174">
        <ele>583.18</ele>
        <time>2020-05-21T13:18:33Z</time>
      </trkpt>
      <trkpt lat="45.30572" lon="4.67134">
        <ele>582.7</ele>
        <time>2020-05-21T13:18:38Z</time>
      </trkpt>
      <trkpt lat="45.30582" lon="4.67114">
        <ele>582.7</ele>
        <time>2020-05-21T13:18:41Z</time>
      </trkpt>
      <trkpt lat="45.30599" lon="4.67074">
        <ele>586.06</ele>
        <time>2020-05-21T13:18:49Z</time>
      </trkpt>
      <trkpt lat="45.30598" lon="4.67068">
        <ele>586.06</ele>
        <time>2020-05-21T13:18:50Z</time>
      </trkpt>
      <trkpt lat="45.30596" lon="4.67063">
        <ele>586.54</ele>
        <time>2020-05-21T13:18:51Z</time>
      </trkpt>
      <trkpt lat="45.30577" lon="4.67012">
        <ele>588.46</ele>
        <time>2020-05-21T13:19:02Z</time>
      </trkpt>
      <trkpt lat="45.30555" lon="4.6696">
        <ele>589.91</ele>
        <time>2020-05-21T13:19:15Z</time>
      </trkpt>
      <trkpt lat="45.30546" lon="4.66908">
        <ele>592.79</ele>
        <time>2020-05-21T13:19:27Z</time>
      </trkpt>
      <trkpt lat="45.30531" lon="4.66848">
        <ele>594.23</ele>
        <time>2020-05-21T13:19:40Z</time>
      </trkpt>
      <trkpt lat="45.30528" lon="4.66785">
        <ele>596.64</ele>
        <time>2020-05-21T13:19:53Z</time>
      </trkpt>
      <trkpt lat="45.3052" lon="4.66717">
        <ele>597.6</ele>
        <time>2020-05-21T13:20:06Z</time>
      </trkpt>
      <trkpt lat="45.3051" lon="4.66658">
        <ele>598.56</ele>
        <time>2020-05-21T13:20:18Z</time>
      </trkpt>
      <trkpt lat="45.30497" lon="4.66606">
        <ele>600.96</ele>
        <time>2020-05-21T13:20:31Z</time>
      </trkpt>
      <trkpt lat="45.30488" lon="4.6656">
        <ele>603.85</ele>
        <time>2020-05-21T13:20:44Z</time>
      </trkpt>
      <trkpt lat="45.3048" lon="4.66522">
        <ele>606.73</ele>
        <time>2020-05-21T13:20:58Z</time>
      </trkpt>
      <trkpt lat="45.30479" lon="4.66502">
        <ele>608.65</ele>
        <time>2020-05-21T13:21:06Z</time>
      </trkpt>
      <trkpt lat="45.30493" lon="4.66473">
        <ele>611.06</ele>
        <time>2020-05-21T13:21:20Z</time>
      </trkpt>
      <trkpt lat="45.30505" lon="4.66428">
        <ele>609.13</ele>
        <time>2020-05-21T13:21:30Z</time>
      </trkpt>
      <trkpt lat="45.30508" lon="4.66422">
        <ele>609.13</ele>
        <time>2020-05-21T13:21:31Z</time>
      </trkpt>
      <trkpt lat="45.30541" lon="4.66364">
        <ele>605.77</ele>
        <time>2020-05-21T13:21:40Z</time>
      </trkpt>
      <trkpt lat="45.30559" lon="4.66338">
        <ele>604.81</ele>
        <time>2020-05-21T13:21:44Z</time>
      </trkpt>
      <trkpt lat="45.30565" lon="4.66334">
        <ele>604.33</ele>
        <time>2020-05-21T13:21:45Z</time>
      </trkpt>
      <trkpt lat="45.30571" lon="4.6633">
        <ele>603.36</ele>
        <time>2020-05-21T13:21:46Z</time>
      </trkpt>
      <trkpt lat="45.30578" lon="4.66328">
        <ele>603.36</ele>
        <time>2020-05-21T13:21:47Z</time>
      </trkpt>
      <trkpt lat="45.30585" lon="4.66325">
        <ele>602.88</ele>
        <time>2020-05-21T13:21:48Z</time>
      </trkpt>
      <trkpt lat="45.30592" lon="4.66324">
        <ele>602.88</ele>
        <time>2020-05-21T13:21:49Z</time>
      </trkpt>
      <trkpt lat="45.30599" lon="4.66323">
        <ele>602.4</ele>
        <time>2020-05-21T13:21:50Z</time>
      </trkpt>
      <trkpt lat="45.30606" lon="4.66322">
        <ele>602.88</ele>
        <time>2020-05-21T13:21:51Z</time>
      </trkpt>
      <trkpt lat="45.30613" lon="4.66323">
        <ele>602.4</ele>
        <time>2020-05-21T13:21:52Z</time>
      </trkpt>
      <trkpt lat="45.30619" lon="4.66324">
        <ele>601.44</ele>
        <time>2020-05-21T13:21:53Z</time>
      </trkpt>
      <trkpt lat="45.30626" lon="4.66326">
        <ele>600.96</ele>
        <time>2020-05-21T13:21:54Z</time>
      </trkpt>
      <trkpt lat="45.30633" lon="4.66328">
        <ele>600.96</ele>
        <time>2020-05-21T13:21:55Z</time>
      </trkpt>
      <trkpt lat="45.30668" lon="4.66342">
        <ele>599.04</ele>
        <time>2020-05-21T13:22:00Z</time>
      </trkpt>
      <trkpt lat="45.30676" lon="4.66345">
        <ele>599.04</ele>
        <time>2020-05-21T13:22:01Z</time>
      </trkpt>
      <trkpt lat="45.30683" lon="4.66345">
        <ele>599.04</ele>
        <time>2020-05-21T13:22:02Z</time>
      </trkpt>
      <trkpt lat="45.3069" lon="4.66343">
        <ele>599.04</ele>
        <time>2020-05-21T13:22:03Z</time>
      </trkpt>
      <trkpt lat="45.30697" lon="4.66339">
        <ele>598.08</ele>
        <time>2020-05-21T13:22:04Z</time>
      </trkpt>
      <trkpt lat="45.30703" lon="4.66331">
        <ele>598.08</ele>
        <time>2020-05-21T13:22:05Z</time>
      </trkpt>
      <trkpt lat="45.30707" lon="4.66322">
        <ele>597.6</ele>
        <time>2020-05-21T13:22:06Z</time>
      </trkpt>
      <trkpt lat="45.30709" lon="4.66313">
        <ele>597.6</ele>
        <time>2020-05-21T13:22:07Z</time>
      </trkpt>
      <trkpt lat="45.30709" lon="4.66302">
        <ele>597.6</ele>
        <time>2020-05-21T13:22:08Z</time>
      </trkpt>
      <trkpt lat="45.30706" lon="4.66292">
        <ele>597.12</ele>
        <time>2020-05-21T13:22:09Z</time>
      </trkpt>
      <trkpt lat="45.30702" lon="4.66283">
        <ele>597.12</ele>
        <time>2020-05-21T13:22:10Z</time>
      </trkpt>
      <trkpt lat="45.307" lon="4.66274">
        <ele>597.12</ele>
        <time>2020-05-21T13:22:11Z</time>
      </trkpt>
      <trkpt lat="45.30699" lon="4.66266">
        <ele>597.6</ele>
        <time>2020-05-21T13:22:12Z</time>
      </trkpt>
      <trkpt lat="45.307" lon="4.6626">
        <ele>598.56</ele>
        <time>2020-05-21T13:22:13Z</time>
      </trkpt>
      <trkpt lat="45.30692" lon="4.66237">
        <ele>601.44</ele>
        <time>2020-05-21T13:22:20Z</time>
      </trkpt>
      <trkpt lat="45.30676" lon="4.6621">
        <ele>604.33</ele>
        <time>2020-05-21T13:22:32Z</time>
      </trkpt>
      <trkpt lat="45.30675" lon="4.66208">
        <ele>604.81</ele>
        <time>2020-05-21T13:22:33Z</time>
      </trkpt>
      <trkpt lat="45.30673" lon="4.66206">
        <ele>604.81</ele>
        <time>2020-05-21T13:22:34Z</time>
      </trkpt>
      <trkpt lat="45.30672" lon="4.66204">
        <ele>605.29</ele>
        <time>2020-05-21T13:22:35Z</time>
      </trkpt>
      <trkpt lat="45.30671" lon="4.66202">
        <ele>605.77</ele>
        <time>2020-05-21T13:22:36Z</time>
      </trkpt>
      <trkpt lat="45.30669" lon="4.662">
        <ele>605.77</ele>
        <time>2020-05-21T13:22:37Z</time>
      </trkpt>
      <trkpt lat="45.30668" lon="4.66199">
        <ele>606.25</ele>
        <time>2020-05-21T13:22:38Z</time>
      </trkpt>
      <trkpt lat="45.30667" lon="4.66197">
        <ele>606.25</ele>
        <time>2020-05-21T13:22:39Z</time>
      </trkpt>
      <trkpt lat="45.30665" lon="4.66195">
        <ele>606.73</ele>
        <time>2020-05-21T13:22:40Z</time>
      </trkpt>
      <trkpt lat="45.30664" lon="4.66194">
        <ele>606.73</ele>
        <time>2020-05-21T13:22:41Z</time>
      </trkpt>
      <trkpt lat="45.3066" lon="4.66183">
        <ele>606.73</ele>
        <time>2020-05-21T13:22:45Z</time>
      </trkpt>
      <trkpt lat="45.3066" lon="4.66181">
        <ele>606.73</ele>
        <time>2020-05-21T13:22:46Z</time>
      </trkpt>
      <trkpt lat="45.3066" lon="4.66179">
        <ele>607.21</ele>
        <time>2020-05-21T13:22:47Z</time>
      </trkpt>
      <trkpt lat="45.30661" lon="4.66178">
        <ele>607.69</ele>
        <time>2020-05-21T13:22:48Z</time>
      </trkpt>
      <trkpt lat="45.30663" lon="4.66178">
        <ele>608.17</ele>
        <time>2020-05-21T13:22:49Z</time>
      </trkpt>
      <trkpt lat="45.30665" lon="4.66178">
        <ele>608.65</ele>
        <time>2020-05-21T13:22:50Z</time>
      </trkpt>
      <trkpt lat="45.30667" lon="4.66179">
        <ele>608.65</ele>
        <time>2020-05-21T13:22:51Z</time>
      </trkpt>
      <trkpt lat="45.30668" lon="4.66181">
        <ele>608.65</ele>
        <time>2020-05-21T13:22:52Z</time>
      </trkpt>
      <trkpt lat="45.30669" lon="4.66183">
        <ele>608.65</ele>
        <time>2020-05-21T13:22:53Z</time>
      </trkpt>
      <trkpt lat="45.3067" lon="4.66184">
        <ele>608.65</ele>
        <time>2020-05-21T13:22:54Z</time>
      </trkpt>
      <trkpt lat="45.30671" lon="4.66186">
        <ele>608.65</ele>
        <time>2020-05-21T13:22:55Z</time>
      </trkpt>
      <trkpt lat="45.30672" lon="4.66188">
        <ele>609.13</ele>
        <time>2020-05-21T13:22:56Z</time>
      </trkpt>
      <trkpt lat="45.30691" lon="4.66191">
        <ele>610.57</ele>
        <time>2020-05-21T13:23:08Z</time>
      </trkpt>
      <trkpt lat="45.30707" lon="4.66181">
        <ele>611.54</ele>
        <time>2020-05-21T13:23:17Z</time>
      </trkpt>
      <trkpt lat="45.30709" lon="4.66181">
        <ele>611.54</ele>
        <time>2020-05-21T13:23:18Z</time>
      </trkpt>
      <trkpt lat="45.30711" lon="4.6618">
        <ele>612.02</ele>
        <time>2020-05-21T13:23:19Z</time>
      </trkpt>
      <trkpt lat="45.30734" lon="4.66176">
        <ele>614.9</ele>
        <time>2020-05-21T13:23:31Z</time>
      </trkpt>
      <trkpt lat="45.30751" lon="4.66179">
        <ele>616.82</ele>
        <time>2020-05-21T13:23:42Z</time>
      </trkpt>
      <trkpt lat="45.30766" lon="4.66176">
        <ele>619.23</ele>
        <time>2020-05-21T13:23:53Z</time>
      </trkpt>
      <trkpt lat="45.30769" lon="4.66174">
        <ele>619.71</ele>
        <time>2020-05-21T13:23:55Z</time>
      </trkpt>
      <trkpt lat="45.30784" lon="4.66177">
        <ele>621.15</ele>
        <time>2020-05-21T13:24:05Z</time>
      </trkpt>
      <trkpt lat="45.30805" lon="4.66175">
        <ele>624.03</ele>
        <time>2020-05-21T13:24:18Z</time>
      </trkpt>
      <trkpt lat="45.30814" lon="4.66168">
        <ele>625.47</ele>
        <time>2020-05-21T13:24:25Z</time>
      </trkpt>
      <trkpt lat="45.30815" lon="4.66167">
        <ele>625.47</ele>
        <time>2020-05-21T13:24:26Z</time>
      </trkpt>
      <trkpt lat="45.30831" lon="4.66161">
        <ele>628.36</ele>
        <time>2020-05-21T13:24:39Z</time>
      </trkpt>
      <trkpt lat="45.30839" lon="4.66163">
        <ele>629.32</ele>
        <time>2020-05-21T13:24:43Z</time>
      </trkpt>
      <trkpt lat="45.30853" lon="4.66176">
        <ele>631.24</ele>
        <time>2020-05-21T13:24:54Z</time>
      </trkpt>
      <trkpt lat="45.30864" lon="4.66194">
        <ele>634.13</ele>
        <time>2020-05-21T13:25:07Z</time>
      </trkpt>
      <trkpt lat="45.30869" lon="4.66203">
        <ele>634.61</ele>
        <time>2020-05-21T13:25:13Z</time>
      </trkpt>
      <trkpt lat="45.30869" lon="4.66205">
        <ele>635.09</ele>
        <time>2020-05-21T13:25:14Z</time>
      </trkpt>
      <trkpt lat="45.30871" lon="4.66229">
        <ele>636.53</ele>
        <time>2020-05-21T13:25:26Z</time>
      </trkpt>
      <trkpt lat="45.30871" lon="4.6623">
        <ele>637.01</ele>
        <time>2020-05-21T13:25:27Z</time>
      </trkpt>
      <trkpt lat="45.30872" lon="4.66232">
        <ele>637.49</ele>
        <time>2020-05-21T13:25:28Z</time>
      </trkpt>
      <trkpt lat="45.30874" lon="4.66232">
        <ele>637.97</ele>
        <time>2020-05-21T13:25:29Z</time>
      </trkpt>
      <trkpt lat="45.30875" lon="4.66232">
        <ele>637.97</ele>
        <time>2020-05-21T13:25:30Z</time>
      </trkpt>
      <trkpt lat="45.30877" lon="4.66231">
        <ele>637.97</ele>
        <time>2020-05-21T13:25:31Z</time>
      </trkpt>
      <trkpt lat="45.30878" lon="4.6623">
        <ele>638.45</ele>
        <time>2020-05-21T13:25:32Z</time>
      </trkpt>
      <trkpt lat="45.30878" lon="4.66228">
        <ele>638.45</ele>
        <time>2020-05-21T13:25:33Z</time>
      </trkpt>
      <trkpt lat="45.30879" lon="4.66227">
        <ele>638.93</ele>
        <time>2020-05-21T13:25:34Z</time>
      </trkpt>
      <trkpt lat="45.3088" lon="4.66225">
        <ele>638.93</ele>
        <time>2020-05-21T13:25:35Z</time>
      </trkpt>
      <trkpt lat="45.30881" lon="4.66223">
        <ele>638.93</ele>
        <time>2020-05-21T13:25:36Z</time>
      </trkpt>
      <trkpt lat="45.30881" lon="4.66221">
        <ele>639.41</ele>
        <time>2020-05-21T13:25:37Z</time>
      </trkpt>
      <trkpt lat="45.30882" lon="4.66218">
        <ele>639.41</ele>
        <time>2020-05-21T13:25:38Z</time>
      </trkpt>
      <trkpt lat="45.30882" lon="4.66217">
        <ele>639.41</ele>
        <time>2020-05-21T13:25:39Z</time>
      </trkpt>
      <trkpt lat="45.30883" lon="4.66215">
        <ele>639.41</ele>
        <time>2020-05-21T13:25:40Z</time>
      </trkpt>
      <trkpt lat="45.30883" lon="4.66213">
        <ele>639.89</ele>
        <time>2020-05-21T13:25:41Z</time>
      </trkpt>
      <trkpt lat="45.30883" lon="4.66211">
        <ele>639.89</ele>
        <time>2020-05-21T13:25:42Z</time>
      </trkpt>
      <trkpt lat="45.30884" lon="4.66202">
        <ele>640.86</ele>
        <time>2020-05-21T13:25:46Z</time>
      </trkpt>
      <trkpt lat="45.30885" lon="4.66174">
        <ele>643.26</ele>
        <time>2020-05-21T13:25:59Z</time>
      </trkpt>
      <trkpt lat="45.30885" lon="4.66171">
        <ele>643.26</ele>
        <time>2020-05-21T13:26:00Z</time>
      </trkpt>
      <trkpt lat="45.30886" lon="4.66155">
        <ele>644.7</ele>
        <time>2020-05-21T13:26:08Z</time>
      </trkpt>
      <trkpt lat="45.30887" lon="4.66153">
        <ele>644.7</ele>
        <time>2020-05-21T13:26:09Z</time>
      </trkpt>
      <trkpt lat="45.30888" lon="4.66151">
        <ele>644.7</ele>
        <time>2020-05-21T13:26:10Z</time>
      </trkpt>
      <trkpt lat="45.30888" lon="4.66147">
        <ele>645.18</ele>
        <time>2020-05-21T13:26:12Z</time>
      </trkpt>
      <trkpt lat="45.30886" lon="4.66121">
        <ele>646.62</ele>
        <time>2020-05-21T13:26:23Z</time>
      </trkpt>
      <trkpt lat="45.30872" lon="4.66095">
        <ele>649.03</ele>
        <time>2020-05-21T13:26:37Z</time>
      </trkpt>
      <trkpt lat="45.3085" lon="4.66079">
        <ele>650.47</ele>
        <time>2020-05-21T13:26:50Z</time>
      </trkpt>
      <trkpt lat="45.30839" lon="4.66067">
        <ele>651.43</ele>
        <time>2020-05-21T13:26:58Z</time>
      </trkpt>
      <trkpt lat="45.30828" lon="4.66035">
        <ele>653.83</ele>
        <time>2020-05-21T13:27:11Z</time>
      </trkpt>
      <trkpt lat="45.30827" lon="4.66026">
        <ele>654.31</ele>
        <time>2020-05-21T13:27:14Z</time>
      </trkpt>
      <trkpt lat="45.30827" lon="4.66023">
        <ele>654.31</ele>
        <time>2020-05-21T13:27:15Z</time>
      </trkpt>
      <trkpt lat="45.30821" lon="4.65985">
        <ele>656.72</ele>
        <time>2020-05-21T13:27:30Z</time>
      </trkpt>
      <trkpt lat="45.3082" lon="4.65983">
        <ele>657.2</ele>
        <time>2020-05-21T13:27:31Z</time>
      </trkpt>
      <trkpt lat="45.3082" lon="4.6598">
        <ele>657.2</ele>
        <time>2020-05-21T13:27:32Z</time>
      </trkpt>
      <trkpt lat="45.3082" lon="4.65978">
        <ele>657.2</ele>
        <time>2020-05-21T13:27:33Z</time>
      </trkpt>
      <trkpt lat="45.3082" lon="4.65975">
        <ele>657.2</ele>
        <time>2020-05-21T13:27:34Z</time>
      </trkpt>
      <trkpt lat="45.3082" lon="4.65972">
        <ele>657.68</ele>
        <time>2020-05-21T13:27:35Z</time>
      </trkpt>
      <trkpt lat="45.3082" lon="4.65958">
        <ele>658.16</ele>
        <time>2020-05-21T13:27:40Z</time>
      </trkpt>
      <trkpt lat="45.3082" lon="4.65956">
        <ele>658.64</ele>
        <time>2020-05-21T13:27:41Z</time>
      </trkpt>
      <trkpt lat="45.30819" lon="4.65953">
        <ele>659.12</ele>
        <time>2020-05-21T13:27:42Z</time>
      </trkpt>
      <trkpt lat="45.30823" lon="4.65914">
        <ele>661.52</ele>
        <time>2020-05-21T13:27:58Z</time>
      </trkpt>
      <trkpt lat="45.30832" lon="4.65879">
        <ele>664.41</ele>
        <time>2020-05-21T13:28:13Z</time>
      </trkpt>
      <trkpt lat="45.30833" lon="4.65877">
        <ele>664.41</ele>
        <time>2020-05-21T13:28:14Z</time>
      </trkpt>
      <trkpt lat="45.30833" lon="4.65875">
        <ele>664.41</ele>
        <time>2020-05-21T13:28:15Z</time>
      </trkpt>
      <trkpt lat="45.30834" lon="4.65873">
        <ele>664.41</ele>
        <time>2020-05-21T13:28:16Z</time>
      </trkpt>
      <trkpt lat="45.30835" lon="4.65871">
        <ele>664.41</ele>
        <time>2020-05-21T13:28:17Z</time>
      </trkpt>
      <trkpt lat="45.30836" lon="4.65869">
        <ele>664.41</ele>
        <time>2020-05-21T13:28:18Z</time>
      </trkpt>
      <trkpt lat="45.30847" lon="4.65861">
        <ele>666.33</ele>
        <time>2020-05-21T13:28:27Z</time>
      </trkpt>
      <trkpt lat="45.30848" lon="4.65862">
        <ele>666.33</ele>
        <time>2020-05-21T13:28:28Z</time>
      </trkpt>
      <trkpt lat="45.30849" lon="4.65862">
        <ele>666.33</ele>
        <time>2020-05-21T13:28:29Z</time>
      </trkpt>
      <trkpt lat="45.30856" lon="4.65869">
        <ele>667.77</ele>
        <time>2020-05-21T13:28:35Z</time>
      </trkpt>
      <trkpt lat="45.30856" lon="4.65871">
        <ele>667.77</ele>
        <time>2020-05-21T13:28:36Z</time>
      </trkpt>
      <trkpt lat="45.30856" lon="4.65873">
        <ele>668.25</ele>
        <time>2020-05-21T13:28:37Z</time>
      </trkpt>
      <trkpt lat="45.30857" lon="4.65874">
        <ele>668.73</ele>
        <time>2020-05-21T13:28:38Z</time>
      </trkpt>
      <trkpt lat="45.30857" lon="4.65876">
        <ele>668.73</ele>
        <time>2020-05-21T13:28:39Z</time>
      </trkpt>
      <trkpt lat="45.30858" lon="4.65878">
        <ele>669.22</ele>
        <time>2020-05-21T13:28:40Z</time>
      </trkpt>
      <trkpt lat="45.3086" lon="4.65879">
        <ele>669.22</ele>
        <time>2020-05-21T13:28:41Z</time>
      </trkpt>
      <trkpt lat="45.30861" lon="4.65881">
        <ele>669.7</ele>
        <time>2020-05-21T13:28:42Z</time>
      </trkpt>
      <trkpt lat="45.30862" lon="4.65883">
        <ele>669.7</ele>
        <time>2020-05-21T13:28:43Z</time>
      </trkpt>
      <trkpt lat="45.30863" lon="4.65884">
        <ele>669.7</ele>
        <time>2020-05-21T13:28:44Z</time>
      </trkpt>
      <trkpt lat="45.30863" lon="4.65886">
        <ele>670.18</ele>
        <time>2020-05-21T13:28:45Z</time>
      </trkpt>
      <trkpt lat="45.30863" lon="4.65888">
        <ele>670.18</ele>
        <time>2020-05-21T13:28:46Z</time>
      </trkpt>
      <trkpt lat="45.30864" lon="4.6589">
        <ele>670.66</ele>
        <time>2020-05-21T13:28:48Z</time>
      </trkpt>
      <trkpt lat="45.30865" lon="4.65891">
        <ele>671.14</ele>
        <time>2020-05-21T13:28:49Z</time>
      </trkpt>
      <trkpt lat="45.30866" lon="4.65892">
        <ele>671.14</ele>
        <time>2020-05-21T13:28:50Z</time>
      </trkpt>
      <trkpt lat="45.30875" lon="4.6591">
        <ele>674.5</ele>
        <time>2020-05-21T13:29:02Z</time>
      </trkpt>
      <trkpt lat="45.30888" lon="4.65928">
        <ele>676.42</ele>
        <time>2020-05-21T13:29:13Z</time>
      </trkpt>
      <trkpt lat="45.3089" lon="4.65929">
        <ele>676.42</ele>
        <time>2020-05-21T13:29:14Z</time>
      </trkpt>
      <trkpt lat="45.30892" lon="4.65931">
        <ele>676.42</ele>
        <time>2020-05-21T13:29:15Z</time>
      </trkpt>
      <trkpt lat="45.30917" lon="4.65953">
        <ele>676.91</ele>
        <time>2020-05-21T13:29:28Z</time>
      </trkpt>
      <trkpt lat="45.30932" lon="4.65972">
        <ele>678.35</ele>
        <time>2020-05-21T13:29:39Z</time>
      </trkpt>
      <trkpt lat="45.30939" lon="4.65982">
        <ele>679.31</ele>
        <time>2020-05-21T13:29:44Z</time>
      </trkpt>
      <trkpt lat="45.30958" lon="4.66004">
        <ele>681.23</ele>
        <time>2020-05-21T13:29:56Z</time>
      </trkpt>
      <trkpt lat="45.30974" lon="4.66024">
        <ele>684.12</ele>
        <time>2020-05-21T13:30:08Z</time>
      </trkpt>
      <trkpt lat="45.3099" lon="4.66049">
        <ele>686.04</ele>
        <time>2020-05-21T13:30:21Z</time>
      </trkpt>
      <trkpt lat="45.31007" lon="4.6608">
        <ele>687.48</ele>
        <time>2020-05-21T13:30:34Z</time>
      </trkpt>
      <trkpt lat="45.31009" lon="4.66084">
        <ele>688.44</ele>
        <time>2020-05-21T13:30:36Z</time>
      </trkpt>
      <trkpt lat="45.3101" lon="4.66085">
        <ele>688.44</ele>
        <time>2020-05-21T13:30:37Z</time>
      </trkpt>
      <trkpt lat="45.31012" lon="4.66087">
        <ele>687.96</ele>
        <time>2020-05-21T13:30:38Z</time>
      </trkpt>
      <trkpt lat="45.31014" lon="4.6609">
        <ele>687.96</ele>
        <time>2020-05-21T13:30:39Z</time>
      </trkpt>
      <trkpt lat="45.31015" lon="4.66093">
        <ele>688.44</ele>
        <time>2020-05-21T13:30:40Z</time>
      </trkpt>
      <trkpt lat="45.31015" lon="4.66096">
        <ele>688.92</ele>
        <time>2020-05-21T13:30:41Z</time>
      </trkpt>
      <trkpt lat="45.31016" lon="4.66099">
        <ele>688.92</ele>
        <time>2020-05-21T13:30:42Z</time>
      </trkpt>
      <trkpt lat="45.31017" lon="4.66101">
        <ele>688.92</ele>
        <time>2020-05-21T13:30:43Z</time>
      </trkpt>
      <trkpt lat="45.31018" lon="4.66103">
        <ele>690.36</ele>
        <time>2020-05-21T13:30:46Z</time>
      </trkpt>
      <trkpt lat="45.31017" lon="4.66103">
        <ele>689.88</ele>
        <time>2020-05-21T13:31:03Z</time>
      </trkpt>
      <trkpt lat="45.31018" lon="4.66103">
        <ele>692.29</ele>
        <time>2020-05-21T13:31:17Z</time>
      </trkpt>
      <trkpt lat="45.31018" lon="4.66103">
        <ele>690.36</ele>
        <time>2020-05-21T13:31:20Z</time>
      </trkpt>
      <trkpt lat="45.31018" lon="4.66102">
        <ele>690.36</ele>
        <time>2020-05-21T13:31:44Z</time>
      </trkpt>
      <trkpt lat="45.31018" lon="4.66101">
        <ele>689.88</ele>
        <time>2020-05-21T13:32:14Z</time>
      </trkpt>
      <trkpt lat="45.31017" lon="4.661">
        <ele>690.36</ele>
        <time>2020-05-21T13:32:46Z</time>
      </trkpt>
      <trkpt lat="45.31018" lon="4.661">
        <ele>689.88</ele>
        <time>2020-05-21T13:33:20Z</time>
      </trkpt>
      <trkpt lat="45.31019" lon="4.66101">
        <ele>688.92</ele>
        <time>2020-05-21T13:33:37Z</time>
      </trkpt>
      <trkpt lat="45.31022" lon="4.66102">
        <ele>687.96</ele>
        <time>2020-05-21T13:33:38Z</time>
      </trkpt>
      <trkpt lat="45.31025" lon="4.66104">
        <ele>687.48</ele>
        <time>2020-05-21T13:33:39Z</time>
      </trkpt>
      <trkpt lat="45.31028" lon="4.66106">
        <ele>687.96</ele>
        <time>2020-05-21T13:33:40Z</time>
      </trkpt>
      <trkpt lat="45.3103" lon="4.66109">
        <ele>688.44</ele>
        <time>2020-05-21T13:33:41Z</time>
      </trkpt>
      <trkpt lat="45.31035" lon="4.66114">
        <ele>689.4</ele>
        <time>2020-05-21T13:33:43Z</time>
      </trkpt>
      <trkpt lat="45.31064" lon="4.66153">
        <ele>688.44</ele>
        <time>2020-05-21T13:33:55Z</time>
      </trkpt>
      <trkpt lat="45.31101" lon="4.66196">
        <ele>687.48</ele>
        <time>2020-05-21T13:34:07Z</time>
      </trkpt>
      <trkpt lat="45.31104" lon="4.662">
        <ele>687</ele>
        <time>2020-05-21T13:34:08Z</time>
      </trkpt>
      <trkpt lat="45.31108" lon="4.66204">
        <ele>687</ele>
        <time>2020-05-21T13:34:09Z</time>
      </trkpt>
      <trkpt lat="45.31121" lon="4.66216">
        <ele>685.56</ele>
        <time>2020-05-21T13:34:12Z</time>
      </trkpt>
      <trkpt lat="45.31125" lon="4.66218">
        <ele>685.56</ele>
        <time>2020-05-21T13:34:13Z</time>
      </trkpt>
      <trkpt lat="45.31131" lon="4.6622">
        <ele>685.56</ele>
        <time>2020-05-21T13:34:14Z</time>
      </trkpt>
      <trkpt lat="45.31136" lon="4.66222">
        <ele>684.6</ele>
        <time>2020-05-21T13:34:15Z</time>
      </trkpt>
      <trkpt lat="45.31141" lon="4.66225">
        <ele>684.6</ele>
        <time>2020-05-21T13:34:16Z</time>
      </trkpt>
      <trkpt lat="45.31159" lon="4.66233">
        <ele>682.19</ele>
        <time>2020-05-21T13:34:19Z</time>
      </trkpt>
      <trkpt lat="45.31179" lon="4.66239">
        <ele>678.83</ele>
        <time>2020-05-21T13:34:22Z</time>
      </trkpt>
      <trkpt lat="45.31186" lon="4.66243">
        <ele>677.87</ele>
        <time>2020-05-21T13:34:23Z</time>
      </trkpt>
      <trkpt lat="45.31201" lon="4.66248">
        <ele>676.42</ele>
        <time>2020-05-21T13:34:25Z</time>
      </trkpt>
      <trkpt lat="45.3121" lon="4.66248">
        <ele>675.46</ele>
        <time>2020-05-21T13:34:26Z</time>
      </trkpt>
      <trkpt lat="45.31218" lon="4.66246">
        <ele>674.5</ele>
        <time>2020-05-21T13:34:27Z</time>
      </trkpt>
      <trkpt lat="45.31227" lon="4.66243">
        <ele>674.02</ele>
        <time>2020-05-21T13:34:28Z</time>
      </trkpt>
      <trkpt lat="45.31236" lon="4.66239">
        <ele>673.06</ele>
        <time>2020-05-21T13:34:29Z</time>
      </trkpt>
      <trkpt lat="45.31244" lon="4.66237">
        <ele>672.58</ele>
        <time>2020-05-21T13:34:30Z</time>
      </trkpt>
      <trkpt lat="45.31252" lon="4.66237">
        <ele>671.62</ele>
        <time>2020-05-21T13:34:31Z</time>
      </trkpt>
      <trkpt lat="45.31261" lon="4.66235">
        <ele>670.66</ele>
        <time>2020-05-21T13:34:32Z</time>
      </trkpt>
      <trkpt lat="45.31271" lon="4.66233">
        <ele>669.7</ele>
        <time>2020-05-21T13:34:33Z</time>
      </trkpt>
      <trkpt lat="45.3128" lon="4.66232">
        <ele>668.73</ele>
        <time>2020-05-21T13:34:34Z</time>
      </trkpt>
      <trkpt lat="45.31364" lon="4.66232">
        <ele>666.81</ele>
        <time>2020-05-21T13:34:44Z</time>
      </trkpt>
      <trkpt lat="45.3138" lon="4.66234">
        <ele>666.33</ele>
        <time>2020-05-21T13:34:46Z</time>
      </trkpt>
      <trkpt lat="45.31386" lon="4.66233">
        <ele>666.81</ele>
        <time>2020-05-21T13:34:47Z</time>
      </trkpt>
      <trkpt lat="45.31391" lon="4.6623">
        <ele>667.29</ele>
        <time>2020-05-21T13:34:48Z</time>
      </trkpt>
      <trkpt lat="45.31411" lon="4.66207">
        <ele>665.37</ele>
        <time>2020-05-21T13:34:53Z</time>
      </trkpt>
      <trkpt lat="45.31416" lon="4.66205">
        <ele>664.89</ele>
        <time>2020-05-21T13:34:54Z</time>
      </trkpt>
      <trkpt lat="45.31422" lon="4.66204">
        <ele>664.41</ele>
        <time>2020-05-21T13:34:55Z</time>
      </trkpt>
      <trkpt lat="45.31427" lon="4.66204">
        <ele>663.93</ele>
        <time>2020-05-21T13:34:56Z</time>
      </trkpt>
      <trkpt lat="45.31432" lon="4.66201">
        <ele>663.93</ele>
        <time>2020-05-21T13:34:57Z</time>
      </trkpt>
      <trkpt lat="45.31437" lon="4.66199">
        <ele>662.97</ele>
        <time>2020-05-21T13:34:58Z</time>
      </trkpt>
      <trkpt lat="45.31442" lon="4.66197">
        <ele>662.49</ele>
        <time>2020-05-21T13:34:59Z</time>
      </trkpt>
      <trkpt lat="45.31447" lon="4.66197">
        <ele>661.04</ele>
        <time>2020-05-21T13:35:00Z</time>
      </trkpt>
      <trkpt lat="45.31452" lon="4.66196">
        <ele>659.6</ele>
        <time>2020-05-21T13:35:01Z</time>
      </trkpt>
      <trkpt lat="45.31458" lon="4.66195">
        <ele>658.64</ele>
        <time>2020-05-21T13:35:02Z</time>
      </trkpt>
      <trkpt lat="45.31463" lon="4.66194">
        <ele>657.68</ele>
        <time>2020-05-21T13:35:03Z</time>
      </trkpt>
      <trkpt lat="45.31468" lon="4.66193">
        <ele>656.72</ele>
        <time>2020-05-21T13:35:04Z</time>
      </trkpt>
      <trkpt lat="45.31487" lon="4.66197">
        <ele>650.47</ele>
        <time>2020-05-21T13:35:07Z</time>
      </trkpt>
      <trkpt lat="45.31498" lon="4.66199">
        <ele>648.55</ele>
        <time>2020-05-21T13:35:09Z</time>
      </trkpt>
      <trkpt lat="45.31519" lon="4.662">
        <ele>644.7</ele>
        <time>2020-05-21T13:35:13Z</time>
      </trkpt>
      <trkpt lat="45.3154" lon="4.66209">
        <ele>639.89</ele>
        <time>2020-05-21T13:35:18Z</time>
      </trkpt>
      <trkpt lat="45.31552" lon="4.6621">
        <ele>637.49</ele>
        <time>2020-05-21T13:35:20Z</time>
      </trkpt>
      <trkpt lat="45.31581" lon="4.66218">
        <ele>633.17</ele>
        <time>2020-05-21T13:35:25Z</time>
      </trkpt>
      <trkpt lat="45.31584" lon="4.66217">
        <ele>633.17</ele>
        <time>2020-05-21T13:35:26Z</time>
      </trkpt>
      <trkpt lat="45.31589" lon="4.66217">
        <ele>632.68</ele>
        <time>2020-05-21T13:35:29Z</time>
      </trkpt>
      <trkpt lat="45.31599" lon="4.66214">
        <ele>630.76</ele>
        <time>2020-05-21T13:35:33Z</time>
      </trkpt>
      <trkpt lat="45.31608" lon="4.66219">
        <ele>628.84</ele>
        <time>2020-05-21T13:35:37Z</time>
      </trkpt>
      <trkpt lat="45.31612" lon="4.66222">
        <ele>629.32</ele>
        <time>2020-05-21T13:35:39Z</time>
      </trkpt>
      <trkpt lat="45.31625" lon="4.66229">
        <ele>628.84</ele>
        <time>2020-05-21T13:35:44Z</time>
      </trkpt>
      <trkpt lat="45.3163" lon="4.66231">
        <ele>627.88</ele>
        <time>2020-05-21T13:35:45Z</time>
      </trkpt>
      <trkpt lat="45.31652" lon="4.66235">
        <ele>624.99</ele>
        <time>2020-05-21T13:35:50Z</time>
      </trkpt>
      <trkpt lat="45.31666" lon="4.6624">
        <ele>624.03</ele>
        <time>2020-05-21T13:35:54Z</time>
      </trkpt>
      <trkpt lat="45.31668" lon="4.66242">
        <ele>623.55</ele>
        <time>2020-05-21T13:35:55Z</time>
      </trkpt>
      <trkpt lat="45.3167" lon="4.66244">
        <ele>624.03</ele>
        <time>2020-05-21T13:35:56Z</time>
      </trkpt>
      <trkpt lat="45.31679" lon="4.66248">
        <ele>623.55</ele>
        <time>2020-05-21T13:36:06Z</time>
      </trkpt>
      <trkpt lat="45.31687" lon="4.66255">
        <ele>624.03</ele>
        <time>2020-05-21T13:36:18Z</time>
      </trkpt>
      <trkpt lat="45.31687" lon="4.66252">
        <ele>624.03</ele>
        <time>2020-05-21T13:36:36Z</time>
      </trkpt>
      <trkpt lat="45.31689" lon="4.66259">
        <ele>624.99</ele>
        <time>2020-05-21T13:36:50Z</time>
      </trkpt>
      <trkpt lat="45.31691" lon="4.66258">
        <ele>624.99</ele>
        <time>2020-05-21T13:37:03Z</time>
      </trkpt>
      <trkpt lat="45.31693" lon="4.66257">
        <ele>624.51</ele>
        <time>2020-05-21T13:37:04Z</time>
      </trkpt>
      <trkpt lat="45.31696" lon="4.66257">
        <ele>623.55</ele>
        <time>2020-05-21T13:37:05Z</time>
      </trkpt>
      <trkpt lat="45.317" lon="4.66255">
        <ele>622.59</ele>
        <time>2020-05-21T13:37:06Z</time>
      </trkpt>
      <trkpt lat="45.31706" lon="4.66254">
        <ele>622.11</ele>
        <time>2020-05-21T13:37:07Z</time>
      </trkpt>
      <trkpt lat="45.31712" lon="4.66252">
        <ele>621.15</ele>
        <time>2020-05-21T13:37:08Z</time>
      </trkpt>
      <trkpt lat="45.31719" lon="4.66252">
        <ele>619.71</ele>
        <time>2020-05-21T13:37:09Z</time>
      </trkpt>
      <trkpt lat="45.31726" lon="4.66253">
        <ele>618.75</ele>
        <time>2020-05-21T13:37:10Z</time>
      </trkpt>
      <trkpt lat="45.31741" lon="4.66256">
        <ele>614.9</ele>
        <time>2020-05-21T13:37:12Z</time>
      </trkpt>
      <trkpt lat="45.31766" lon="4.66255">
        <ele>610.57</ele>
        <time>2020-05-21T13:37:15Z</time>
      </trkpt>
      <trkpt lat="45.31782" lon="4.66255">
        <ele>608.17</ele>
        <time>2020-05-21T13:37:17Z</time>
      </trkpt>
      <trkpt lat="45.31789" lon="4.66258">
        <ele>606.73</ele>
        <time>2020-05-21T13:37:18Z</time>
      </trkpt>
      <trkpt lat="45.31796" lon="4.66261">
        <ele>605.29</ele>
        <time>2020-05-21T13:37:19Z</time>
      </trkpt>
      <trkpt lat="45.31803" lon="4.66263">
        <ele>603.85</ele>
        <time>2020-05-21T13:37:20Z</time>
      </trkpt>
      <trkpt lat="45.31809" lon="4.66263">
        <ele>603.36</ele>
        <time>2020-05-21T13:37:21Z</time>
      </trkpt>
      <trkpt lat="45.31815" lon="4.66265">
        <ele>602.4</ele>
        <time>2020-05-21T13:37:22Z</time>
      </trkpt>
      <trkpt lat="45.31819" lon="4.6627">
        <ele>601.92</ele>
        <time>2020-05-21T13:37:23Z</time>
      </trkpt>
      <trkpt lat="45.31824" lon="4.66275">
        <ele>600.48</ele>
        <time>2020-05-21T13:37:24Z</time>
      </trkpt>
      <trkpt lat="45.31828" lon="4.66282">
        <ele>599.04</ele>
        <time>2020-05-21T13:37:25Z</time>
      </trkpt>
      <trkpt lat="45.3183" lon="4.66289">
        <ele>598.08</ele>
        <time>2020-05-21T13:37:26Z</time>
      </trkpt>
      <trkpt lat="45.31833" lon="4.66296">
        <ele>596.64</ele>
        <time>2020-05-21T13:37:27Z</time>
      </trkpt>
      <trkpt lat="45.31839" lon="4.66308">
        <ele>594.23</ele>
        <time>2020-05-21T13:37:29Z</time>
      </trkpt>
      <trkpt lat="45.31843" lon="4.66313">
        <ele>592.79</ele>
        <time>2020-05-21T13:37:30Z</time>
      </trkpt>
      <trkpt lat="45.31849" lon="4.66317">
        <ele>590.87</ele>
        <time>2020-05-21T13:37:31Z</time>
      </trkpt>
      <trkpt lat="45.31855" lon="4.66322">
        <ele>589.43</ele>
        <time>2020-05-21T13:37:32Z</time>
      </trkpt>
      <trkpt lat="45.31862" lon="4.66329">
        <ele>587.5</ele>
        <time>2020-05-21T13:37:33Z</time>
      </trkpt>
      <trkpt lat="45.31868" lon="4.66334">
        <ele>586.54</ele>
        <time>2020-05-21T13:37:34Z</time>
      </trkpt>
      <trkpt lat="45.31874" lon="4.66336">
        <ele>585.58</ele>
        <time>2020-05-21T13:37:35Z</time>
      </trkpt>
      <trkpt lat="45.31878" lon="4.66337">
        <ele>585.1</ele>
        <time>2020-05-21T13:37:36Z</time>
      </trkpt>
      <trkpt lat="45.31881" lon="4.66336">
        <ele>585.1</ele>
        <time>2020-05-21T13:37:37Z</time>
      </trkpt>
      <trkpt lat="45.31884" lon="4.66331">
        <ele>585.1</ele>
        <time>2020-05-21T13:37:40Z</time>
      </trkpt>
      <trkpt lat="45.31883" lon="4.66328">
        <ele>585.58</ele>
        <time>2020-05-21T13:37:42Z</time>
      </trkpt>
      <trkpt lat="45.31882" lon="4.66322">
        <ele>586.06</ele>
        <time>2020-05-21T13:37:46Z</time>
      </trkpt>
      <trkpt lat="45.31881" lon="4.66318">
        <ele>586.06</ele>
        <time>2020-05-21T13:37:48Z</time>
      </trkpt>
      <trkpt lat="45.3188" lon="4.66315">
        <ele>586.06</ele>
        <time>2020-05-21T13:37:49Z</time>
      </trkpt>
      <trkpt lat="45.31879" lon="4.66312">
        <ele>586.54</ele>
        <time>2020-05-21T13:37:50Z</time>
      </trkpt>
      <trkpt lat="45.31879" lon="4.66306">
        <ele>587.02</ele>
        <time>2020-05-21T13:37:52Z</time>
      </trkpt>
      <trkpt lat="45.31879" lon="4.66303">
        <ele>587.02</ele>
        <time>2020-05-21T13:37:53Z</time>
      </trkpt>
      <trkpt lat="45.31879" lon="4.66299">
        <ele>587.02</ele>
        <time>2020-05-21T13:37:54Z</time>
      </trkpt>
      <trkpt lat="45.3188" lon="4.66296">
        <ele>587.02</ele>
        <time>2020-05-21T13:37:55Z</time>
      </trkpt>
      <trkpt lat="45.31881" lon="4.66294">
        <ele>587.5</ele>
        <time>2020-05-21T13:37:56Z</time>
      </trkpt>
      <trkpt lat="45.31883" lon="4.66291">
        <ele>587.5</ele>
        <time>2020-05-21T13:37:57Z</time>
      </trkpt>
      <trkpt lat="45.31885" lon="4.66289">
        <ele>587.5</ele>
        <time>2020-05-21T13:37:58Z</time>
      </trkpt>
      <trkpt lat="45.31887" lon="4.66288">
        <ele>587.5</ele>
        <time>2020-05-21T13:37:59Z</time>
      </trkpt>
      <trkpt lat="45.31889" lon="4.66288">
        <ele>587.5</ele>
        <time>2020-05-21T13:38:00Z</time>
      </trkpt>
      <trkpt lat="45.31891" lon="4.66287">
        <ele>587.98</ele>
        <time>2020-05-21T13:38:01Z</time>
      </trkpt>
      <trkpt lat="45.31893" lon="4.66287">
        <ele>587.98</ele>
        <time>2020-05-21T13:38:02Z</time>
      </trkpt>
      <trkpt lat="45.31895" lon="4.66288">
        <ele>587.98</ele>
        <time>2020-05-21T13:38:03Z</time>
      </trkpt>
      <trkpt lat="45.3193" lon="4.6629">
        <ele>589.91</ele>
        <time>2020-05-21T13:38:17Z</time>
      </trkpt>
      <trkpt lat="45.31956" lon="4.66297">
        <ele>592.31</ele>
        <time>2020-05-21T13:38:29Z</time>
      </trkpt>
      <trkpt lat="45.31982" lon="4.66296">
        <ele>594.23</ele>
        <time>2020-05-21T13:38:40Z</time>
      </trkpt>
      <trkpt lat="45.32008" lon="4.66281">
        <ele>596.15</ele>
        <time>2020-05-21T13:38:52Z</time>
      </trkpt>
      <trkpt lat="45.32034" lon="4.6627">
        <ele>598.08</ele>
        <time>2020-05-21T13:39:03Z</time>
      </trkpt>
      <trkpt lat="45.32049" lon="4.66262">
        <ele>599.04</ele>
        <time>2020-05-21T13:39:10Z</time>
      </trkpt>
      <trkpt lat="45.32051" lon="4.6626">
        <ele>599.04</ele>
        <time>2020-05-21T13:39:11Z</time>
      </trkpt>
      <trkpt lat="45.32068" lon="4.66254">
        <ele>600.48</ele>
        <time>2020-05-21T13:39:19Z</time>
      </trkpt>
      <trkpt lat="45.32089" lon="4.66239">
        <ele>602.4</ele>
        <time>2020-05-21T13:39:30Z</time>
      </trkpt>
      <trkpt lat="45.32114" lon="4.66219">
        <ele>604.33</ele>
        <time>2020-05-21T13:39:43Z</time>
      </trkpt>
      <trkpt lat="45.32133" lon="4.662">
        <ele>606.25</ele>
        <time>2020-05-21T13:39:53Z</time>
      </trkpt>
      <trkpt lat="45.3215" lon="4.66175">
        <ele>607.69</ele>
        <time>2020-05-21T13:40:04Z</time>
      </trkpt>
      <trkpt lat="45.32154" lon="4.66157">
        <ele>609.13</ele>
        <time>2020-05-21T13:40:10Z</time>
      </trkpt>
      <trkpt lat="45.32154" lon="4.66155">
        <ele>609.13</ele>
        <time>2020-05-21T13:40:11Z</time>
      </trkpt>
      <trkpt lat="45.32151" lon="4.66124">
        <ele>610.57</ele>
        <time>2020-05-21T13:40:22Z</time>
      </trkpt>
      <trkpt lat="45.3214" lon="4.66093">
        <ele>612.98</ele>
        <time>2020-05-21T13:40:34Z</time>
      </trkpt>
      <trkpt lat="45.32122" lon="4.66061">
        <ele>614.9</ele>
        <time>2020-05-21T13:40:47Z</time>
      </trkpt>
      <trkpt lat="45.32116" lon="4.66054">
        <ele>615.86</ele>
        <time>2020-05-21T13:40:51Z</time>
      </trkpt>
      <trkpt lat="45.32115" lon="4.66052">
        <ele>615.86</ele>
        <time>2020-05-21T13:40:52Z</time>
      </trkpt>
      <trkpt lat="45.32113" lon="4.6605">
        <ele>616.34</ele>
        <time>2020-05-21T13:40:53Z</time>
      </trkpt>
      <trkpt lat="45.32111" lon="4.66048">
        <ele>616.82</ele>
        <time>2020-05-21T13:40:54Z</time>
      </trkpt>
      <trkpt lat="45.3211" lon="4.66046">
        <ele>616.82</ele>
        <time>2020-05-21T13:40:55Z</time>
      </trkpt>
      <trkpt lat="45.32109" lon="4.66044">
        <ele>616.82</ele>
        <time>2020-05-21T13:40:56Z</time>
      </trkpt>
      <trkpt lat="45.32107" lon="4.66043">
        <ele>616.82</ele>
        <time>2020-05-21T13:40:57Z</time>
      </trkpt>
      <trkpt lat="45.32106" lon="4.66042">
        <ele>616.82</ele>
        <time>2020-05-21T13:40:58Z</time>
      </trkpt>
      <trkpt lat="45.32105" lon="4.6604">
        <ele>617.3</ele>
        <time>2020-05-21T13:40:59Z</time>
      </trkpt>
      <trkpt lat="45.32103" lon="4.66039">
        <ele>617.3</ele>
        <time>2020-05-21T13:41:00Z</time>
      </trkpt>
      <trkpt lat="45.32102" lon="4.66037">
        <ele>617.78</ele>
        <time>2020-05-21T13:41:01Z</time>
      </trkpt>
      <trkpt lat="45.321" lon="4.66035">
        <ele>617.78</ele>
        <time>2020-05-21T13:41:02Z</time>
      </trkpt>
      <trkpt lat="45.32098" lon="4.66033">
        <ele>617.78</ele>
        <time>2020-05-21T13:41:03Z</time>
      </trkpt>
      <trkpt lat="45.32096" lon="4.6603">
        <ele>618.26</ele>
        <time>2020-05-21T13:41:04Z</time>
      </trkpt>
      <trkpt lat="45.32095" lon="4.66028">
        <ele>618.26</ele>
        <time>2020-05-21T13:41:05Z</time>
      </trkpt>
      <trkpt lat="45.32094" lon="4.66026">
        <ele>618.26</ele>
        <time>2020-05-21T13:41:06Z</time>
      </trkpt>
      <trkpt lat="45.32092" lon="4.66025">
        <ele>618.75</ele>
        <time>2020-05-21T13:41:07Z</time>
      </trkpt>
      <trkpt lat="45.32091" lon="4.66023">
        <ele>618.75</ele>
        <time>2020-05-21T13:41:08Z</time>
      </trkpt>
      <trkpt lat="45.32089" lon="4.66021">
        <ele>618.75</ele>
        <time>2020-05-21T13:41:09Z</time>
      </trkpt>
      <trkpt lat="45.32088" lon="4.66018">
        <ele>619.23</ele>
        <time>2020-05-21T13:41:10Z</time>
      </trkpt>
      <trkpt lat="45.32086" lon="4.66016">
        <ele>619.23</ele>
        <time>2020-05-21T13:41:11Z</time>
      </trkpt>
      <trkpt lat="45.32084" lon="4.66013">
        <ele>619.23</ele>
        <time>2020-05-21T13:41:12Z</time>
      </trkpt>
      <trkpt lat="45.32083" lon="4.66011">
        <ele>619.71</ele>
        <time>2020-05-21T13:41:13Z</time>
      </trkpt>
      <trkpt lat="45.32069" lon="4.65976">
        <ele>621.63</ele>
        <time>2020-05-21T13:41:25Z</time>
      </trkpt>
      <trkpt lat="45.32074" lon="4.65939">
        <ele>623.55</ele>
        <time>2020-05-21T13:41:35Z</time>
      </trkpt>
      <trkpt lat="45.32077" lon="4.65893">
        <ele>626.44</ele>
        <time>2020-05-21T13:41:47Z</time>
      </trkpt>
      <trkpt lat="45.32087" lon="4.65845">
        <ele>628.36</ele>
        <time>2020-05-21T13:42:02Z</time>
      </trkpt>
      <trkpt lat="45.32089" lon="4.65799">
        <ele>631.24</ele>
        <time>2020-05-21T13:42:16Z</time>
      </trkpt>
      <trkpt lat="45.32088" lon="4.65768">
        <ele>632.2</ele>
        <time>2020-05-21T13:42:24Z</time>
      </trkpt>
      <trkpt lat="45.32087" lon="4.65764">
        <ele>632.68</ele>
        <time>2020-05-21T13:42:25Z</time>
      </trkpt>
      <trkpt lat="45.32074" lon="4.65715">
        <ele>634.61</ele>
        <time>2020-05-21T13:42:38Z</time>
      </trkpt>
      <trkpt lat="45.3206" lon="4.65649">
        <ele>634.61</ele>
        <time>2020-05-21T13:42:54Z</time>
      </trkpt>
      <trkpt lat="45.3205" lon="4.65599">
        <ele>634.13</ele>
        <time>2020-05-21T13:43:04Z</time>
      </trkpt>
      <trkpt lat="45.32051" lon="4.65596">
        <ele>634.13</ele>
        <time>2020-05-21T13:43:05Z</time>
      </trkpt>
      <trkpt lat="45.32053" lon="4.65594">
        <ele>633.65</ele>
        <time>2020-05-21T13:43:06Z</time>
      </trkpt>
      <trkpt lat="45.32055" lon="4.65594">
        <ele>633.65</ele>
        <time>2020-05-21T13:43:07Z</time>
      </trkpt>
      <trkpt lat="45.32057" lon="4.65595">
        <ele>633.65</ele>
        <time>2020-05-21T13:43:08Z</time>
      </trkpt>
      <trkpt lat="45.32059" lon="4.65596">
        <ele>633.65</ele>
        <time>2020-05-21T13:43:09Z</time>
      </trkpt>
      <trkpt lat="45.32096" lon="4.6561">
        <ele>634.61</ele>
        <time>2020-05-21T13:43:23Z</time>
      </trkpt>
      <trkpt lat="45.32146" lon="4.65636">
        <ele>634.13</ele>
        <time>2020-05-21T13:43:40Z</time>
      </trkpt>
      <trkpt lat="45.32149" lon="4.65637">
        <ele>634.61</ele>
        <time>2020-05-21T13:43:51Z</time>
      </trkpt>
      <trkpt lat="45.32149" lon="4.65637">
        <ele>634.61</ele>
        <time>2020-05-21T13:44:09Z</time>
      </trkpt>
      <trkpt lat="45.3215" lon="4.65637">
        <ele>634.61</ele>
        <time>2020-05-21T13:44:27Z</time>
      </trkpt>
      <trkpt lat="45.3215" lon="4.65637">
        <ele>634.61</ele>
        <time>2020-05-21T13:44:39Z</time>
      </trkpt>
      <trkpt lat="45.32149" lon="4.65637">
        <ele>634.61</ele>
        <time>2020-05-21T13:45:05Z</time>
      </trkpt>
      <trkpt lat="45.32149" lon="4.65638">
        <ele>634.61</ele>
        <time>2020-05-21T13:45:34Z</time>
      </trkpt>
      <trkpt lat="45.32149" lon="4.65638">
        <ele>634.61</ele>
        <time>2020-05-21T13:45:58Z</time>
      </trkpt>
      <trkpt lat="45.32149" lon="4.65638">
        <ele>635.09</ele>
        <time>2020-05-21T13:46:27Z</time>
      </trkpt>
      <trkpt lat="45.32155" lon="4.6564">
        <ele>634.61</ele>
        <time>2020-05-21T13:46:35Z</time>
      </trkpt>
      <trkpt lat="45.32157" lon="4.65642">
        <ele>634.61</ele>
        <time>2020-05-21T13:46:36Z</time>
      </trkpt>
      <trkpt lat="45.32182" lon="4.65657">
        <ele>632.68</ele>
        <time>2020-05-21T13:46:44Z</time>
      </trkpt>
      <trkpt lat="45.32213" lon="4.65669">
        <ele>629.8</ele>
        <time>2020-05-21T13:46:50Z</time>
      </trkpt>
      <trkpt lat="45.3222" lon="4.65669">
        <ele>629.32</ele>
        <time>2020-05-21T13:46:51Z</time>
      </trkpt>
      <trkpt lat="45.32227" lon="4.65667">
        <ele>628.84</ele>
        <time>2020-05-21T13:46:52Z</time>
      </trkpt>
      <trkpt lat="45.32235" lon="4.65665">
        <ele>627.88</ele>
        <time>2020-05-21T13:46:53Z</time>
      </trkpt>
      <trkpt lat="45.32243" lon="4.65664">
        <ele>626.44</ele>
        <time>2020-05-21T13:46:54Z</time>
      </trkpt>
      <trkpt lat="45.32251" lon="4.65662">
        <ele>625.96</ele>
        <time>2020-05-21T13:46:55Z</time>
      </trkpt>
      <trkpt lat="45.32294" lon="4.65653">
        <ele>623.55</ele>
        <time>2020-05-21T13:47:00Z</time>
      </trkpt>
      <trkpt lat="45.32321" lon="4.65643">
        <ele>620.67</ele>
        <time>2020-05-21T13:47:03Z</time>
      </trkpt>
      <trkpt lat="45.3235" lon="4.65627">
        <ele>616.34</ele>
        <time>2020-05-21T13:47:06Z</time>
      </trkpt>
      <trkpt lat="45.3236" lon="4.65624">
        <ele>615.38</ele>
        <time>2020-05-21T13:47:07Z</time>
      </trkpt>
      <trkpt lat="45.32371" lon="4.65624">
        <ele>613.46</ele>
        <time>2020-05-21T13:47:08Z</time>
      </trkpt>
      <trkpt lat="45.32393" lon="4.65625">
        <ele>612.5</ele>
        <time>2020-05-21T13:47:10Z</time>
      </trkpt>
      <trkpt lat="45.32414" lon="4.65623">
        <ele>609.13</ele>
        <time>2020-05-21T13:47:12Z</time>
      </trkpt>
      <trkpt lat="45.32447" lon="4.65617">
        <ele>606.25</ele>
        <time>2020-05-21T13:47:15Z</time>
      </trkpt>
      <trkpt lat="45.32491" lon="4.65599">
        <ele>602.4</ele>
        <time>2020-05-21T13:47:19Z</time>
      </trkpt>
      <trkpt lat="45.32502" lon="4.65594">
        <ele>601.92</ele>
        <time>2020-05-21T13:47:20Z</time>
      </trkpt>
      <trkpt lat="45.32513" lon="4.65587">
        <ele>600.96</ele>
        <time>2020-05-21T13:47:21Z</time>
      </trkpt>
      <trkpt lat="45.32522" lon="4.65577">
        <ele>600</ele>
        <time>2020-05-21T13:47:22Z</time>
      </trkpt>
      <trkpt lat="45.32528" lon="4.65565">
        <ele>599.04</ele>
        <time>2020-05-21T13:47:23Z</time>
      </trkpt>
      <trkpt lat="45.32533" lon="4.65551">
        <ele>598.56</ele>
        <time>2020-05-21T13:47:24Z</time>
      </trkpt>
      <trkpt lat="45.32539" lon="4.65536">
        <ele>598.08</ele>
        <time>2020-05-21T13:47:25Z</time>
      </trkpt>
      <trkpt lat="45.32545" lon="4.65521">
        <ele>597.12</ele>
        <time>2020-05-21T13:47:26Z</time>
      </trkpt>
      <trkpt lat="45.32551" lon="4.65507">
        <ele>596.15</ele>
        <time>2020-05-21T13:47:27Z</time>
      </trkpt>
      <trkpt lat="45.32562" lon="4.65482">
        <ele>594.71</ele>
        <time>2020-05-21T13:47:29Z</time>
      </trkpt>
      <trkpt lat="45.32571" lon="4.65476">
        <ele>593.75</ele>
        <time>2020-05-21T13:47:30Z</time>
      </trkpt>
      <trkpt lat="45.3258" lon="4.65473">
        <ele>592.79</ele>
        <time>2020-05-21T13:47:31Z</time>
      </trkpt>
      <trkpt lat="45.32598" lon="4.65469">
        <ele>592.79</ele>
        <time>2020-05-21T13:47:33Z</time>
      </trkpt>
      <trkpt lat="45.32616" lon="4.65461">
        <ele>590.39</ele>
        <time>2020-05-21T13:47:35Z</time>
      </trkpt>
      <trkpt lat="45.32624" lon="4.6546">
        <ele>590.39</ele>
        <time>2020-05-21T13:47:36Z</time>
      </trkpt>
      <trkpt lat="45.32632" lon="4.65464">
        <ele>590.39</ele>
        <time>2020-05-21T13:47:37Z</time>
      </trkpt>
      <trkpt lat="45.32638" lon="4.65472">
        <ele>590.39</ele>
        <time>2020-05-21T13:47:38Z</time>
      </trkpt>
      <trkpt lat="45.32642" lon="4.65481">
        <ele>589.91</ele>
        <time>2020-05-21T13:47:39Z</time>
      </trkpt>
      <trkpt lat="45.32646" lon="4.65491">
        <ele>588.95</ele>
        <time>2020-05-21T13:47:40Z</time>
      </trkpt>
      <trkpt lat="45.32649" lon="4.65502">
        <ele>587.98</ele>
        <time>2020-05-21T13:47:41Z</time>
      </trkpt>
      <trkpt lat="45.32658" lon="4.65552">
        <ele>584.14</ele>
        <time>2020-05-21T13:47:45Z</time>
      </trkpt>
      <trkpt lat="45.32661" lon="4.65565">
        <ele>582.7</ele>
        <time>2020-05-21T13:47:46Z</time>
      </trkpt>
      <trkpt lat="45.32664" lon="4.65578">
        <ele>581.73</ele>
        <time>2020-05-21T13:47:47Z</time>
      </trkpt>
      <trkpt lat="45.32669" lon="4.65591">
        <ele>581.25</ele>
        <time>2020-05-21T13:47:48Z</time>
      </trkpt>
      <trkpt lat="45.32674" lon="4.65603">
        <ele>580.77</ele>
        <time>2020-05-21T13:47:49Z</time>
      </trkpt>
      <trkpt lat="45.3268" lon="4.65614">
        <ele>579.33</ele>
        <time>2020-05-21T13:47:50Z</time>
      </trkpt>
      <trkpt lat="45.327" lon="4.65646">
        <ele>576.45</ele>
        <time>2020-05-21T13:47:53Z</time>
      </trkpt>
      <trkpt lat="45.32725" lon="4.6567">
        <ele>574.53</ele>
        <time>2020-05-21T13:47:56Z</time>
      </trkpt>
      <trkpt lat="45.32734" lon="4.65675">
        <ele>573.56</ele>
        <time>2020-05-21T13:47:57Z</time>
      </trkpt>
      <trkpt lat="45.32754" lon="4.65686">
        <ele>569.72</ele>
        <time>2020-05-21T13:47:59Z</time>
      </trkpt>
      <trkpt lat="45.32764" lon="4.65693">
        <ele>569.24</ele>
        <time>2020-05-21T13:48:00Z</time>
      </trkpt>
      <trkpt lat="45.32773" lon="4.65703">
        <ele>568.28</ele>
        <time>2020-05-21T13:48:01Z</time>
      </trkpt>
      <trkpt lat="45.32798" lon="4.65734">
        <ele>565.39</ele>
        <time>2020-05-21T13:48:04Z</time>
      </trkpt>
      <trkpt lat="45.32805" lon="4.65746">
        <ele>564.43</ele>
        <time>2020-05-21T13:48:05Z</time>
      </trkpt>
      <trkpt lat="45.32811" lon="4.6576">
        <ele>563.47</ele>
        <time>2020-05-21T13:48:06Z</time>
      </trkpt>
      <trkpt lat="45.32827" lon="4.65805">
        <ele>560.59</ele>
        <time>2020-05-21T13:48:09Z</time>
      </trkpt>
      <trkpt lat="45.32837" lon="4.65837">
        <ele>559.14</ele>
        <time>2020-05-21T13:48:11Z</time>
      </trkpt>
      <trkpt lat="45.32843" lon="4.65851">
        <ele>558.18</ele>
        <time>2020-05-21T13:48:12Z</time>
      </trkpt>
      <trkpt lat="45.3285" lon="4.65863">
        <ele>556.74</ele>
        <time>2020-05-21T13:48:13Z</time>
      </trkpt>
      <trkpt lat="45.32858" lon="4.65875">
        <ele>556.26</ele>
        <time>2020-05-21T13:48:14Z</time>
      </trkpt>
      <trkpt lat="45.32868" lon="4.65883">
        <ele>555.3</ele>
        <time>2020-05-21T13:48:15Z</time>
      </trkpt>
      <trkpt lat="45.32878" lon="4.6589">
        <ele>553.86</ele>
        <time>2020-05-21T13:48:16Z</time>
      </trkpt>
      <trkpt lat="45.32888" lon="4.65894">
        <ele>552.9</ele>
        <time>2020-05-21T13:48:17Z</time>
      </trkpt>
      <trkpt lat="45.32899" lon="4.65899">
        <ele>551.45</ele>
        <time>2020-05-21T13:48:18Z</time>
      </trkpt>
      <trkpt lat="45.3291" lon="4.65906">
        <ele>550.97</ele>
        <time>2020-05-21T13:48:19Z</time>
      </trkpt>
      <trkpt lat="45.32921" lon="4.65915">
        <ele>550.01</ele>
        <time>2020-05-21T13:48:20Z</time>
      </trkpt>
      <trkpt lat="45.32931" lon="4.65924">
        <ele>548.09</ele>
        <time>2020-05-21T13:48:21Z</time>
      </trkpt>
      <trkpt lat="45.32941" lon="4.65933">
        <ele>547.61</ele>
        <time>2020-05-21T13:48:22Z</time>
      </trkpt>
      <trkpt lat="45.32951" lon="4.65941">
        <ele>547.13</ele>
        <time>2020-05-21T13:48:23Z</time>
      </trkpt>
      <trkpt lat="45.32969" lon="4.6596">
        <ele>543.76</ele>
        <time>2020-05-21T13:48:25Z</time>
      </trkpt>
      <trkpt lat="45.32977" lon="4.65971">
        <ele>541.84</ele>
        <time>2020-05-21T13:48:26Z</time>
      </trkpt>
      <trkpt lat="45.32985" lon="4.65982">
        <ele>539.92</ele>
        <time>2020-05-21T13:48:27Z</time>
      </trkpt>
      <trkpt lat="45.32992" lon="4.65994">
        <ele>539.92</ele>
        <time>2020-05-21T13:48:28Z</time>
      </trkpt>
      <trkpt lat="45.32998" lon="4.66008">
        <ele>538.96</ele>
        <time>2020-05-21T13:48:29Z</time>
      </trkpt>
      <trkpt lat="45.33003" lon="4.66023">
        <ele>538.48</ele>
        <time>2020-05-21T13:48:30Z</time>
      </trkpt>
      <trkpt lat="45.33008" lon="4.66038">
        <ele>537.03</ele>
        <time>2020-05-21T13:48:31Z</time>
      </trkpt>
      <trkpt lat="45.33018" lon="4.66067">
        <ele>536.07</ele>
        <time>2020-05-21T13:48:33Z</time>
      </trkpt>
      <trkpt lat="45.33061" lon="4.66158">
        <ele>537.51</ele>
        <time>2020-05-21T13:48:42Z</time>
      </trkpt>
      <trkpt lat="45.33084" lon="4.66211">
        <ele>537.99</ele>
        <time>2020-05-21T13:48:49Z</time>
      </trkpt>
      <trkpt lat="45.33087" lon="4.66217">
        <ele>537.99</ele>
        <time>2020-05-21T13:48:50Z</time>
      </trkpt>
      <trkpt lat="45.33131" lon="4.66295">
        <ele>539.44</ele>
        <time>2020-05-21T13:49:03Z</time>
      </trkpt>
      <trkpt lat="45.33154" lon="4.66326">
        <ele>536.07</ele>
        <time>2020-05-21T13:49:08Z</time>
      </trkpt>
      <trkpt lat="45.33178" lon="4.66355">
        <ele>532.71</ele>
        <time>2020-05-21T13:49:12Z</time>
      </trkpt>
      <trkpt lat="45.33205" lon="4.66384">
        <ele>529.34</ele>
        <time>2020-05-21T13:49:16Z</time>
      </trkpt>
      <trkpt lat="45.33238" lon="4.66414">
        <ele>525.5</ele>
        <time>2020-05-21T13:49:20Z</time>
      </trkpt>
      <trkpt lat="45.33305" lon="4.66475">
        <ele>524.06</ele>
        <time>2020-05-21T13:49:30Z</time>
      </trkpt>
      <trkpt lat="45.33314" lon="4.66493">
        <ele>523.09</ele>
        <time>2020-05-21T13:49:32Z</time>
      </trkpt>
      <trkpt lat="45.33318" lon="4.66502">
        <ele>522.61</ele>
        <time>2020-05-21T13:49:33Z</time>
      </trkpt>
      <trkpt lat="45.33331" lon="4.66531">
        <ele>521.17</ele>
        <time>2020-05-21T13:49:36Z</time>
      </trkpt>
      <trkpt lat="45.33337" lon="4.66538">
        <ele>521.17</ele>
        <time>2020-05-21T13:49:37Z</time>
      </trkpt>
      <trkpt lat="45.33369" lon="4.66563">
        <ele>520.21</ele>
        <time>2020-05-21T13:49:42Z</time>
      </trkpt>
      <trkpt lat="45.33382" lon="4.66569">
        <ele>519.73</ele>
        <time>2020-05-21T13:49:44Z</time>
      </trkpt>
      <trkpt lat="45.33388" lon="4.66573">
        <ele>518.77</ele>
        <time>2020-05-21T13:49:45Z</time>
      </trkpt>
      <trkpt lat="45.33392" lon="4.66579">
        <ele>518.77</ele>
        <time>2020-05-21T13:49:46Z</time>
      </trkpt>
      <trkpt lat="45.33395" lon="4.66586">
        <ele>518.29</ele>
        <time>2020-05-21T13:49:47Z</time>
      </trkpt>
      <trkpt lat="45.33395" lon="4.66593">
        <ele>518.29</ele>
        <time>2020-05-21T13:49:48Z</time>
      </trkpt>
      <trkpt lat="45.33395" lon="4.66599">
        <ele>518.29</ele>
        <time>2020-05-21T13:49:49Z</time>
      </trkpt>
      <trkpt lat="45.33392" lon="4.66638">
        <ele>514.44</ele>
        <time>2020-05-21T13:49:54Z</time>
      </trkpt>
      <trkpt lat="45.33391" lon="4.66648">
        <ele>513.48</ele>
        <time>2020-05-21T13:49:57Z</time>
      </trkpt>
      <trkpt lat="45.33388" lon="4.66648">
        <ele>513.48</ele>
        <time>2020-05-21T13:49:58Z</time>
      </trkpt>
      <trkpt lat="45.33385" lon="4.66648">
        <ele>513</ele>
        <time>2020-05-21T13:49:59Z</time>
      </trkpt>
      <trkpt lat="45.33383" lon="4.66649">
        <ele>512.52</ele>
        <time>2020-05-21T13:50:00Z</time>
      </trkpt>
      <trkpt lat="45.33382" lon="4.6665">
        <ele>512.04</ele>
        <time>2020-05-21T13:50:02Z</time>
      </trkpt>
      <trkpt lat="45.3338" lon="4.66652">
        <ele>511.56</ele>
        <time>2020-05-21T13:50:04Z</time>
      </trkpt>
      <trkpt lat="45.3338" lon="4.66654">
        <ele>511.56</ele>
        <time>2020-05-21T13:50:05Z</time>
      </trkpt>
      <trkpt lat="45.3338" lon="4.66657">
        <ele>511.56</ele>
        <time>2020-05-21T13:50:06Z</time>
      </trkpt>
      <trkpt lat="45.33381" lon="4.6666">
        <ele>511.08</ele>
        <time>2020-05-21T13:50:07Z</time>
      </trkpt>
      <trkpt lat="45.33382" lon="4.66662">
        <ele>510.6</ele>
        <time>2020-05-21T13:50:08Z</time>
      </trkpt>
      <trkpt lat="45.33384" lon="4.66665">
        <ele>510.12</ele>
        <time>2020-05-21T13:50:09Z</time>
      </trkpt>
      <trkpt lat="45.33386" lon="4.66666">
        <ele>510.12</ele>
        <time>2020-05-21T13:50:10Z</time>
      </trkpt>
      <trkpt lat="45.33388" lon="4.66668">
        <ele>510.12</ele>
        <time>2020-05-21T13:50:11Z</time>
      </trkpt>
      <trkpt lat="45.3339" lon="4.66669">
        <ele>510.12</ele>
        <time>2020-05-21T13:50:12Z</time>
      </trkpt>
      <trkpt lat="45.33393" lon="4.6667">
        <ele>509.64</ele>
        <time>2020-05-21T13:50:13Z</time>
      </trkpt>
      <trkpt lat="45.33396" lon="4.66672">
        <ele>509.64</ele>
        <time>2020-05-21T13:50:14Z</time>
      </trkpt>
      <trkpt lat="45.33399" lon="4.66673">
        <ele>509.16</ele>
        <time>2020-05-21T13:50:15Z</time>
      </trkpt>
      <trkpt lat="45.33425" lon="4.66683">
        <ele>509.64</ele>
        <time>2020-05-21T13:50:27Z</time>
      </trkpt>
      <trkpt lat="45.33425" lon="4.66685">
        <ele>509.16</ele>
        <time>2020-05-21T13:50:28Z</time>
      </trkpt>
      <trkpt lat="45.33423" lon="4.66685">
        <ele>509.16</ele>
        <time>2020-05-21T13:50:29Z</time>
      </trkpt>
      <trkpt lat="45.33422" lon="4.66684">
        <ele>509.16</ele>
        <time>2020-05-21T13:50:30Z</time>
      </trkpt>
      <trkpt lat="45.33422" lon="4.66682">
        <ele>509.64</ele>
        <time>2020-05-21T13:50:31Z</time>
      </trkpt>
      <trkpt lat="45.33423" lon="4.66681">
        <ele>509.64</ele>
        <time>2020-05-21T13:50:32Z</time>
      </trkpt>
      <trkpt lat="45.33424" lon="4.6668">
        <ele>509.64</ele>
        <time>2020-05-21T13:50:33Z</time>
      </trkpt>
      <trkpt lat="45.33425" lon="4.66679">
        <ele>509.64</ele>
        <time>2020-05-21T13:50:34Z</time>
      </trkpt>
      <trkpt lat="45.33426" lon="4.6668">
        <ele>509.16</ele>
        <time>2020-05-21T13:50:35Z</time>
      </trkpt>
      <trkpt lat="45.33427" lon="4.66682">
        <ele>509.64</ele>
        <time>2020-05-21T13:50:36Z</time>
      </trkpt>
      <trkpt lat="45.33425" lon="4.66685">
        <ele>509.64</ele>
        <time>2020-05-21T13:50:37Z</time>
      </trkpt>
      <trkpt lat="45.33423" lon="4.66686">
        <ele>509.16</ele>
        <time>2020-05-21T13:50:38Z</time>
      </trkpt>
      <trkpt lat="45.33422" lon="4.66685">
        <ele>509.16</ele>
        <time>2020-05-21T13:50:39Z</time>
      </trkpt>
      <trkpt lat="45.33421" lon="4.66683">
        <ele>509.16</ele>
        <time>2020-05-21T13:50:40Z</time>
      </trkpt>
      <trkpt lat="45.33421" lon="4.66681">
        <ele>509.16</ele>
        <time>2020-05-21T13:50:41Z</time>
      </trkpt>
      <trkpt lat="45.33422" lon="4.66679">
        <ele>509.64</ele>
        <time>2020-05-21T13:50:43Z</time>
      </trkpt>
      <trkpt lat="45.33423" lon="4.66679">
        <ele>509.64</ele>
        <time>2020-05-21T13:50:44Z</time>
      </trkpt>
      <trkpt lat="45.33425" lon="4.6668">
        <ele>509.64</ele>
        <time>2020-05-21T13:50:45Z</time>
      </trkpt>
      <trkpt lat="45.33425" lon="4.66683">
        <ele>509.16</ele>
        <time>2020-05-21T13:50:46Z</time>
      </trkpt>
      <trkpt lat="45.33424" lon="4.66685">
        <ele>509.16</ele>
        <time>2020-05-21T13:50:47Z</time>
      </trkpt>
      <trkpt lat="45.33422" lon="4.66685">
        <ele>509.16</ele>
        <time>2020-05-21T13:50:48Z</time>
      </trkpt>
      <trkpt lat="45.33421" lon="4.66683">
        <ele>509.16</ele>
        <time>2020-05-21T13:50:49Z</time>
      </trkpt>
      <trkpt lat="45.3342" lon="4.66681">
        <ele>509.16</ele>
        <time>2020-05-21T13:50:50Z</time>
      </trkpt>
      <trkpt lat="45.33421" lon="4.66679">
        <ele>509.16</ele>
        <time>2020-05-21T13:50:51Z</time>
      </trkpt>
      <trkpt lat="45.33423" lon="4.66677">
        <ele>509.64</ele>
        <time>2020-05-21T13:51:02Z</time>
      </trkpt>
      <trkpt lat="45.33424" lon="4.66674">
        <ele>510.12</ele>
        <time>2020-05-21T13:51:32Z</time>
      </trkpt>
      <trkpt lat="45.33423" lon="4.66676">
        <ele>509.64</ele>
        <time>2020-05-21T13:52:07Z</time>
      </trkpt>
      <trkpt lat="45.33423" lon="4.66677">
        <ele>509.64</ele>
        <time>2020-05-21T13:52:24Z</time>
      </trkpt>
      <trkpt lat="45.33424" lon="4.66677">
        <ele>509.16</ele>
        <time>2020-05-21T13:52:32Z</time>
      </trkpt>
      <trkpt lat="45.33425" lon="4.66678">
        <ele>509.16</ele>
        <time>2020-05-21T13:52:33Z</time>
      </trkpt>
      <trkpt lat="45.33427" lon="4.66679">
        <ele>509.16</ele>
        <time>2020-05-21T13:52:34Z</time>
      </trkpt>
      <trkpt lat="45.33429" lon="4.66679">
        <ele>509.16</ele>
        <time>2020-05-21T13:52:35Z</time>
      </trkpt>
      <trkpt lat="45.33432" lon="4.6668">
        <ele>508.67</ele>
        <time>2020-05-21T13:52:36Z</time>
      </trkpt>
      <trkpt lat="45.33436" lon="4.66679">
        <ele>508.67</ele>
        <time>2020-05-21T13:52:37Z</time>
      </trkpt>
      <trkpt lat="45.33439" lon="4.66679">
        <ele>507.71</ele>
        <time>2020-05-21T13:52:38Z</time>
      </trkpt>
      <trkpt lat="45.33458" lon="4.66674">
        <ele>503.39</ele>
        <time>2020-05-21T13:52:42Z</time>
      </trkpt>
      <trkpt lat="45.33471" lon="4.66667">
        <ele>501.46</ele>
        <time>2020-05-21T13:52:45Z</time>
      </trkpt>
      <trkpt lat="45.33474" lon="4.66662">
        <ele>500.98</ele>
        <time>2020-05-21T13:52:46Z</time>
      </trkpt>
      <trkpt lat="45.33476" lon="4.66656">
        <ele>500.02</ele>
        <time>2020-05-21T13:52:47Z</time>
      </trkpt>
      <trkpt lat="45.33483" lon="4.6662">
        <ele>496.66</ele>
        <time>2020-05-21T13:52:51Z</time>
      </trkpt>
      <trkpt lat="45.33487" lon="4.66611">
        <ele>496.18</ele>
        <time>2020-05-21T13:52:52Z</time>
      </trkpt>
      <trkpt lat="45.33503" lon="4.66569">
        <ele>492.81</ele>
        <time>2020-05-21T13:52:56Z</time>
      </trkpt>
      <trkpt lat="45.3351" lon="4.66545">
        <ele>492.33</ele>
        <time>2020-05-21T13:52:58Z</time>
      </trkpt>
      <trkpt lat="45.33516" lon="4.66516">
        <ele>491.85</ele>
        <time>2020-05-21T13:53:02Z</time>
      </trkpt>
      <trkpt lat="45.3352" lon="4.66514">
        <ele>491.37</ele>
        <time>2020-05-21T13:53:03Z</time>
      </trkpt>
      <trkpt lat="45.33524" lon="4.66516">
        <ele>490.89</ele>
        <time>2020-05-21T13:53:04Z</time>
      </trkpt>
      <trkpt lat="45.33527" lon="4.66522">
        <ele>489.93</ele>
        <time>2020-05-21T13:53:05Z</time>
      </trkpt>
      <trkpt lat="45.33528" lon="4.6653">
        <ele>488.49</ele>
        <time>2020-05-21T13:53:06Z</time>
      </trkpt>
      <trkpt lat="45.3353" lon="4.66538">
        <ele>487.53</ele>
        <time>2020-05-21T13:53:07Z</time>
      </trkpt>
      <trkpt lat="45.33536" lon="4.66576">
        <ele>484.16</ele>
        <time>2020-05-21T13:53:11Z</time>
      </trkpt>
      <trkpt lat="45.3354" lon="4.66581">
        <ele>483.2</ele>
        <time>2020-05-21T13:53:12Z</time>
      </trkpt>
      <trkpt lat="45.33545" lon="4.66581">
        <ele>483.2</ele>
        <time>2020-05-21T13:53:13Z</time>
      </trkpt>
      <trkpt lat="45.3355" lon="4.66577">
        <ele>482.72</ele>
        <time>2020-05-21T13:53:14Z</time>
      </trkpt>
      <trkpt lat="45.33554" lon="4.66572">
        <ele>481.76</ele>
        <time>2020-05-21T13:53:15Z</time>
      </trkpt>
      <trkpt lat="45.33559" lon="4.66565">
        <ele>480.8</ele>
        <time>2020-05-21T13:53:16Z</time>
      </trkpt>
      <trkpt lat="45.33564" lon="4.66558">
        <ele>479.84</ele>
        <time>2020-05-21T13:53:17Z</time>
      </trkpt>
      <trkpt lat="45.33569" lon="4.6655">
        <ele>478.87</ele>
        <time>2020-05-21T13:53:18Z</time>
      </trkpt>
      <trkpt lat="45.33574" lon="4.6654">
        <ele>478.39</ele>
        <time>2020-05-21T13:53:19Z</time>
      </trkpt>
      <trkpt lat="45.33578" lon="4.66528">
        <ele>476.95</ele>
        <time>2020-05-21T13:53:20Z</time>
      </trkpt>
      <trkpt lat="45.33582" lon="4.66515">
        <ele>475.51</ele>
        <time>2020-05-21T13:53:21Z</time>
      </trkpt>
      <trkpt lat="45.33586" lon="4.66502">
        <ele>474.07</ele>
        <time>2020-05-21T13:53:22Z</time>
      </trkpt>
      <trkpt lat="45.33588" lon="4.66488">
        <ele>472.14</ele>
        <time>2020-05-21T13:53:23Z</time>
      </trkpt>
      <trkpt lat="45.33593" lon="4.6646">
        <ele>468.3</ele>
        <time>2020-05-21T13:53:25Z</time>
      </trkpt>
      <trkpt lat="45.33599" lon="4.6643">
        <ele>464.93</ele>
        <time>2020-05-21T13:53:27Z</time>
      </trkpt>
      <trkpt lat="45.33607" lon="4.66384">
        <ele>461.57</ele>
        <time>2020-05-21T13:53:30Z</time>
      </trkpt>
      <trkpt lat="45.33612" lon="4.66337">
        <ele>458.21</ele>
        <time>2020-05-21T13:53:33Z</time>
      </trkpt>
      <trkpt lat="45.33615" lon="4.66306">
        <ele>456.28</ele>
        <time>2020-05-21T13:53:35Z</time>
      </trkpt>
      <trkpt lat="45.33622" lon="4.66276">
        <ele>453.88</ele>
        <time>2020-05-21T13:53:37Z</time>
      </trkpt>
      <trkpt lat="45.33631" lon="4.6625">
        <ele>451.48</ele>
        <time>2020-05-21T13:53:39Z</time>
      </trkpt>
      <trkpt lat="45.33633" lon="4.66238">
        <ele>450.52</ele>
        <time>2020-05-21T13:53:40Z</time>
      </trkpt>
      <trkpt lat="45.33635" lon="4.66225">
        <ele>449.55</ele>
        <time>2020-05-21T13:53:41Z</time>
      </trkpt>
      <trkpt lat="45.33636" lon="4.66211">
        <ele>448.59</ele>
        <time>2020-05-21T13:53:42Z</time>
      </trkpt>
      <trkpt lat="45.33639" lon="4.66198">
        <ele>447.63</ele>
        <time>2020-05-21T13:53:43Z</time>
      </trkpt>
      <trkpt lat="45.33644" lon="4.66186">
        <ele>446.19</ele>
        <time>2020-05-21T13:53:44Z</time>
      </trkpt>
      <trkpt lat="45.3365" lon="4.66176">
        <ele>445.23</ele>
        <time>2020-05-21T13:53:45Z</time>
      </trkpt>
      <trkpt lat="45.33658" lon="4.66167">
        <ele>443.79</ele>
        <time>2020-05-21T13:53:46Z</time>
      </trkpt>
      <trkpt lat="45.33667" lon="4.66159">
        <ele>441.86</ele>
        <time>2020-05-21T13:53:47Z</time>
      </trkpt>
      <trkpt lat="45.33674" lon="4.66149">
        <ele>440.9</ele>
        <time>2020-05-21T13:53:48Z</time>
      </trkpt>
      <trkpt lat="45.3368" lon="4.66137">
        <ele>440.42</ele>
        <time>2020-05-21T13:53:49Z</time>
      </trkpt>
      <trkpt lat="45.33684" lon="4.66123">
        <ele>439.94</ele>
        <time>2020-05-21T13:53:50Z</time>
      </trkpt>
      <trkpt lat="45.33687" lon="4.66109">
        <ele>439.46</ele>
        <time>2020-05-21T13:53:51Z</time>
      </trkpt>
      <trkpt lat="45.33697" lon="4.66065">
        <ele>436.1</ele>
        <time>2020-05-21T13:53:54Z</time>
      </trkpt>
      <trkpt lat="45.33709" lon="4.6602">
        <ele>432.73</ele>
        <time>2020-05-21T13:53:57Z</time>
      </trkpt>
      <trkpt lat="45.33715" lon="4.66007">
        <ele>431.77</ele>
        <time>2020-05-21T13:53:58Z</time>
      </trkpt>
      <trkpt lat="45.33728" lon="4.65983">
        <ele>428.4</ele>
        <time>2020-05-21T13:54:00Z</time>
      </trkpt>
      <trkpt lat="45.33734" lon="4.65974">
        <ele>427.92</ele>
        <time>2020-05-21T13:54:01Z</time>
      </trkpt>
      <trkpt lat="45.3374" lon="4.65967">
        <ele>426.96</ele>
        <time>2020-05-21T13:54:02Z</time>
      </trkpt>
      <trkpt lat="45.33748" lon="4.65962">
        <ele>426</ele>
        <time>2020-05-21T13:54:03Z</time>
      </trkpt>
      <trkpt lat="45.33773" lon="4.6595">
        <ele>422.64</ele>
        <time>2020-05-21T13:54:06Z</time>
      </trkpt>
      <trkpt lat="45.33783" lon="4.65944">
        <ele>422.16</ele>
        <time>2020-05-21T13:54:08Z</time>
      </trkpt>
      <trkpt lat="45.33785" lon="4.65942">
        <ele>422.64</ele>
        <time>2020-05-21T13:54:09Z</time>
      </trkpt>
      <trkpt lat="45.33786" lon="4.65938">
        <ele>422.64</ele>
        <time>2020-05-21T13:54:10Z</time>
      </trkpt>
      <trkpt lat="45.33785" lon="4.65935">
        <ele>422.16</ele>
        <time>2020-05-21T13:54:11Z</time>
      </trkpt>
      <trkpt lat="45.33756" lon="4.65888">
        <ele>420.23</ele>
        <time>2020-05-21T13:54:22Z</time>
      </trkpt>
      <trkpt lat="45.33711" lon="4.65816">
        <ele>419.27</ele>
        <time>2020-05-21T13:54:34Z</time>
      </trkpt>
      <trkpt lat="45.33709" lon="4.65809">
        <ele>417.83</ele>
        <time>2020-05-21T13:54:35Z</time>
      </trkpt>
      <trkpt lat="45.33709" lon="4.65801">
        <ele>417.83</ele>
        <time>2020-05-21T13:54:36Z</time>
      </trkpt>
      <trkpt lat="45.33709" lon="4.65793">
        <ele>417.83</ele>
        <time>2020-05-21T13:54:37Z</time>
      </trkpt>
      <trkpt lat="45.3371" lon="4.65785">
        <ele>417.83</ele>
        <time>2020-05-21T13:54:38Z</time>
      </trkpt>
      <trkpt lat="45.33713" lon="4.65778">
        <ele>418.31</ele>
        <time>2020-05-21T13:54:39Z</time>
      </trkpt>
      <trkpt lat="45.33716" lon="4.65773">
        <ele>418.31</ele>
        <time>2020-05-21T13:54:40Z</time>
      </trkpt>
      <trkpt lat="45.3372" lon="4.6577">
        <ele>418.79</ele>
        <time>2020-05-21T13:54:41Z</time>
      </trkpt>
      <trkpt lat="45.33723" lon="4.65769">
        <ele>418.79</ele>
        <time>2020-05-21T13:54:42Z</time>
      </trkpt>
      <trkpt lat="45.33727" lon="4.65767">
        <ele>419.27</ele>
        <time>2020-05-21T13:54:43Z</time>
      </trkpt>
      <trkpt lat="45.33731" lon="4.65766">
        <ele>419.27</ele>
        <time>2020-05-21T13:54:44Z</time>
      </trkpt>
      <trkpt lat="45.33734" lon="4.65766">
        <ele>419.75</ele>
        <time>2020-05-21T13:54:45Z</time>
      </trkpt>
      <trkpt lat="45.33736" lon="4.65767">
        <ele>419.75</ele>
        <time>2020-05-21T13:54:46Z</time>
      </trkpt>
      <trkpt lat="45.33739" lon="4.65769">
        <ele>420.23</ele>
        <time>2020-05-21T13:54:47Z</time>
      </trkpt>
      <trkpt lat="45.33742" lon="4.6577">
        <ele>420.23</ele>
        <time>2020-05-21T13:54:48Z</time>
      </trkpt>
      <trkpt lat="45.33745" lon="4.65772">
        <ele>420.23</ele>
        <time>2020-05-21T13:54:49Z</time>
      </trkpt>
      <trkpt lat="45.33784" lon="4.65788">
        <ele>423.12</ele>
        <time>2020-05-21T13:55:02Z</time>
      </trkpt>
      <trkpt lat="45.33813" lon="4.65761">
        <ele>425.52</ele>
        <time>2020-05-21T13:55:15Z</time>
      </trkpt>
      <trkpt lat="45.33835" lon="4.65712">
        <ele>428.4</ele>
        <time>2020-05-21T13:55:31Z</time>
      </trkpt>
      <trkpt lat="45.33854" lon="4.65684">
        <ele>430.33</ele>
        <time>2020-05-21T13:55:43Z</time>
      </trkpt>
      <trkpt lat="45.33867" lon="4.65663">
        <ele>431.77</ele>
        <time>2020-05-21T13:55:51Z</time>
      </trkpt>
      <trkpt lat="45.33888" lon="4.65626">
        <ele>433.69</ele>
        <time>2020-05-21T13:56:05Z</time>
      </trkpt>
      <trkpt lat="45.33902" lon="4.65587">
        <ele>435.61</ele>
        <time>2020-05-21T13:56:18Z</time>
      </trkpt>
      <trkpt lat="45.33915" lon="4.65559">
        <ele>437.06</ele>
        <time>2020-05-21T13:56:29Z</time>
      </trkpt>
      <trkpt lat="45.33917" lon="4.65558">
        <ele>437.54</ele>
        <time>2020-05-21T13:56:30Z</time>
      </trkpt>
      <trkpt lat="45.3392" lon="4.65559">
        <ele>437.06</ele>
        <time>2020-05-21T13:56:31Z</time>
      </trkpt>
      <trkpt lat="45.33923" lon="4.65558">
        <ele>437.06</ele>
        <time>2020-05-21T13:56:32Z</time>
      </trkpt>
      <trkpt lat="45.33927" lon="4.65556">
        <ele>436.58</ele>
        <time>2020-05-21T13:56:33Z</time>
      </trkpt>
      <trkpt lat="45.33932" lon="4.65553">
        <ele>435.61</ele>
        <time>2020-05-21T13:56:34Z</time>
      </trkpt>
      <trkpt lat="45.33937" lon="4.65547">
        <ele>434.65</ele>
        <time>2020-05-21T13:56:35Z</time>
      </trkpt>
      <trkpt lat="45.33942" lon="4.6554">
        <ele>433.69</ele>
        <time>2020-05-21T13:56:36Z</time>
      </trkpt>
      <trkpt lat="45.33947" lon="4.65533">
        <ele>432.73</ele>
        <time>2020-05-21T13:56:37Z</time>
      </trkpt>
      <trkpt lat="45.33953" lon="4.65529">
        <ele>431.77</ele>
        <time>2020-05-21T13:56:38Z</time>
      </trkpt>
      <trkpt lat="45.3396" lon="4.65527">
        <ele>431.29</ele>
        <time>2020-05-21T13:56:39Z</time>
      </trkpt>
      <trkpt lat="45.33966" lon="4.65529">
        <ele>430.33</ele>
        <time>2020-05-21T13:56:40Z</time>
      </trkpt>
      <trkpt lat="45.33972" lon="4.65532">
        <ele>430.33</ele>
        <time>2020-05-21T13:56:41Z</time>
      </trkpt>
      <trkpt lat="45.33978" lon="4.65536">
        <ele>430.33</ele>
        <time>2020-05-21T13:56:42Z</time>
      </trkpt>
      <trkpt lat="45.33982" lon="4.6554">
        <ele>430.33</ele>
        <time>2020-05-21T13:56:43Z</time>
      </trkpt>
      <trkpt lat="45.33986" lon="4.65545">
        <ele>431.29</ele>
        <time>2020-05-21T13:56:44Z</time>
      </trkpt>
      <trkpt lat="45.3399" lon="4.65549">
        <ele>431.77</ele>
        <time>2020-05-21T13:56:45Z</time>
      </trkpt>
      <trkpt lat="45.34007" lon="4.65561">
        <ele>434.17</ele>
        <time>2020-05-21T13:56:54Z</time>
      </trkpt>
      <trkpt lat="45.3401" lon="4.65559">
        <ele>434.65</ele>
        <time>2020-05-21T13:56:57Z</time>
      </trkpt>
      <trkpt lat="45.34012" lon="4.65558">
        <ele>435.13</ele>
        <time>2020-05-21T13:56:59Z</time>
      </trkpt>
      <trkpt lat="45.34015" lon="4.65556">
        <ele>436.1</ele>
        <time>2020-05-21T13:57:02Z</time>
      </trkpt>
      <trkpt lat="45.34016" lon="4.65554">
        <ele>436.58</ele>
        <time>2020-05-21T13:57:03Z</time>
      </trkpt>
      <trkpt lat="45.34025" lon="4.65539">
        <ele>439.46</ele>
        <time>2020-05-21T13:57:15Z</time>
      </trkpt>
      <trkpt lat="45.34037" lon="4.65522">
        <ele>442.82</ele>
        <time>2020-05-21T13:57:27Z</time>
      </trkpt>
      <trkpt lat="45.34053" lon="4.65503">
        <ele>445.71</ele>
        <time>2020-05-21T13:57:42Z</time>
      </trkpt>
      <trkpt lat="45.34073" lon="4.65485">
        <ele>448.11</ele>
        <time>2020-05-21T13:57:58Z</time>
      </trkpt>
      <trkpt lat="45.34085" lon="4.65473">
        <ele>451</ele>
        <time>2020-05-21T13:58:10Z</time>
      </trkpt>
      <trkpt lat="45.34096" lon="4.65468">
        <ele>452.92</ele>
        <time>2020-05-21T13:58:18Z</time>
      </trkpt>
      <trkpt lat="45.34097" lon="4.65468">
        <ele>452.92</ele>
        <time>2020-05-21T13:58:19Z</time>
      </trkpt>
      <trkpt lat="45.34098" lon="4.65468">
        <ele>453.4</ele>
        <time>2020-05-21T13:58:20Z</time>
      </trkpt>
      <trkpt lat="45.341" lon="4.65467">
        <ele>453.4</ele>
        <time>2020-05-21T13:58:21Z</time>
      </trkpt>
      <trkpt lat="45.34101" lon="4.65466">
        <ele>453.88</ele>
        <time>2020-05-21T13:58:22Z</time>
      </trkpt>
      <trkpt lat="45.34103" lon="4.65465">
        <ele>453.88</ele>
        <time>2020-05-21T13:58:23Z</time>
      </trkpt>
      <trkpt lat="45.34119" lon="4.65458">
        <ele>456.28</ele>
        <time>2020-05-21T13:58:37Z</time>
      </trkpt>
      <trkpt lat="45.34127" lon="4.65456">
        <ele>458.21</ele>
        <time>2020-05-21T13:58:43Z</time>
      </trkpt>
      <trkpt lat="45.34128" lon="4.65456">
        <ele>458.21</ele>
        <time>2020-05-21T13:58:44Z</time>
      </trkpt>
      <trkpt lat="45.34129" lon="4.65456">
        <ele>458.69</ele>
        <time>2020-05-21T13:58:45Z</time>
      </trkpt>
      <trkpt lat="45.34131" lon="4.65455">
        <ele>459.65</ele>
        <time>2020-05-21T13:58:47Z</time>
      </trkpt>
      <trkpt lat="45.34133" lon="4.65454">
        <ele>459.65</ele>
        <time>2020-05-21T13:58:48Z</time>
      </trkpt>
      <trkpt lat="45.34134" lon="4.65454">
        <ele>460.13</ele>
        <time>2020-05-21T13:58:49Z</time>
      </trkpt>
      <trkpt lat="45.34135" lon="4.65453">
        <ele>460.13</ele>
        <time>2020-05-21T13:58:50Z</time>
      </trkpt>
      <trkpt lat="45.34137" lon="4.65452">
        <ele>460.13</ele>
        <time>2020-05-21T13:58:51Z</time>
      </trkpt>
      <trkpt lat="45.34138" lon="4.65451">
        <ele>460.13</ele>
        <time>2020-05-21T13:58:52Z</time>
      </trkpt>
      <trkpt lat="45.34139" lon="4.65449">
        <ele>460.61</ele>
        <time>2020-05-21T13:58:53Z</time>
      </trkpt>
      <trkpt lat="45.34145" lon="4.65441">
        <ele>461.09</ele>
        <time>2020-05-21T13:59:01Z</time>
      </trkpt>
      <trkpt lat="45.34146" lon="4.65438">
        <ele>461.57</ele>
        <time>2020-05-21T13:59:03Z</time>
      </trkpt>
      <trkpt lat="45.34147" lon="4.65437">
        <ele>461.57</ele>
        <time>2020-05-21T13:59:04Z</time>
      </trkpt>
      <trkpt lat="45.34148" lon="4.65436">
        <ele>462.05</ele>
        <time>2020-05-21T13:59:05Z</time>
      </trkpt>
      <trkpt lat="45.34149" lon="4.65435">
        <ele>462.53</ele>
        <time>2020-05-21T13:59:06Z</time>
      </trkpt>
      <trkpt lat="45.3415" lon="4.65434">
        <ele>462.53</ele>
        <time>2020-05-21T13:59:07Z</time>
      </trkpt>
      <trkpt lat="45.3415" lon="4.65433">
        <ele>462.53</ele>
        <time>2020-05-21T13:59:08Z</time>
      </trkpt>
      <trkpt lat="45.34151" lon="4.65432">
        <ele>462.53</ele>
        <time>2020-05-21T13:59:09Z</time>
      </trkpt>
      <trkpt lat="45.34167" lon="4.65411">
        <ele>464.93</ele>
        <time>2020-05-21T13:59:25Z</time>
      </trkpt>
      <trkpt lat="45.34175" lon="4.654">
        <ele>466.38</ele>
        <time>2020-05-21T13:59:33Z</time>
      </trkpt>
      <trkpt lat="45.34176" lon="4.65398">
        <ele>466.86</ele>
        <time>2020-05-21T13:59:34Z</time>
      </trkpt>
      <trkpt lat="45.34189" lon="4.65376">
        <ele>470.22</ele>
        <time>2020-05-21T13:59:48Z</time>
      </trkpt>
      <trkpt lat="45.34192" lon="4.6537">
        <ele>470.22</ele>
        <time>2020-05-21T14:00:01Z</time>
      </trkpt>
      <trkpt lat="45.3419" lon="4.65369">
        <ele>470.7</ele>
        <time>2020-05-21T14:00:27Z</time>
      </trkpt>
      <trkpt lat="45.34189" lon="4.65369">
        <ele>470.22</ele>
        <time>2020-05-21T14:00:58Z</time>
      </trkpt>
      <trkpt lat="45.34188" lon="4.65369">
        <ele>470.22</ele>
        <time>2020-05-21T14:01:28Z</time>
      </trkpt>
      <trkpt lat="45.3419" lon="4.65369">
        <ele>469.74</ele>
        <time>2020-05-21T14:01:54Z</time>
      </trkpt>
      <trkpt lat="45.34191" lon="4.65369">
        <ele>470.22</ele>
        <time>2020-05-21T14:02:18Z</time>
      </trkpt>
      <trkpt lat="45.34193" lon="4.6537">
        <ele>469.74</ele>
        <time>2020-05-21T14:02:34Z</time>
      </trkpt>
      <trkpt lat="45.34194" lon="4.65372">
        <ele>469.74</ele>
        <time>2020-05-21T14:02:35Z</time>
      </trkpt>
      <trkpt lat="45.34194" lon="4.65374">
        <ele>469.26</ele>
        <time>2020-05-21T14:02:36Z</time>
      </trkpt>
      <trkpt lat="45.34195" lon="4.65377">
        <ele>468.78</ele>
        <time>2020-05-21T14:02:37Z</time>
      </trkpt>
      <trkpt lat="45.34196" lon="4.65381">
        <ele>468.78</ele>
        <time>2020-05-21T14:02:38Z</time>
      </trkpt>
      <trkpt lat="45.34197" lon="4.65385">
        <ele>468.78</ele>
        <time>2020-05-21T14:02:39Z</time>
      </trkpt>
      <trkpt lat="45.34199" lon="4.65389">
        <ele>468.78</ele>
        <time>2020-05-21T14:02:40Z</time>
      </trkpt>
      <trkpt lat="45.34201" lon="4.65392">
        <ele>468.3</ele>
        <time>2020-05-21T14:02:41Z</time>
      </trkpt>
      <trkpt lat="45.34204" lon="4.65395">
        <ele>467.82</ele>
        <time>2020-05-21T14:02:42Z</time>
      </trkpt>
      <trkpt lat="45.34213" lon="4.65407">
        <ele>466.86</ele>
        <time>2020-05-21T14:02:45Z</time>
      </trkpt>
      <trkpt lat="45.34216" lon="4.65412">
        <ele>466.86</ele>
        <time>2020-05-21T14:02:46Z</time>
      </trkpt>
      <trkpt lat="45.34219" lon="4.65417">
        <ele>466.38</ele>
        <time>2020-05-21T14:02:47Z</time>
      </trkpt>
      <trkpt lat="45.34222" lon="4.65423">
        <ele>465.9</ele>
        <time>2020-05-21T14:02:48Z</time>
      </trkpt>
      <trkpt lat="45.34225" lon="4.65429">
        <ele>465.9</ele>
        <time>2020-05-21T14:02:49Z</time>
      </trkpt>
      <trkpt lat="45.34227" lon="4.65436">
        <ele>466.38</ele>
        <time>2020-05-21T14:02:50Z</time>
      </trkpt>
      <trkpt lat="45.34238" lon="4.65461">
        <ele>464.45</ele>
        <time>2020-05-21T14:02:54Z</time>
      </trkpt>
      <trkpt lat="45.34241" lon="4.65467">
        <ele>463.97</ele>
        <time>2020-05-21T14:02:55Z</time>
      </trkpt>
      <trkpt lat="45.34245" lon="4.65472">
        <ele>463.49</ele>
        <time>2020-05-21T14:02:56Z</time>
      </trkpt>
      <trkpt lat="45.34258" lon="4.65489">
        <ele>462.53</ele>
        <time>2020-05-21T14:02:59Z</time>
      </trkpt>
      <trkpt lat="45.34274" lon="4.65503">
        <ele>461.57</ele>
        <time>2020-05-21T14:03:02Z</time>
      </trkpt>
      <trkpt lat="45.34279" lon="4.65505">
        <ele>461.57</ele>
        <time>2020-05-21T14:03:03Z</time>
      </trkpt>
      <trkpt lat="45.34285" lon="4.65507">
        <ele>461.09</ele>
        <time>2020-05-21T14:03:04Z</time>
      </trkpt>
      <trkpt lat="45.3436" lon="4.65521">
        <ele>460.61</ele>
        <time>2020-05-21T14:03:19Z</time>
      </trkpt>
      <trkpt lat="45.34439" lon="4.65546">
        <ele>458.21</ele>
        <time>2020-05-21T14:03:34Z</time>
      </trkpt>
      <trkpt lat="45.34462" lon="4.65553">
        <ele>458.69</ele>
        <time>2020-05-21T14:03:40Z</time>
      </trkpt>
      <trkpt lat="45.34463" lon="4.65556">
        <ele>458.21</ele>
        <time>2020-05-21T14:03:41Z</time>
      </trkpt>
      <trkpt lat="45.34464" lon="4.65559">
        <ele>457.72</ele>
        <time>2020-05-21T14:03:42Z</time>
      </trkpt>
      <trkpt lat="45.34466" lon="4.65563">
        <ele>457.72</ele>
        <time>2020-05-21T14:03:43Z</time>
      </trkpt>
      <trkpt lat="45.34468" lon="4.65568">
        <ele>457.24</ele>
        <time>2020-05-21T14:03:44Z</time>
      </trkpt>
      <trkpt lat="45.3447" lon="4.65573">
        <ele>457.24</ele>
        <time>2020-05-21T14:03:45Z</time>
      </trkpt>
      <trkpt lat="45.34472" lon="4.65579">
        <ele>456.76</ele>
        <time>2020-05-21T14:03:46Z</time>
      </trkpt>
      <trkpt lat="45.34475" lon="4.65583">
        <ele>456.28</ele>
        <time>2020-05-21T14:03:47Z</time>
      </trkpt>
      <trkpt lat="45.34478" lon="4.65585">
        <ele>455.8</ele>
        <time>2020-05-21T14:03:48Z</time>
      </trkpt>
      <trkpt lat="45.3448" lon="4.65588">
        <ele>456.28</ele>
        <time>2020-05-21T14:03:49Z</time>
      </trkpt>
      <trkpt lat="45.34483" lon="4.65591">
        <ele>455.8</ele>
        <time>2020-05-21T14:03:50Z</time>
      </trkpt>
      <trkpt lat="45.34487" lon="4.65593">
        <ele>454.36</ele>
        <time>2020-05-21T14:03:51Z</time>
      </trkpt>
      <trkpt lat="45.34492" lon="4.65594">
        <ele>453.88</ele>
        <time>2020-05-21T14:03:52Z</time>
      </trkpt>
      <trkpt lat="45.34497" lon="4.65592">
        <ele>453.88</ele>
        <time>2020-05-21T14:03:53Z</time>
      </trkpt>
      <trkpt lat="45.34501" lon="4.65589">
        <ele>454.36</ele>
        <time>2020-05-21T14:03:54Z</time>
      </trkpt>
      <trkpt lat="45.34504" lon="4.65585">
        <ele>454.36</ele>
        <time>2020-05-21T14:03:55Z</time>
      </trkpt>
      <trkpt lat="45.34508" lon="4.65582">
        <ele>454.36</ele>
        <time>2020-05-21T14:03:56Z</time>
      </trkpt>
      <trkpt lat="45.34512" lon="4.6558">
        <ele>454.84</ele>
        <time>2020-05-21T14:03:57Z</time>
      </trkpt>
      <trkpt lat="45.34516" lon="4.65578">
        <ele>454.84</ele>
        <time>2020-05-21T14:03:58Z</time>
      </trkpt>
      <trkpt lat="45.34533" lon="4.6557">
        <ele>454.84</ele>
        <time>2020-05-21T14:04:02Z</time>
      </trkpt>
      <trkpt lat="45.34541" lon="4.65562">
        <ele>453.4</ele>
        <time>2020-05-21T14:04:04Z</time>
      </trkpt>
      <trkpt lat="45.34561" lon="4.6554">
        <ele>451.96</ele>
        <time>2020-05-21T14:04:08Z</time>
      </trkpt>
      <trkpt lat="45.34566" lon="4.65536">
        <ele>451.48</ele>
        <time>2020-05-21T14:04:09Z</time>
      </trkpt>
      <trkpt lat="45.34578" lon="4.65531">
        <ele>451.96</ele>
        <time>2020-05-21T14:04:11Z</time>
      </trkpt>
      <trkpt lat="45.34583" lon="4.6553">
        <ele>452.44</ele>
        <time>2020-05-21T14:04:12Z</time>
      </trkpt>
      <trkpt lat="45.34614" lon="4.65526">
        <ele>454.84</ele>
        <time>2020-05-21T14:04:19Z</time>
      </trkpt>
      <trkpt lat="45.34663" lon="4.65533">
        <ele>456.76</ele>
        <time>2020-05-21T14:04:34Z</time>
      </trkpt>
      <trkpt lat="45.347" lon="4.65545">
        <ele>460.13</ele>
        <time>2020-05-21T14:04:49Z</time>
      </trkpt>
      <trkpt lat="45.34727" lon="4.65535">
        <ele>463.01</ele>
        <time>2020-05-21T14:05:01Z</time>
      </trkpt>
      <trkpt lat="45.34759" lon="4.65515">
        <ele>466.38</ele>
        <time>2020-05-21T14:05:16Z</time>
      </trkpt>
      <trkpt lat="45.34795" lon="4.65492">
        <ele>468.78</ele>
        <time>2020-05-21T14:05:32Z</time>
      </trkpt>
      <trkpt lat="45.34824" lon="4.65484">
        <ele>471.66</ele>
        <time>2020-05-21T14:05:45Z</time>
      </trkpt>
      <trkpt lat="45.3485" lon="4.65479">
        <ele>474.07</ele>
        <time>2020-05-21T14:05:58Z</time>
      </trkpt>
      <trkpt lat="45.34885" lon="4.65476">
        <ele>476.95</ele>
        <time>2020-05-21T14:06:14Z</time>
      </trkpt>
      <trkpt lat="45.34919" lon="4.65487">
        <ele>479.35</ele>
        <time>2020-05-21T14:06:28Z</time>
      </trkpt>
      <trkpt lat="45.34952" lon="4.65502">
        <ele>480.32</ele>
        <time>2020-05-21T14:06:41Z</time>
      </trkpt>
      <trkpt lat="45.34988" lon="4.6554">
        <ele>482.24</ele>
        <time>2020-05-21T14:06:57Z</time>
      </trkpt>
      <trkpt lat="45.35029" lon="4.65538">
        <ele>480.8</ele>
        <time>2020-05-21T14:07:10Z</time>
      </trkpt>
      <trkpt lat="45.35034" lon="4.65536">
        <ele>480.8</ele>
        <time>2020-05-21T14:07:11Z</time>
      </trkpt>
      <trkpt lat="45.35037" lon="4.65533">
        <ele>481.28</ele>
        <time>2020-05-21T14:07:12Z</time>
      </trkpt>
      <trkpt lat="45.3504" lon="4.6553">
        <ele>481.28</ele>
        <time>2020-05-21T14:07:13Z</time>
      </trkpt>
      <trkpt lat="45.35043" lon="4.65526">
        <ele>481.28</ele>
        <time>2020-05-21T14:07:14Z</time>
      </trkpt>
      <trkpt lat="45.35045" lon="4.65522">
        <ele>481.28</ele>
        <time>2020-05-21T14:07:15Z</time>
      </trkpt>
      <trkpt lat="45.35048" lon="4.65518">
        <ele>481.28</ele>
        <time>2020-05-21T14:07:16Z</time>
      </trkpt>
      <trkpt lat="45.3505" lon="4.65515">
        <ele>482.24</ele>
        <time>2020-05-21T14:07:17Z</time>
      </trkpt>
      <trkpt lat="45.3506" lon="4.65506">
        <ele>483.2</ele>
        <time>2020-05-21T14:07:21Z</time>
      </trkpt>
      <trkpt lat="45.35063" lon="4.65507">
        <ele>483.68</ele>
        <time>2020-05-21T14:07:22Z</time>
      </trkpt>
      <trkpt lat="45.35066" lon="4.65508">
        <ele>483.2</ele>
        <time>2020-05-21T14:07:23Z</time>
      </trkpt>
      <trkpt lat="45.35068" lon="4.65511">
        <ele>483.2</ele>
        <time>2020-05-21T14:07:24Z</time>
      </trkpt>
      <trkpt lat="45.3507" lon="4.65514">
        <ele>482.72</ele>
        <time>2020-05-21T14:07:25Z</time>
      </trkpt>
      <trkpt lat="45.35101" lon="4.65561">
        <ele>479.84</ele>
        <time>2020-05-21T14:07:35Z</time>
      </trkpt>
      <trkpt lat="45.35115" lon="4.65587">
        <ele>478.87</ele>
        <time>2020-05-21T14:07:39Z</time>
      </trkpt>
      <trkpt lat="45.35132" lon="4.65625">
        <ele>478.39</ele>
        <time>2020-05-21T14:07:45Z</time>
      </trkpt>
      <trkpt lat="45.35135" lon="4.65629">
        <ele>478.87</ele>
        <time>2020-05-21T14:07:46Z</time>
      </trkpt>
      <trkpt lat="45.35138" lon="4.65634">
        <ele>478.87</ele>
        <time>2020-05-21T14:07:47Z</time>
      </trkpt>
      <trkpt lat="45.35141" lon="4.65638">
        <ele>478.87</ele>
        <time>2020-05-21T14:07:48Z</time>
      </trkpt>
      <trkpt lat="45.35144" lon="4.65642">
        <ele>478.87</ele>
        <time>2020-05-21T14:07:49Z</time>
      </trkpt>
      <trkpt lat="45.35148" lon="4.65645">
        <ele>479.35</ele>
        <time>2020-05-21T14:07:50Z</time>
      </trkpt>
      <trkpt lat="45.35155" lon="4.6565">
        <ele>480.32</ele>
        <time>2020-05-21T14:07:52Z</time>
      </trkpt>
      <trkpt lat="45.35168" lon="4.65657">
        <ele>482.24</ele>
        <time>2020-05-21T14:07:57Z</time>
      </trkpt>
      <trkpt lat="45.35199" lon="4.65671">
        <ele>485.6</ele>
        <time>2020-05-21T14:08:10Z</time>
      </trkpt>
      <trkpt lat="45.35232" lon="4.65692">
        <ele>488.01</ele>
        <time>2020-05-21T14:08:26Z</time>
      </trkpt>
      <trkpt lat="45.3526" lon="4.6572">
        <ele>491.37</ele>
        <time>2020-05-21T14:08:41Z</time>
      </trkpt>
      <trkpt lat="45.35276" lon="4.65743">
        <ele>494.74</ele>
        <time>2020-05-21T14:08:53Z</time>
      </trkpt>
      <trkpt lat="45.35294" lon="4.65773">
        <ele>497.14</ele>
        <time>2020-05-21T14:09:06Z</time>
      </trkpt>
      <trkpt lat="45.3532" lon="4.6582">
        <ele>498.58</ele>
        <time>2020-05-21T14:09:23Z</time>
      </trkpt>
      <trkpt lat="45.35362" lon="4.65867">
        <ele>498.58</ele>
        <time>2020-05-21T14:09:39Z</time>
      </trkpt>
      <trkpt lat="45.35407" lon="4.65909">
        <ele>500.98</ele>
        <time>2020-05-21T14:09:56Z</time>
      </trkpt>
      <trkpt lat="45.35451" lon="4.65933">
        <ele>502.43</ele>
        <time>2020-05-21T14:10:11Z</time>
      </trkpt>
      <trkpt lat="45.35488" lon="4.65964">
        <ele>500.98</ele>
        <time>2020-05-21T14:10:23Z</time>
      </trkpt>
      <trkpt lat="45.35561" lon="4.66008">
        <ele>500.02</ele>
        <time>2020-05-21T14:10:40Z</time>
      </trkpt>
      <trkpt lat="45.35632" lon="4.66051">
        <ele>500.02</ele>
        <time>2020-05-21T14:10:56Z</time>
      </trkpt>
      <trkpt lat="45.35708" lon="4.6609">
        <ele>500.5</ele>
        <time>2020-05-21T14:11:14Z</time>
      </trkpt>
      <trkpt lat="45.35754" lon="4.66104">
        <ele>501.95</ele>
        <time>2020-05-21T14:11:27Z</time>
      </trkpt>
      <trkpt lat="45.35795" lon="4.66121">
        <ele>505.31</ele>
        <time>2020-05-21T14:11:40Z</time>
      </trkpt>
      <trkpt lat="45.35835" lon="4.66146">
        <ele>508.19</ele>
        <time>2020-05-21T14:11:54Z</time>
      </trkpt>
      <trkpt lat="45.3587" lon="4.66182">
        <ele>507.71</ele>
        <time>2020-05-21T14:12:07Z</time>
      </trkpt>
      <trkpt lat="45.35884" lon="4.66207">
        <ele>507.23</ele>
        <time>2020-05-21T14:12:12Z</time>
      </trkpt>
      <trkpt lat="45.35887" lon="4.66211">
        <ele>507.23</ele>
        <time>2020-05-21T14:12:13Z</time>
      </trkpt>
      <trkpt lat="45.35891" lon="4.66216">
        <ele>507.23</ele>
        <time>2020-05-21T14:12:14Z</time>
      </trkpt>
      <trkpt lat="45.35952" lon="4.66277">
        <ele>507.23</ele>
        <time>2020-05-21T14:12:30Z</time>
      </trkpt>
      <trkpt lat="45.35975" lon="4.66303">
        <ele>505.31</ele>
        <time>2020-05-21T14:12:36Z</time>
      </trkpt>
      <trkpt lat="45.35989" lon="4.66322">
        <ele>503.87</ele>
        <time>2020-05-21T14:12:39Z</time>
      </trkpt>
      <trkpt lat="45.35994" lon="4.66329">
        <ele>503.39</ele>
        <time>2020-05-21T14:12:40Z</time>
      </trkpt>
      <trkpt lat="45.35998" lon="4.66337">
        <ele>502.91</ele>
        <time>2020-05-21T14:12:41Z</time>
      </trkpt>
      <trkpt lat="45.36028" lon="4.66404">
        <ele>500.02</ele>
        <time>2020-05-21T14:12:49Z</time>
      </trkpt>
      <trkpt lat="45.36041" lon="4.66427">
        <ele>498.1</ele>
        <time>2020-05-21T14:12:52Z</time>
      </trkpt>
      <trkpt lat="45.36046" lon="4.66433">
        <ele>498.1</ele>
        <time>2020-05-21T14:12:53Z</time>
      </trkpt>
      <trkpt lat="45.36052" lon="4.66438">
        <ele>496.66</ele>
        <time>2020-05-21T14:12:54Z</time>
      </trkpt>
      <trkpt lat="45.3607" lon="4.6645">
        <ele>496.18</ele>
        <time>2020-05-21T14:12:57Z</time>
      </trkpt>
      <trkpt lat="45.36076" lon="4.66451">
        <ele>496.18</ele>
        <time>2020-05-21T14:12:58Z</time>
      </trkpt>
      <trkpt lat="45.36082" lon="4.66449">
        <ele>497.14</ele>
        <time>2020-05-21T14:12:59Z</time>
      </trkpt>
      <trkpt lat="45.36086" lon="4.66445">
        <ele>497.14</ele>
        <time>2020-05-21T14:13:00Z</time>
      </trkpt>
      <trkpt lat="45.36089" lon="4.66439">
        <ele>496.18</ele>
        <time>2020-05-21T14:13:01Z</time>
      </trkpt>
      <trkpt lat="45.36091" lon="4.66432">
        <ele>495.7</ele>
        <time>2020-05-21T14:13:02Z</time>
      </trkpt>
      <trkpt lat="45.36119" lon="4.66357">
        <ele>492.81</ele>
        <time>2020-05-21T14:13:10Z</time>
      </trkpt>
      <trkpt lat="45.36124" lon="4.6635">
        <ele>492.81</ele>
        <time>2020-05-21T14:13:11Z</time>
      </trkpt>
      <trkpt lat="45.3613" lon="4.66345">
        <ele>492.81</ele>
        <time>2020-05-21T14:13:12Z</time>
      </trkpt>
      <trkpt lat="45.36136" lon="4.66344">
        <ele>492.81</ele>
        <time>2020-05-21T14:13:13Z</time>
      </trkpt>
      <trkpt lat="45.36142" lon="4.66346">
        <ele>493.29</ele>
        <time>2020-05-21T14:13:14Z</time>
      </trkpt>
      <trkpt lat="45.36147" lon="4.6635">
        <ele>493.77</ele>
        <time>2020-05-21T14:13:15Z</time>
      </trkpt>
      <trkpt lat="45.36151" lon="4.66354">
        <ele>494.26</ele>
        <time>2020-05-21T14:13:16Z</time>
      </trkpt>
      <trkpt lat="45.36153" lon="4.6636">
        <ele>494.26</ele>
        <time>2020-05-21T14:13:17Z</time>
      </trkpt>
      <trkpt lat="45.36155" lon="4.66365">
        <ele>494.74</ele>
        <time>2020-05-21T14:13:18Z</time>
      </trkpt>
      <trkpt lat="45.36155" lon="4.66371">
        <ele>494.74</ele>
        <time>2020-05-21T14:13:19Z</time>
      </trkpt>
      <trkpt lat="45.36155" lon="4.66377">
        <ele>495.22</ele>
        <time>2020-05-21T14:13:20Z</time>
      </trkpt>
      <trkpt lat="45.36156" lon="4.66383">
        <ele>495.7</ele>
        <time>2020-05-21T14:13:21Z</time>
      </trkpt>
      <trkpt lat="45.36157" lon="4.66388">
        <ele>495.7</ele>
        <time>2020-05-21T14:13:22Z</time>
      </trkpt>
      <trkpt lat="45.36159" lon="4.66393">
        <ele>496.18</ele>
        <time>2020-05-21T14:13:23Z</time>
      </trkpt>
      <trkpt lat="45.36191" lon="4.6643">
        <ele>497.62</ele>
        <time>2020-05-21T14:13:35Z</time>
      </trkpt>
      <trkpt lat="45.36239" lon="4.66465">
        <ele>498.1</ele>
        <time>2020-05-21T14:13:50Z</time>
      </trkpt>
      <trkpt lat="45.36244" lon="4.66475">
        <ele>496.66</ele>
        <time>2020-05-21T14:13:52Z</time>
      </trkpt>
      <trkpt lat="45.36246" lon="4.6648">
        <ele>496.66</ele>
        <time>2020-05-21T14:13:53Z</time>
      </trkpt>
      <trkpt lat="45.36249" lon="4.66486">
        <ele>496.18</ele>
        <time>2020-05-21T14:13:54Z</time>
      </trkpt>
      <trkpt lat="45.36251" lon="4.66493">
        <ele>495.7</ele>
        <time>2020-05-21T14:13:55Z</time>
      </trkpt>
      <trkpt lat="45.36252" lon="4.665">
        <ele>495.7</ele>
        <time>2020-05-21T14:13:56Z</time>
      </trkpt>
      <trkpt lat="45.36252" lon="4.66508">
        <ele>495.7</ele>
        <time>2020-05-21T14:13:57Z</time>
      </trkpt>
      <trkpt lat="45.36254" lon="4.66523">
        <ele>495.22</ele>
        <time>2020-05-21T14:13:59Z</time>
      </trkpt>
      <trkpt lat="45.36254" lon="4.66531">
        <ele>495.22</ele>
        <time>2020-05-21T14:14:00Z</time>
      </trkpt>
      <trkpt lat="45.36252" lon="4.66548">
        <ele>494.26</ele>
        <time>2020-05-21T14:14:02Z</time>
      </trkpt>
      <trkpt lat="45.3625" lon="4.66556">
        <ele>493.77</ele>
        <time>2020-05-21T14:14:03Z</time>
      </trkpt>
      <trkpt lat="45.36245" lon="4.66584">
        <ele>495.7</ele>
        <time>2020-05-21T14:14:10Z</time>
      </trkpt>
      <trkpt lat="45.36246" lon="4.66585">
        <ele>495.22</ele>
        <time>2020-05-21T14:14:12Z</time>
      </trkpt>
      <trkpt lat="45.36246" lon="4.66587">
        <ele>495.22</ele>
        <time>2020-05-21T14:14:13Z</time>
      </trkpt>
      <trkpt lat="45.36247" lon="4.6659">
        <ele>494.74</ele>
        <time>2020-05-21T14:14:14Z</time>
      </trkpt>
      <trkpt lat="45.3625" lon="4.66593">
        <ele>494.74</ele>
        <time>2020-05-21T14:14:15Z</time>
      </trkpt>
      <trkpt lat="45.36252" lon="4.66594">
        <ele>494.74</ele>
        <time>2020-05-21T14:14:16Z</time>
      </trkpt>
      <trkpt lat="45.36256" lon="4.66595">
        <ele>494.74</ele>
        <time>2020-05-21T14:14:17Z</time>
      </trkpt>
      <trkpt lat="45.36259" lon="4.66595">
        <ele>495.22</ele>
        <time>2020-05-21T14:14:18Z</time>
      </trkpt>
      <trkpt lat="45.36293" lon="4.66588">
        <ele>497.14</ele>
        <time>2020-05-21T14:14:29Z</time>
      </trkpt>
      <trkpt lat="45.36295" lon="4.66589">
        <ele>497.14</ele>
        <time>2020-05-21T14:14:30Z</time>
      </trkpt>
      <trkpt lat="45.36297" lon="4.66592">
        <ele>497.62</ele>
        <time>2020-05-21T14:14:31Z</time>
      </trkpt>
      <trkpt lat="45.36304" lon="4.66601">
        <ele>498.1</ele>
        <time>2020-05-21T14:14:34Z</time>
      </trkpt>
      <trkpt lat="45.36308" lon="4.66601">
        <ele>497.62</ele>
        <time>2020-05-21T14:14:35Z</time>
      </trkpt>
      <trkpt lat="45.36311" lon="4.66601">
        <ele>497.62</ele>
        <time>2020-05-21T14:14:36Z</time>
      </trkpt>
      <trkpt lat="45.36314" lon="4.66602">
        <ele>497.62</ele>
        <time>2020-05-21T14:14:37Z</time>
      </trkpt>
      <trkpt lat="45.36317" lon="4.66604">
        <ele>498.1</ele>
        <time>2020-05-21T14:14:38Z</time>
      </trkpt>
      <trkpt lat="45.3632" lon="4.66607">
        <ele>498.1</ele>
        <time>2020-05-21T14:14:39Z</time>
      </trkpt>
      <trkpt lat="45.36323" lon="4.6661">
        <ele>498.58</ele>
        <time>2020-05-21T14:14:40Z</time>
      </trkpt>
      <trkpt lat="45.36363" lon="4.66647">
        <ele>500.5</ele>
        <time>2020-05-21T14:14:54Z</time>
      </trkpt>
      <trkpt lat="45.36387" lon="4.66697">
        <ele>500.98</ele>
        <time>2020-05-21T14:15:07Z</time>
      </trkpt>
      <trkpt lat="45.36398" lon="4.66723">
        <ele>501.95</ele>
        <time>2020-05-21T14:15:15Z</time>
      </trkpt>
      <trkpt lat="45.36399" lon="4.66728">
        <ele>502.43</ele>
        <time>2020-05-21T14:15:18Z</time>
      </trkpt>
      <trkpt lat="45.36406" lon="4.66724">
        <ele>502.91</ele>
        <time>2020-05-21T14:15:24Z</time>
      </trkpt>
      <trkpt lat="45.36432" lon="4.66702">
        <ele>506.27</ele>
        <time>2020-05-21T14:15:39Z</time>
      </trkpt>
      <trkpt lat="45.36438" lon="4.66698">
        <ele>507.23</ele>
        <time>2020-05-21T14:15:43Z</time>
      </trkpt>
      <trkpt lat="45.36444" lon="4.66691">
        <ele>508.67</ele>
        <time>2020-05-21T14:15:49Z</time>
      </trkpt>
      <trkpt lat="45.36456" lon="4.66686">
        <ele>511.08</ele>
        <time>2020-05-21T14:15:57Z</time>
      </trkpt>
      <trkpt lat="45.36459" lon="4.66684">
        <ele>511.56</ele>
        <time>2020-05-21T14:15:59Z</time>
      </trkpt>
      <trkpt lat="45.36481" lon="4.66687">
        <ele>514.44</ele>
        <time>2020-05-21T14:16:14Z</time>
      </trkpt>
      <trkpt lat="45.36492" lon="4.66679">
        <ele>516.37</ele>
        <time>2020-05-21T14:16:23Z</time>
      </trkpt>
      <trkpt lat="45.36504" lon="4.66669">
        <ele>518.29</ele>
        <time>2020-05-21T14:16:32Z</time>
      </trkpt>
      <trkpt lat="45.36509" lon="4.66658">
        <ele>518.77</ele>
        <time>2020-05-21T14:16:38Z</time>
      </trkpt>
      <trkpt lat="45.36512" lon="4.66641">
        <ele>520.21</ele>
        <time>2020-05-21T14:16:47Z</time>
      </trkpt>
      <trkpt lat="45.3652" lon="4.66624">
        <ele>521.17</ele>
        <time>2020-05-21T14:16:57Z</time>
      </trkpt>
      <trkpt lat="45.36537" lon="4.6661">
        <ele>523.09</ele>
        <time>2020-05-21T14:17:11Z</time>
      </trkpt>
      <trkpt lat="45.36541" lon="4.6661">
        <ele>523.58</ele>
        <time>2020-05-21T14:17:14Z</time>
      </trkpt>
      <trkpt lat="45.36552" lon="4.66611">
        <ele>525.02</ele>
        <time>2020-05-21T14:17:23Z</time>
      </trkpt>
      <trkpt lat="45.36555" lon="4.6661">
        <ele>525.02</ele>
        <time>2020-05-21T14:17:25Z</time>
      </trkpt>
      <trkpt lat="45.36562" lon="4.6661">
        <ele>526.46</ele>
        <time>2020-05-21T14:17:31Z</time>
      </trkpt>
      <trkpt lat="45.36572" lon="4.66609">
        <ele>527.9</ele>
        <time>2020-05-21T14:17:39Z</time>
      </trkpt>
      <trkpt lat="45.36577" lon="4.66607">
        <ele>528.38</ele>
        <time>2020-05-21T14:17:42Z</time>
      </trkpt>
      <trkpt lat="45.36581" lon="4.66608">
        <ele>528.86</ele>
        <time>2020-05-21T14:17:45Z</time>
      </trkpt>
      <trkpt lat="45.36586" lon="4.66608">
        <ele>529.82</ele>
        <time>2020-05-21T14:17:49Z</time>
      </trkpt>
      <trkpt lat="45.36593" lon="4.66603">
        <ele>530.79</ele>
        <time>2020-05-21T14:17:55Z</time>
      </trkpt>
      <trkpt lat="45.36607" lon="4.66578">
        <ele>534.15</ele>
        <time>2020-05-21T14:18:10Z</time>
      </trkpt>
      <trkpt lat="45.36622" lon="4.66542">
        <ele>536.55</ele>
        <time>2020-05-21T14:18:26Z</time>
      </trkpt>
      <trkpt lat="45.36641" lon="4.66511">
        <ele>539.92</ele>
        <time>2020-05-21T14:18:41Z</time>
      </trkpt>
      <trkpt lat="45.36663" lon="4.66485">
        <ele>542.32</ele>
        <time>2020-05-21T14:18:55Z</time>
      </trkpt>
      <trkpt lat="45.36693" lon="4.66445">
        <ele>544.24</ele>
        <time>2020-05-21T14:19:12Z</time>
      </trkpt>
      <trkpt lat="45.36711" lon="4.66412">
        <ele>546.65</ele>
        <time>2020-05-21T14:19:26Z</time>
      </trkpt>
      <trkpt lat="45.36718" lon="4.66397">
        <ele>547.13</ele>
        <time>2020-05-21T14:19:33Z</time>
      </trkpt>
      <trkpt lat="45.36724" lon="4.6639">
        <ele>548.09</ele>
        <time>2020-05-21T14:19:37Z</time>
      </trkpt>
      <trkpt lat="45.36728" lon="4.66388">
        <ele>549.05</ele>
        <time>2020-05-21T14:19:40Z</time>
      </trkpt>
      <trkpt lat="45.36732" lon="4.66386">
        <ele>550.49</ele>
        <time>2020-05-21T14:19:43Z</time>
      </trkpt>
      <trkpt lat="45.36745" lon="4.66374">
        <ele>552.9</ele>
        <time>2020-05-21T14:19:56Z</time>
      </trkpt>
      <trkpt lat="45.36757" lon="4.66356">
        <ele>556.26</ele>
        <time>2020-05-21T14:20:09Z</time>
      </trkpt>
      <trkpt lat="45.36759" lon="4.66355">
        <ele>556.74</ele>
        <time>2020-05-21T14:20:11Z</time>
      </trkpt>
      <trkpt lat="45.36761" lon="4.66352">
        <ele>557.22</ele>
        <time>2020-05-21T14:20:13Z</time>
      </trkpt>
      <trkpt lat="45.36765" lon="4.6635">
        <ele>558.18</ele>
        <time>2020-05-21T14:20:17Z</time>
      </trkpt>
      <trkpt lat="45.36769" lon="4.66347">
        <ele>559.14</ele>
        <time>2020-05-21T14:20:21Z</time>
      </trkpt>
      <trkpt lat="45.36775" lon="4.66351">
        <ele>560.11</ele>
        <time>2020-05-21T14:20:26Z</time>
      </trkpt>
      <trkpt lat="45.36782" lon="4.66359">
        <ele>561.55</ele>
        <time>2020-05-21T14:20:32Z</time>
      </trkpt>
      <trkpt lat="45.36788" lon="4.66364">
        <ele>562.03</ele>
        <time>2020-05-21T14:20:37Z</time>
      </trkpt>
      <trkpt lat="45.36787" lon="4.66354">
        <ele>562.51</ele>
        <time>2020-05-21T14:20:44Z</time>
      </trkpt>
      <trkpt lat="45.36791" lon="4.66343">
        <ele>563.47</ele>
        <time>2020-05-21T14:20:50Z</time>
      </trkpt>
      <trkpt lat="45.36816" lon="4.66324">
        <ele>565.39</ele>
        <time>2020-05-21T14:21:06Z</time>
      </trkpt>
      <trkpt lat="45.36833" lon="4.66296">
        <ele>565.87</ele>
        <time>2020-05-21T14:21:20Z</time>
      </trkpt>
      <trkpt lat="45.36838" lon="4.66293">
        <ele>565.87</ele>
        <time>2020-05-21T14:21:23Z</time>
      </trkpt>
      <trkpt lat="45.36841" lon="4.66289">
        <ele>567.32</ele>
        <time>2020-05-21T14:21:36Z</time>
      </trkpt>
      <trkpt lat="45.36841" lon="4.66287">
        <ele>566.35</ele>
        <time>2020-05-21T14:22:02Z</time>
      </trkpt>
      <trkpt lat="45.36842" lon="4.66288">
        <ele>566.83</ele>
        <time>2020-05-21T14:22:27Z</time>
      </trkpt>
      <trkpt lat="45.36843" lon="4.66288">
        <ele>566.83</ele>
        <time>2020-05-21T14:23:00Z</time>
      </trkpt>
      <trkpt lat="45.36843" lon="4.66288">
        <ele>566.83</ele>
        <time>2020-05-21T14:23:29Z</time>
      </trkpt>
      <trkpt lat="45.36843" lon="4.66288">
        <ele>566.83</ele>
        <time>2020-05-21T14:24:03Z</time>
      </trkpt>
      <trkpt lat="45.36843" lon="4.66288">
        <ele>567.32</ele>
        <time>2020-05-21T14:24:38Z</time>
      </trkpt>
      <trkpt lat="45.36843" lon="4.66288">
        <ele>566.35</ele>
        <time>2020-05-21T14:25:10Z</time>
      </trkpt>
      <trkpt lat="45.36842" lon="4.66288">
        <ele>567.32</ele>
        <time>2020-05-21T14:25:39Z</time>
      </trkpt>
      <trkpt lat="45.36841" lon="4.66287">
        <ele>566.83</ele>
        <time>2020-05-21T14:26:11Z</time>
      </trkpt>
      <trkpt lat="45.36841" lon="4.66286">
        <ele>567.32</ele>
        <time>2020-05-21T14:26:39Z</time>
      </trkpt>
      <trkpt lat="45.36842" lon="4.66285">
        <ele>567.32</ele>
        <time>2020-05-21T14:27:13Z</time>
      </trkpt>
      <trkpt lat="45.36842" lon="4.66286">
        <ele>567.32</ele>
        <time>2020-05-21T14:27:47Z</time>
      </trkpt>
      <trkpt lat="45.36842" lon="4.66286">
        <ele>567.32</ele>
        <time>2020-05-21T14:28:16Z</time>
      </trkpt>
      <trkpt lat="45.36842" lon="4.66286">
        <ele>567.8</ele>
        <time>2020-05-21T14:28:49Z</time>
      </trkpt>
      <trkpt lat="45.36842" lon="4.66285">
        <ele>566.83</ele>
        <time>2020-05-21T14:29:17Z</time>
      </trkpt>
      <trkpt lat="45.36841" lon="4.66285">
        <ele>567.32</ele>
        <time>2020-05-21T14:29:46Z</time>
      </trkpt>
      <trkpt lat="45.36841" lon="4.66286">
        <ele>567.32</ele>
        <time>2020-05-21T14:30:19Z</time>
      </trkpt>
      <trkpt lat="45.36842" lon="4.66286">
        <ele>566.83</ele>
        <time>2020-05-21T14:30:35Z</time>
      </trkpt>
      <trkpt lat="45.36857" lon="4.66266">
        <ele>568.28</ele>
        <time>2020-05-21T14:30:46Z</time>
      </trkpt>
      <trkpt lat="45.36884" lon="4.66219">
        <ele>570.2</ele>
        <time>2020-05-21T14:31:02Z</time>
      </trkpt>
      <trkpt lat="45.36914" lon="4.66189">
        <ele>572.6</ele>
        <time>2020-05-21T14:31:17Z</time>
      </trkpt>
      <trkpt lat="45.36919" lon="4.66189">
        <ele>573.08</ele>
        <time>2020-05-21T14:31:19Z</time>
      </trkpt>
      <trkpt lat="45.36926" lon="4.66199">
        <ele>574.04</ele>
        <time>2020-05-21T14:31:23Z</time>
      </trkpt>
      <trkpt lat="45.36937" lon="4.66247">
        <ele>575.97</ele>
        <time>2020-05-21T14:31:38Z</time>
      </trkpt>
      <trkpt lat="45.36946" lon="4.66294">
        <ele>576.93</ele>
        <time>2020-05-21T14:31:53Z</time>
      </trkpt>
      <trkpt lat="45.36956" lon="4.66336">
        <ele>575.49</ele>
        <time>2020-05-21T14:32:02Z</time>
      </trkpt>
      <trkpt lat="45.36958" lon="4.66341">
        <ele>575.01</ele>
        <time>2020-05-21T14:32:03Z</time>
      </trkpt>
      <trkpt lat="45.3696" lon="4.66347">
        <ele>574.04</ele>
        <time>2020-05-21T14:32:04Z</time>
      </trkpt>
      <trkpt lat="45.36962" lon="4.66354">
        <ele>574.04</ele>
        <time>2020-05-21T14:32:05Z</time>
      </trkpt>
      <trkpt lat="45.36963" lon="4.66361">
        <ele>573.08</ele>
        <time>2020-05-21T14:32:06Z</time>
      </trkpt>
      <trkpt lat="45.36974" lon="4.66399">
        <ele>572.12</ele>
        <time>2020-05-21T14:32:11Z</time>
      </trkpt>
      <trkpt lat="45.37011" lon="4.66482">
        <ele>568.76</ele>
        <time>2020-05-21T14:32:22Z</time>
      </trkpt>
      <trkpt lat="45.37015" lon="4.66488">
        <ele>568.76</ele>
        <time>2020-05-21T14:32:23Z</time>
      </trkpt>
      <trkpt lat="45.37025" lon="4.66502">
        <ele>570.2</ele>
        <time>2020-05-21T14:32:26Z</time>
      </trkpt>
      <trkpt lat="45.3706" lon="4.66556">
        <ele>572.12</ele>
        <time>2020-05-21T14:32:40Z</time>
      </trkpt>
      <trkpt lat="45.37097" lon="4.66619">
        <ele>574.53</ele>
        <time>2020-05-21T14:32:56Z</time>
      </trkpt>
      <trkpt lat="45.3711" lon="4.66667">
        <ele>577.41</ele>
        <time>2020-05-21T14:33:08Z</time>
      </trkpt>
      <trkpt lat="45.37131" lon="4.66729">
        <ele>578.85</ele>
        <time>2020-05-21T14:33:24Z</time>
      </trkpt>
      <trkpt lat="45.37164" lon="4.66776">
        <ele>580.29</ele>
        <time>2020-05-21T14:33:38Z</time>
      </trkpt>
      <trkpt lat="45.3718" lon="4.66797">
        <ele>581.73</ele>
        <time>2020-05-21T14:33:45Z</time>
      </trkpt>
      <trkpt lat="45.37204" lon="4.66838">
        <ele>583.18</ele>
        <time>2020-05-21T14:33:57Z</time>
      </trkpt>
      <trkpt lat="45.37224" lon="4.66899">
        <ele>585.1</ele>
        <time>2020-05-21T14:34:11Z</time>
      </trkpt>
      <trkpt lat="45.3725" lon="4.66956">
        <ele>587.02</ele>
        <time>2020-05-21T14:34:26Z</time>
      </trkpt>
      <trkpt lat="45.37259" lon="4.66968">
        <ele>588.95</ele>
        <time>2020-05-21T14:34:30Z</time>
      </trkpt>
      <trkpt lat="45.37292" lon="4.67008">
        <ele>590.39</ele>
        <time>2020-05-21T14:34:44Z</time>
      </trkpt>
      <trkpt lat="45.37322" lon="4.67029">
        <ele>592.79</ele>
        <time>2020-05-21T14:34:56Z</time>
      </trkpt>
      <trkpt lat="45.37356" lon="4.67057">
        <ele>594.23</ele>
        <time>2020-05-21T14:35:08Z</time>
      </trkpt>
      <trkpt lat="45.37376" lon="4.67073">
        <ele>593.27</ele>
        <time>2020-05-21T14:35:15Z</time>
      </trkpt>
      <trkpt lat="45.37383" lon="4.6708">
        <ele>590.87</ele>
        <time>2020-05-21T14:35:17Z</time>
      </trkpt>
      <trkpt lat="45.37388" lon="4.67082">
        <ele>589.91</ele>
        <time>2020-05-21T14:35:18Z</time>
      </trkpt>
      <trkpt lat="45.37394" lon="4.67084">
        <ele>589.43</ele>
        <time>2020-05-21T14:35:19Z</time>
      </trkpt>
      <trkpt lat="45.374" lon="4.67086">
        <ele>587.98</ele>
        <time>2020-05-21T14:35:20Z</time>
      </trkpt>
      <trkpt lat="45.37407" lon="4.67088">
        <ele>585.58</ele>
        <time>2020-05-21T14:35:21Z</time>
      </trkpt>
      <trkpt lat="45.37414" lon="4.67089">
        <ele>584.14</ele>
        <time>2020-05-21T14:35:22Z</time>
      </trkpt>
      <trkpt lat="45.37422" lon="4.67089">
        <ele>582.7</ele>
        <time>2020-05-21T14:35:23Z</time>
      </trkpt>
      <trkpt lat="45.37431" lon="4.6709">
        <ele>580.77</ele>
        <time>2020-05-21T14:35:24Z</time>
      </trkpt>
      <trkpt lat="45.37463" lon="4.67095">
        <ele>577.41</ele>
        <time>2020-05-21T14:35:27Z</time>
      </trkpt>
      <trkpt lat="45.37481" lon="4.671">
        <ele>575.97</ele>
        <time>2020-05-21T14:35:29Z</time>
      </trkpt>
      <trkpt lat="45.37487" lon="4.67104">
        <ele>575.49</ele>
        <time>2020-05-21T14:35:30Z</time>
      </trkpt>
      <trkpt lat="45.37492" lon="4.67107">
        <ele>575.01</ele>
        <time>2020-05-21T14:35:31Z</time>
      </trkpt>
      <trkpt lat="45.37495" lon="4.67108">
        <ele>575.01</ele>
        <time>2020-05-21T14:35:32Z</time>
      </trkpt>
      <trkpt lat="45.37499" lon="4.67109">
        <ele>575.01</ele>
        <time>2020-05-21T14:35:33Z</time>
      </trkpt>
      <trkpt lat="45.37502" lon="4.67109">
        <ele>575.01</ele>
        <time>2020-05-21T14:35:34Z</time>
      </trkpt>
      <trkpt lat="45.37505" lon="4.67109">
        <ele>574.53</ele>
        <time>2020-05-21T14:35:35Z</time>
      </trkpt>
      <trkpt lat="45.37509" lon="4.67107">
        <ele>574.04</ele>
        <time>2020-05-21T14:35:36Z</time>
      </trkpt>
      <trkpt lat="45.37512" lon="4.67104">
        <ele>573.08</ele>
        <time>2020-05-21T14:35:37Z</time>
      </trkpt>
      <trkpt lat="45.37515" lon="4.67101">
        <ele>572.12</ele>
        <time>2020-05-21T14:35:38Z</time>
      </trkpt>
      <trkpt lat="45.3752" lon="4.67097">
        <ele>571.16</ele>
        <time>2020-05-21T14:35:39Z</time>
      </trkpt>
      <trkpt lat="45.37525" lon="4.67093">
        <ele>570.68</ele>
        <time>2020-05-21T14:35:40Z</time>
      </trkpt>
      <trkpt lat="45.37538" lon="4.67085">
        <ele>567.8</ele>
        <time>2020-05-21T14:35:42Z</time>
      </trkpt>
      <trkpt lat="45.37552" lon="4.67078">
        <ele>563.95</ele>
        <time>2020-05-21T14:35:44Z</time>
      </trkpt>
      <trkpt lat="45.37582" lon="4.6707">
        <ele>560.59</ele>
        <time>2020-05-21T14:35:48Z</time>
      </trkpt>
      <trkpt lat="45.37588" lon="4.67069">
        <ele>559.14</ele>
        <time>2020-05-21T14:35:49Z</time>
      </trkpt>
      <trkpt lat="45.37594" lon="4.67067">
        <ele>557.22</ele>
        <time>2020-05-21T14:35:50Z</time>
      </trkpt>
      <trkpt lat="45.37604" lon="4.67062">
        <ele>556.26</ele>
        <time>2020-05-21T14:35:52Z</time>
      </trkpt>
      <trkpt lat="45.37619" lon="4.67054">
        <ele>554.34</ele>
        <time>2020-05-21T14:35:55Z</time>
      </trkpt>
      <trkpt lat="45.37625" lon="4.67053">
        <ele>554.34</ele>
        <time>2020-05-21T14:35:56Z</time>
      </trkpt>
      <trkpt lat="45.37643" lon="4.67054">
        <ele>553.38</ele>
        <time>2020-05-21T14:35:59Z</time>
      </trkpt>
      <trkpt lat="45.37672" lon="4.67064">
        <ele>551.93</ele>
        <time>2020-05-21T14:36:04Z</time>
      </trkpt>
      <trkpt lat="45.37677" lon="4.67065">
        <ele>552.41</ele>
        <time>2020-05-21T14:36:05Z</time>
      </trkpt>
      <trkpt lat="45.37681" lon="4.67065">
        <ele>553.38</ele>
        <time>2020-05-21T14:36:06Z</time>
      </trkpt>
      <trkpt lat="45.37685" lon="4.67064">
        <ele>553.38</ele>
        <time>2020-05-21T14:36:07Z</time>
      </trkpt>
      <trkpt lat="45.37691" lon="4.67064">
        <ele>553.38</ele>
        <time>2020-05-21T14:36:08Z</time>
      </trkpt>
      <trkpt lat="45.37695" lon="4.67064">
        <ele>554.34</ele>
        <time>2020-05-21T14:36:09Z</time>
      </trkpt>
      <trkpt lat="45.37699" lon="4.67065">
        <ele>555.3</ele>
        <time>2020-05-21T14:36:10Z</time>
      </trkpt>
      <trkpt lat="45.37701" lon="4.67065">
        <ele>555.3</ele>
        <time>2020-05-21T14:36:11Z</time>
      </trkpt>
      <trkpt lat="45.37704" lon="4.67067">
        <ele>555.3</ele>
        <time>2020-05-21T14:36:12Z</time>
      </trkpt>
      <trkpt lat="45.37707" lon="4.67068">
        <ele>555.3</ele>
        <time>2020-05-21T14:36:13Z</time>
      </trkpt>
      <trkpt lat="45.37711" lon="4.6707">
        <ele>554.82</ele>
        <time>2020-05-21T14:36:14Z</time>
      </trkpt>
      <trkpt lat="45.37714" lon="4.67073">
        <ele>554.82</ele>
        <time>2020-05-21T14:36:15Z</time>
      </trkpt>
      <trkpt lat="45.37741" lon="4.67094">
        <ele>551.93</ele>
        <time>2020-05-21T14:36:21Z</time>
      </trkpt>
      <trkpt lat="45.37746" lon="4.67098">
        <ele>551.45</ele>
        <time>2020-05-21T14:36:22Z</time>
      </trkpt>
      <trkpt lat="45.37753" lon="4.67103">
        <ele>550.49</ele>
        <time>2020-05-21T14:36:23Z</time>
      </trkpt>
      <trkpt lat="45.37759" lon="4.67108">
        <ele>549.53</ele>
        <time>2020-05-21T14:36:24Z</time>
      </trkpt>
      <trkpt lat="45.37765" lon="4.67114">
        <ele>549.05</ele>
        <time>2020-05-21T14:36:25Z</time>
      </trkpt>
      <trkpt lat="45.3777" lon="4.67119">
        <ele>548.57</ele>
        <time>2020-05-21T14:36:26Z</time>
      </trkpt>
      <trkpt lat="45.37774" lon="4.67125">
        <ele>547.13</ele>
        <time>2020-05-21T14:36:27Z</time>
      </trkpt>
      <trkpt lat="45.37777" lon="4.6713">
        <ele>546.17</ele>
        <time>2020-05-21T14:36:28Z</time>
      </trkpt>
      <trkpt lat="45.37781" lon="4.67132">
        <ele>545.2</ele>
        <time>2020-05-21T14:36:29Z</time>
      </trkpt>
      <trkpt lat="45.37785" lon="4.67134">
        <ele>545.2</ele>
        <time>2020-05-21T14:36:30Z</time>
      </trkpt>
      <trkpt lat="45.37788" lon="4.67135">
        <ele>544.24</ele>
        <time>2020-05-21T14:36:31Z</time>
      </trkpt>
      <trkpt lat="45.37791" lon="4.67137">
        <ele>544.24</ele>
        <time>2020-05-21T14:36:32Z</time>
      </trkpt>
      <trkpt lat="45.37792" lon="4.67139">
        <ele>544.24</ele>
        <time>2020-05-21T14:36:33Z</time>
      </trkpt>
      <trkpt lat="45.37792" lon="4.67142">
        <ele>544.72</ele>
        <time>2020-05-21T14:36:34Z</time>
      </trkpt>
      <trkpt lat="45.37791" lon="4.67144">
        <ele>544.72</ele>
        <time>2020-05-21T14:36:35Z</time>
      </trkpt>
      <trkpt lat="45.37789" lon="4.67144">
        <ele>545.2</ele>
        <time>2020-05-21T14:36:36Z</time>
      </trkpt>
      <trkpt lat="45.37788" lon="4.67143">
        <ele>545.2</ele>
        <time>2020-05-21T14:36:37Z</time>
      </trkpt>
      <trkpt lat="45.37787" lon="4.67142">
        <ele>545.2</ele>
        <time>2020-05-21T14:36:38Z</time>
      </trkpt>
      <trkpt lat="45.37785" lon="4.67141">
        <ele>545.2</ele>
        <time>2020-05-21T14:36:39Z</time>
      </trkpt>
      <trkpt lat="45.37783" lon="4.6714">
        <ele>545.2</ele>
        <time>2020-05-21T14:36:40Z</time>
      </trkpt>
      <trkpt lat="45.3778" lon="4.67139">
        <ele>545.2</ele>
        <time>2020-05-21T14:36:41Z</time>
      </trkpt>
      <trkpt lat="45.37778" lon="4.67138">
        <ele>545.2</ele>
        <time>2020-05-21T14:36:42Z</time>
      </trkpt>
      <trkpt lat="45.37775" lon="4.67137">
        <ele>545.2</ele>
        <time>2020-05-21T14:36:43Z</time>
      </trkpt>
      <trkpt lat="45.3774" lon="4.67127">
        <ele>546.17</ele>
        <time>2020-05-21T14:36:55Z</time>
      </trkpt>
      <trkpt lat="45.37709" lon="4.67123">
        <ele>546.17</ele>
        <time>2020-05-21T14:37:03Z</time>
      </trkpt>
      <trkpt lat="45.37705" lon="4.67124">
        <ele>546.17</ele>
        <time>2020-05-21T14:37:04Z</time>
      </trkpt>
      <trkpt lat="45.37684" lon="4.67129">
        <ele>546.17</ele>
        <time>2020-05-21T14:37:09Z</time>
      </trkpt>
      <trkpt lat="45.3768" lon="4.67132">
        <ele>546.17</ele>
        <time>2020-05-21T14:37:10Z</time>
      </trkpt>
      <trkpt lat="45.37676" lon="4.67136">
        <ele>545.69</ele>
        <time>2020-05-21T14:37:11Z</time>
      </trkpt>
      <trkpt lat="45.37672" lon="4.67141">
        <ele>545.69</ele>
        <time>2020-05-21T14:37:12Z</time>
      </trkpt>
      <trkpt lat="45.37669" lon="4.67146">
        <ele>545.2</ele>
        <time>2020-05-21T14:37:13Z</time>
      </trkpt>
      <trkpt lat="45.37666" lon="4.67152">
        <ele>545.2</ele>
        <time>2020-05-21T14:37:14Z</time>
      </trkpt>
      <trkpt lat="45.37663" lon="4.67158">
        <ele>544.72</ele>
        <time>2020-05-21T14:37:15Z</time>
      </trkpt>
      <trkpt lat="45.37622" lon="4.67248">
        <ele>542.8</ele>
        <time>2020-05-21T14:37:30Z</time>
      </trkpt>
      <trkpt lat="45.37619" lon="4.67253">
        <ele>542.8</ele>
        <time>2020-05-21T14:37:31Z</time>
      </trkpt>
      <trkpt lat="45.37617" lon="4.67259">
        <ele>542.8</ele>
        <time>2020-05-21T14:37:32Z</time>
      </trkpt>
      <trkpt lat="45.37616" lon="4.67266">
        <ele>542.32</ele>
        <time>2020-05-21T14:37:33Z</time>
      </trkpt>
      <trkpt lat="45.37615" lon="4.67272">
        <ele>542.32</ele>
        <time>2020-05-21T14:37:34Z</time>
      </trkpt>
      <trkpt lat="45.37613" lon="4.67279">
        <ele>541.84</ele>
        <time>2020-05-21T14:37:35Z</time>
      </trkpt>
      <trkpt lat="45.37611" lon="4.67287">
        <ele>541.36</ele>
        <time>2020-05-21T14:37:36Z</time>
      </trkpt>
      <trkpt lat="45.37609" lon="4.67295">
        <ele>539.92</ele>
        <time>2020-05-21T14:37:37Z</time>
      </trkpt>
      <trkpt lat="45.37609" lon="4.67305">
        <ele>538.96</ele>
        <time>2020-05-21T14:37:38Z</time>
      </trkpt>
      <trkpt lat="45.37612" lon="4.67315">
        <ele>537.51</ele>
        <time>2020-05-21T14:37:39Z</time>
      </trkpt>
      <trkpt lat="45.37617" lon="4.67324">
        <ele>536.07</ele>
        <time>2020-05-21T14:37:40Z</time>
      </trkpt>
      <trkpt lat="45.37623" lon="4.67332">
        <ele>534.63</ele>
        <time>2020-05-21T14:37:41Z</time>
      </trkpt>
      <trkpt lat="45.37629" lon="4.67338">
        <ele>533.67</ele>
        <time>2020-05-21T14:37:42Z</time>
      </trkpt>
      <trkpt lat="45.37635" lon="4.6734">
        <ele>533.19</ele>
        <time>2020-05-21T14:37:43Z</time>
      </trkpt>
      <trkpt lat="45.37641" lon="4.67344">
        <ele>531.75</ele>
        <time>2020-05-21T14:37:44Z</time>
      </trkpt>
      <trkpt lat="45.37645" lon="4.67351">
        <ele>530.79</ele>
        <time>2020-05-21T14:37:45Z</time>
      </trkpt>
      <trkpt lat="45.3765" lon="4.67359">
        <ele>529.34</ele>
        <time>2020-05-21T14:37:46Z</time>
      </trkpt>
      <trkpt lat="45.37655" lon="4.67367">
        <ele>528.38</ele>
        <time>2020-05-21T14:37:47Z</time>
      </trkpt>
      <trkpt lat="45.37662" lon="4.67375">
        <ele>525.98</ele>
        <time>2020-05-21T14:37:48Z</time>
      </trkpt>
      <trkpt lat="45.3767" lon="4.67382">
        <ele>525.02</ele>
        <time>2020-05-21T14:37:49Z</time>
      </trkpt>
      <trkpt lat="45.37685" lon="4.674">
        <ele>522.13</ele>
        <time>2020-05-21T14:37:51Z</time>
      </trkpt>
      <trkpt lat="45.37691" lon="4.67412">
        <ele>520.69</ele>
        <time>2020-05-21T14:37:52Z</time>
      </trkpt>
      <trkpt lat="45.37694" lon="4.67425">
        <ele>520.21</ele>
        <time>2020-05-21T14:37:53Z</time>
      </trkpt>
      <trkpt lat="45.37698" lon="4.67438">
        <ele>519.73</ele>
        <time>2020-05-21T14:37:54Z</time>
      </trkpt>
      <trkpt lat="45.37703" lon="4.67449">
        <ele>518.77</ele>
        <time>2020-05-21T14:37:55Z</time>
      </trkpt>
      <trkpt lat="45.37709" lon="4.67458">
        <ele>518.29</ele>
        <time>2020-05-21T14:37:56Z</time>
      </trkpt>
      <trkpt lat="45.37715" lon="4.67468">
        <ele>517.81</ele>
        <time>2020-05-21T14:37:57Z</time>
      </trkpt>
      <trkpt lat="45.3772" lon="4.67479">
        <ele>517.33</ele>
        <time>2020-05-21T14:37:58Z</time>
      </trkpt>
      <trkpt lat="45.37723" lon="4.67491">
        <ele>517.81</ele>
        <time>2020-05-21T14:37:59Z</time>
      </trkpt>
      <trkpt lat="45.37726" lon="4.67503">
        <ele>517.81</ele>
        <time>2020-05-21T14:38:00Z</time>
      </trkpt>
      <trkpt lat="45.37729" lon="4.67514">
        <ele>517.33</ele>
        <time>2020-05-21T14:38:01Z</time>
      </trkpt>
      <trkpt lat="45.37734" lon="4.67525">
        <ele>515.88</ele>
        <time>2020-05-21T14:38:02Z</time>
      </trkpt>
      <trkpt lat="45.37739" lon="4.67535">
        <ele>514.92</ele>
        <time>2020-05-21T14:38:03Z</time>
      </trkpt>
      <trkpt lat="45.37746" lon="4.67544">
        <ele>513.96</ele>
        <time>2020-05-21T14:38:04Z</time>
      </trkpt>
      <trkpt lat="45.37753" lon="4.67553">
        <ele>513.48</ele>
        <time>2020-05-21T14:38:05Z</time>
      </trkpt>
      <trkpt lat="45.37761" lon="4.6756">
        <ele>512.52</ele>
        <time>2020-05-21T14:38:06Z</time>
      </trkpt>
      <trkpt lat="45.37805" lon="4.676">
        <ele>509.16</ele>
        <time>2020-05-21T14:38:11Z</time>
      </trkpt>
      <trkpt lat="45.37828" lon="4.67622">
        <ele>505.79</ele>
        <time>2020-05-21T14:38:14Z</time>
      </trkpt>
      <trkpt lat="45.37836" lon="4.67627">
        <ele>503.87</ele>
        <time>2020-05-21T14:38:15Z</time>
      </trkpt>
      <trkpt lat="45.37855" lon="4.67637">
        <ele>500.5</ele>
        <time>2020-05-21T14:38:17Z</time>
      </trkpt>
      <trkpt lat="45.37872" lon="4.67644">
        <ele>498.1</ele>
        <time>2020-05-21T14:38:19Z</time>
      </trkpt>
      <trkpt lat="45.37886" lon="4.67656">
        <ele>496.18</ele>
        <time>2020-05-21T14:38:21Z</time>
      </trkpt>
      <trkpt lat="45.37899" lon="4.67669">
        <ele>492.81</ele>
        <time>2020-05-21T14:38:23Z</time>
      </trkpt>
      <trkpt lat="45.37914" lon="4.67681">
        <ele>489.45</ele>
        <time>2020-05-21T14:38:25Z</time>
      </trkpt>
      <trkpt lat="45.37928" lon="4.67689">
        <ele>488.01</ele>
        <time>2020-05-21T14:38:27Z</time>
      </trkpt>
      <trkpt lat="45.37934" lon="4.67693">
        <ele>487.05</ele>
        <time>2020-05-21T14:38:28Z</time>
      </trkpt>
      <trkpt lat="45.37941" lon="4.67699">
        <ele>486.56</ele>
        <time>2020-05-21T14:38:29Z</time>
      </trkpt>
      <trkpt lat="45.37951" lon="4.67709">
        <ele>485.12</ele>
        <time>2020-05-21T14:38:31Z</time>
      </trkpt>
      <trkpt lat="45.37957" lon="4.67711">
        <ele>484.64</ele>
        <time>2020-05-21T14:38:32Z</time>
      </trkpt>
      <trkpt lat="45.37963" lon="4.67713">
        <ele>484.16</ele>
        <time>2020-05-21T14:38:33Z</time>
      </trkpt>
      <trkpt lat="45.37969" lon="4.67716">
        <ele>483.2</ele>
        <time>2020-05-21T14:38:34Z</time>
      </trkpt>
      <trkpt lat="45.37975" lon="4.6772">
        <ele>482.72</ele>
        <time>2020-05-21T14:38:35Z</time>
      </trkpt>
      <trkpt lat="45.37979" lon="4.67726">
        <ele>482.24</ele>
        <time>2020-05-21T14:38:36Z</time>
      </trkpt>
      <trkpt lat="45.37979" lon="4.67734">
        <ele>482.72</ele>
        <time>2020-05-21T14:38:37Z</time>
      </trkpt>
      <trkpt lat="45.3798" lon="4.67742">
        <ele>481.28</ele>
        <time>2020-05-21T14:38:38Z</time>
      </trkpt>
      <trkpt lat="45.3798" lon="4.67751">
        <ele>480.8</ele>
        <time>2020-05-21T14:38:39Z</time>
      </trkpt>
      <trkpt lat="45.3798" lon="4.6776">
        <ele>480.32</ele>
        <time>2020-05-21T14:38:40Z</time>
      </trkpt>
      <trkpt lat="45.3798" lon="4.67777">
        <ele>477.91</ele>
        <time>2020-05-21T14:38:42Z</time>
      </trkpt>
      <trkpt lat="45.3798" lon="4.67787">
        <ele>477.43</ele>
        <time>2020-05-21T14:38:43Z</time>
      </trkpt>
      <trkpt lat="45.37982" lon="4.67795">
        <ele>476.95</ele>
        <time>2020-05-21T14:38:44Z</time>
      </trkpt>
      <trkpt lat="45.37985" lon="4.67799">
        <ele>476.47</ele>
        <time>2020-05-21T14:38:45Z</time>
      </trkpt>
      <trkpt lat="45.3799" lon="4.67805">
        <ele>475.99</ele>
        <time>2020-05-21T14:38:46Z</time>
      </trkpt>
      <trkpt lat="45.37993" lon="4.6781">
        <ele>475.51</ele>
        <time>2020-05-21T14:38:47Z</time>
      </trkpt>
      <trkpt lat="45.37994" lon="4.67815">
        <ele>475.51</ele>
        <time>2020-05-21T14:38:48Z</time>
      </trkpt>
      <trkpt lat="45.37995" lon="4.6782">
        <ele>475.03</ele>
        <time>2020-05-21T14:38:49Z</time>
      </trkpt>
      <trkpt lat="45.37995" lon="4.67826">
        <ele>474.07</ele>
        <time>2020-05-21T14:38:50Z</time>
      </trkpt>
      <trkpt lat="45.37996" lon="4.67832">
        <ele>473.59</ele>
        <time>2020-05-21T14:38:51Z</time>
      </trkpt>
      <trkpt lat="45.37996" lon="4.67838">
        <ele>473.11</ele>
        <time>2020-05-21T14:38:52Z</time>
      </trkpt>
      <trkpt lat="45.38001" lon="4.67856">
        <ele>471.18</ele>
        <time>2020-05-21T14:38:56Z</time>
      </trkpt>
      <trkpt lat="45.38004" lon="4.67856">
        <ele>471.18</ele>
        <time>2020-05-21T14:38:57Z</time>
      </trkpt>
      <trkpt lat="45.38006" lon="4.67855">
        <ele>471.18</ele>
        <time>2020-05-21T14:38:58Z</time>
      </trkpt>
      <trkpt lat="45.38021" lon="4.67846">
        <ele>469.74</ele>
        <time>2020-05-21T14:39:03Z</time>
      </trkpt>
      <trkpt lat="45.38025" lon="4.67844">
        <ele>469.26</ele>
        <time>2020-05-21T14:39:04Z</time>
      </trkpt>
      <trkpt lat="45.38028" lon="4.67842">
        <ele>468.78</ele>
        <time>2020-05-21T14:39:05Z</time>
      </trkpt>
      <trkpt lat="45.38032" lon="4.67841">
        <ele>468.3</ele>
        <time>2020-05-21T14:39:06Z</time>
      </trkpt>
      <trkpt lat="45.38036" lon="4.6784">
        <ele>467.82</ele>
        <time>2020-05-21T14:39:07Z</time>
      </trkpt>
      <trkpt lat="45.3804" lon="4.67838">
        <ele>467.34</ele>
        <time>2020-05-21T14:39:08Z</time>
      </trkpt>
      <trkpt lat="45.38052" lon="4.67833">
        <ele>466.38</ele>
        <time>2020-05-21T14:39:11Z</time>
      </trkpt>
      <trkpt lat="45.38069" lon="4.67825">
        <ele>463.97</ele>
        <time>2020-05-21T14:39:15Z</time>
      </trkpt>
      <trkpt lat="45.38081" lon="4.67823">
        <ele>463.01</ele>
        <time>2020-05-21T14:39:17Z</time>
      </trkpt>
      <trkpt lat="45.38086" lon="4.67824">
        <ele>463.01</ele>
        <time>2020-05-21T14:39:18Z</time>
      </trkpt>
      <trkpt lat="45.38091" lon="4.67827">
        <ele>463.01</ele>
        <time>2020-05-21T14:39:19Z</time>
      </trkpt>
      <trkpt lat="45.38096" lon="4.67829">
        <ele>463.49</ele>
        <time>2020-05-21T14:39:20Z</time>
      </trkpt>
      <trkpt lat="45.381" lon="4.6783">
        <ele>463.49</ele>
        <time>2020-05-21T14:39:21Z</time>
      </trkpt>
      <trkpt lat="45.38104" lon="4.67829">
        <ele>463.97</ele>
        <time>2020-05-21T14:39:22Z</time>
      </trkpt>
      <trkpt lat="45.38107" lon="4.67827">
        <ele>464.45</ele>
        <time>2020-05-21T14:39:23Z</time>
      </trkpt>
      <trkpt lat="45.38109" lon="4.67825">
        <ele>464.93</ele>
        <time>2020-05-21T14:39:24Z</time>
      </trkpt>
      <trkpt lat="45.38112" lon="4.67823">
        <ele>465.42</ele>
        <time>2020-05-21T14:39:25Z</time>
      </trkpt>
      <trkpt lat="45.38114" lon="4.67821">
        <ele>465.9</ele>
        <time>2020-05-21T14:39:26Z</time>
      </trkpt>
      <trkpt lat="45.38117" lon="4.67818">
        <ele>466.38</ele>
        <time>2020-05-21T14:39:27Z</time>
      </trkpt>
      <trkpt lat="45.38136" lon="4.67793">
        <ele>469.26</ele>
        <time>2020-05-21T14:39:37Z</time>
      </trkpt>
      <trkpt lat="45.38151" lon="4.67754">
        <ele>472.63</ele>
        <time>2020-05-21T14:39:50Z</time>
      </trkpt>
      <trkpt lat="45.38153" lon="4.67752">
        <ele>472.63</ele>
        <time>2020-05-21T14:39:51Z</time>
      </trkpt>
      <trkpt lat="45.38154" lon="4.67751">
        <ele>472.63</ele>
        <time>2020-05-21T14:39:52Z</time>
      </trkpt>
      <trkpt lat="45.38156" lon="4.6775">
        <ele>473.11</ele>
        <time>2020-05-21T14:39:53Z</time>
      </trkpt>
      <trkpt lat="45.38158" lon="4.6775">
        <ele>473.59</ele>
        <time>2020-05-21T14:39:54Z</time>
      </trkpt>
      <trkpt lat="45.38159" lon="4.67749">
        <ele>473.59</ele>
        <time>2020-05-21T14:39:55Z</time>
      </trkpt>
      <trkpt lat="45.38161" lon="4.67748">
        <ele>473.59</ele>
        <time>2020-05-21T14:39:56Z</time>
      </trkpt>
      <trkpt lat="45.38176" lon="4.67734">
        <ele>476.95</ele>
        <time>2020-05-21T14:40:06Z</time>
      </trkpt>
      <trkpt lat="45.38185" lon="4.67726">
        <ele>478.39</ele>
        <time>2020-05-21T14:40:12Z</time>
      </trkpt>
      <trkpt lat="45.38198" lon="4.67708">
        <ele>481.28</ele>
        <time>2020-05-21T14:40:22Z</time>
      </trkpt>
      <trkpt lat="45.38203" lon="4.67704">
        <ele>482.72</ele>
        <time>2020-05-21T14:40:25Z</time>
      </trkpt>
      <trkpt lat="45.38207" lon="4.67701">
        <ele>481.76</ele>
        <time>2020-05-21T14:40:27Z</time>
      </trkpt>
      <trkpt lat="45.38221" lon="4.67694">
        <ele>481.28</ele>
        <time>2020-05-21T14:40:34Z</time>
      </trkpt>
      <trkpt lat="45.38224" lon="4.67696">
        <ele>481.76</ele>
        <time>2020-05-21T14:40:35Z</time>
      </trkpt>
      <trkpt lat="45.38227" lon="4.67699">
        <ele>481.76</ele>
        <time>2020-05-21T14:40:36Z</time>
      </trkpt>
      <trkpt lat="45.3823" lon="4.67702">
        <ele>481.28</ele>
        <time>2020-05-21T14:40:37Z</time>
      </trkpt>
      <trkpt lat="45.38233" lon="4.67706">
        <ele>481.28</ele>
        <time>2020-05-21T14:40:38Z</time>
      </trkpt>
      <trkpt lat="45.38252" lon="4.6773">
        <ele>479.35</ele>
        <time>2020-05-21T14:40:44Z</time>
      </trkpt>
      <trkpt lat="45.38255" lon="4.67733">
        <ele>479.35</ele>
        <time>2020-05-21T14:40:45Z</time>
      </trkpt>
      <trkpt lat="45.38259" lon="4.67735">
        <ele>479.35</ele>
        <time>2020-05-21T14:40:46Z</time>
      </trkpt>
      <trkpt lat="45.38263" lon="4.67736">
        <ele>479.35</ele>
        <time>2020-05-21T14:40:47Z</time>
      </trkpt>
      <trkpt lat="45.38267" lon="4.67737">
        <ele>479.35</ele>
        <time>2020-05-21T14:40:48Z</time>
      </trkpt>
      <trkpt lat="45.38271" lon="4.67738">
        <ele>480.32</ele>
        <time>2020-05-21T14:40:49Z</time>
      </trkpt>
      <trkpt lat="45.38323" lon="4.67748">
        <ele>481.76</ele>
        <time>2020-05-21T14:41:02Z</time>
      </trkpt>
      <trkpt lat="45.38371" lon="4.67767">
        <ele>482.24</ele>
        <time>2020-05-21T14:41:15Z</time>
      </trkpt>
      <trkpt lat="45.38375" lon="4.67769">
        <ele>482.72</ele>
        <time>2020-05-21T14:41:16Z</time>
      </trkpt>
      <trkpt lat="45.38379" lon="4.67772">
        <ele>482.72</ele>
        <time>2020-05-21T14:41:17Z</time>
      </trkpt>
      <trkpt lat="45.384" lon="4.67804">
        <ele>481.76</ele>
        <time>2020-05-21T14:41:25Z</time>
      </trkpt>
      <trkpt lat="45.38403" lon="4.67809">
        <ele>480.32</ele>
        <time>2020-05-21T14:41:26Z</time>
      </trkpt>
      <trkpt lat="45.38407" lon="4.67814">
        <ele>480.8</ele>
        <time>2020-05-21T14:41:27Z</time>
      </trkpt>
      <trkpt lat="45.3841" lon="4.67818">
        <ele>480.8</ele>
        <time>2020-05-21T14:41:28Z</time>
      </trkpt>
      <trkpt lat="45.38413" lon="4.67822">
        <ele>480.32</ele>
        <time>2020-05-21T14:41:29Z</time>
      </trkpt>
      <trkpt lat="45.38417" lon="4.67825">
        <ele>479.84</ele>
        <time>2020-05-21T14:41:30Z</time>
      </trkpt>
      <trkpt lat="45.3842" lon="4.67829">
        <ele>479.84</ele>
        <time>2020-05-21T14:41:31Z</time>
      </trkpt>
      <trkpt lat="45.38424" lon="4.67834">
        <ele>479.84</ele>
        <time>2020-05-21T14:41:32Z</time>
      </trkpt>
      <trkpt lat="45.38428" lon="4.67838">
        <ele>479.35</ele>
        <time>2020-05-21T14:41:33Z</time>
      </trkpt>
      <trkpt lat="45.38432" lon="4.67843">
        <ele>478.87</ele>
        <time>2020-05-21T14:41:34Z</time>
      </trkpt>
      <trkpt lat="45.38437" lon="4.67847">
        <ele>478.39</ele>
        <time>2020-05-21T14:41:35Z</time>
      </trkpt>
      <trkpt lat="45.38441" lon="4.67851">
        <ele>478.39</ele>
        <time>2020-05-21T14:41:36Z</time>
      </trkpt>
      <trkpt lat="45.38446" lon="4.67856">
        <ele>478.39</ele>
        <time>2020-05-21T14:41:37Z</time>
      </trkpt>
      <trkpt lat="45.38455" lon="4.67867">
        <ele>476.95</ele>
        <time>2020-05-21T14:41:39Z</time>
      </trkpt>
      <trkpt lat="45.3846" lon="4.67874">
        <ele>475.99</ele>
        <time>2020-05-21T14:41:40Z</time>
      </trkpt>
      <trkpt lat="45.38465" lon="4.6788">
        <ele>475.51</ele>
        <time>2020-05-21T14:41:41Z</time>
      </trkpt>
      <trkpt lat="45.38471" lon="4.67885">
        <ele>475.03</ele>
        <time>2020-05-21T14:41:42Z</time>
      </trkpt>
      <trkpt lat="45.38476" lon="4.67889">
        <ele>475.51</ele>
        <time>2020-05-21T14:41:43Z</time>
      </trkpt>
      <trkpt lat="45.38481" lon="4.67891">
        <ele>475.51</ele>
        <time>2020-05-21T14:41:44Z</time>
      </trkpt>
      <trkpt lat="45.38487" lon="4.67892">
        <ele>475.99</ele>
        <time>2020-05-21T14:41:45Z</time>
      </trkpt>
      <trkpt lat="45.38492" lon="4.67894">
        <ele>475.51</ele>
        <time>2020-05-21T14:41:46Z</time>
      </trkpt>
      <trkpt lat="45.38497" lon="4.67894">
        <ele>475.51</ele>
        <time>2020-05-21T14:41:47Z</time>
      </trkpt>
      <trkpt lat="45.38502" lon="4.67895">
        <ele>475.51</ele>
        <time>2020-05-21T14:41:48Z</time>
      </trkpt>
      <trkpt lat="45.38513" lon="4.67896">
        <ele>475.03</ele>
        <time>2020-05-21T14:41:50Z</time>
      </trkpt>
      <trkpt lat="45.38518" lon="4.67897">
        <ele>475.51</ele>
        <time>2020-05-21T14:41:51Z</time>
      </trkpt>
      <trkpt lat="45.38522" lon="4.67899">
        <ele>475.99</ele>
        <time>2020-05-21T14:41:52Z</time>
      </trkpt>
      <trkpt lat="45.38547" lon="4.67919">
        <ele>474.07</ele>
        <time>2020-05-21T14:41:57Z</time>
      </trkpt>
      <trkpt lat="45.38575" lon="4.67941">
        <ele>473.11</ele>
        <time>2020-05-21T14:42:02Z</time>
      </trkpt>
      <trkpt lat="45.38581" lon="4.67946">
        <ele>472.63</ele>
        <time>2020-05-21T14:42:03Z</time>
      </trkpt>
      <trkpt lat="45.38588" lon="4.6795">
        <ele>471.66</ele>
        <time>2020-05-21T14:42:04Z</time>
      </trkpt>
      <trkpt lat="45.38595" lon="4.67952">
        <ele>471.18</ele>
        <time>2020-05-21T14:42:05Z</time>
      </trkpt>
      <trkpt lat="45.38602" lon="4.67953">
        <ele>470.7</ele>
        <time>2020-05-21T14:42:06Z</time>
      </trkpt>
      <trkpt lat="45.38609" lon="4.67955">
        <ele>471.18</ele>
        <time>2020-05-21T14:42:07Z</time>
      </trkpt>
      <trkpt lat="45.38615" lon="4.67957">
        <ele>471.66</ele>
        <time>2020-05-21T14:42:08Z</time>
      </trkpt>
      <trkpt lat="45.38639" lon="4.6797">
        <ele>471.18</ele>
        <time>2020-05-21T14:42:12Z</time>
      </trkpt>
      <trkpt lat="45.38644" lon="4.67974">
        <ele>471.18</ele>
        <time>2020-05-21T14:42:13Z</time>
      </trkpt>
      <trkpt lat="45.38658" lon="4.67984">
        <ele>470.7</ele>
        <time>2020-05-21T14:42:16Z</time>
      </trkpt>
      <trkpt lat="45.38662" lon="4.67985">
        <ele>471.66</ele>
        <time>2020-05-21T14:42:17Z</time>
      </trkpt>
      <trkpt lat="45.38666" lon="4.67987">
        <ele>472.14</ele>
        <time>2020-05-21T14:42:18Z</time>
      </trkpt>
      <trkpt lat="45.38697" lon="4.67992">
        <ele>473.59</ele>
        <time>2020-05-21T14:42:28Z</time>
      </trkpt>
      <trkpt lat="45.38725" lon="4.68019">
        <ele>473.11</ele>
        <time>2020-05-21T14:42:38Z</time>
      </trkpt>
      <trkpt lat="45.38728" lon="4.68022">
        <ele>472.63</ele>
        <time>2020-05-21T14:42:39Z</time>
      </trkpt>
      <trkpt lat="45.38732" lon="4.68021">
        <ele>472.63</ele>
        <time>2020-05-21T14:42:40Z</time>
      </trkpt>
      <trkpt lat="45.38736" lon="4.68018">
        <ele>473.11</ele>
        <time>2020-05-21T14:42:41Z</time>
      </trkpt>
      <trkpt lat="45.38754" lon="4.68004">
        <ele>474.07</ele>
        <time>2020-05-21T14:42:46Z</time>
      </trkpt>
      <trkpt lat="45.38757" lon="4.68005">
        <ele>474.55</ele>
        <time>2020-05-21T14:42:47Z</time>
      </trkpt>
      <trkpt lat="45.38772" lon="4.68018">
        <ele>473.59</ele>
        <time>2020-05-21T14:42:51Z</time>
      </trkpt>
      <trkpt lat="45.38775" lon="4.68022">
        <ele>473.59</ele>
        <time>2020-05-21T14:42:52Z</time>
      </trkpt>
      <trkpt lat="45.38778" lon="4.68027">
        <ele>473.59</ele>
        <time>2020-05-21T14:42:53Z</time>
      </trkpt>
      <trkpt lat="45.38794" lon="4.68053">
        <ele>472.14</ele>
        <time>2020-05-21T14:42:59Z</time>
      </trkpt>
      <trkpt lat="45.38801" lon="4.68064">
        <ele>470.7</ele>
        <time>2020-05-21T14:43:01Z</time>
      </trkpt>
      <trkpt lat="45.38803" lon="4.68069">
        <ele>470.7</ele>
        <time>2020-05-21T14:43:02Z</time>
      </trkpt>
      <trkpt lat="45.38806" lon="4.68075">
        <ele>470.22</ele>
        <time>2020-05-21T14:43:03Z</time>
      </trkpt>
      <trkpt lat="45.38807" lon="4.68083">
        <ele>469.26</ele>
        <time>2020-05-21T14:43:04Z</time>
      </trkpt>
      <trkpt lat="45.38807" lon="4.68091">
        <ele>468.3</ele>
        <time>2020-05-21T14:43:05Z</time>
      </trkpt>
      <trkpt lat="45.38808" lon="4.681">
        <ele>467.34</ele>
        <time>2020-05-21T14:43:06Z</time>
      </trkpt>
      <trkpt lat="45.38811" lon="4.68109">
        <ele>466.86</ele>
        <time>2020-05-21T14:43:07Z</time>
      </trkpt>
      <trkpt lat="45.38814" lon="4.68119">
        <ele>465.42</ele>
        <time>2020-05-21T14:43:08Z</time>
      </trkpt>
      <trkpt lat="45.38818" lon="4.68128">
        <ele>464.45</ele>
        <time>2020-05-21T14:43:09Z</time>
      </trkpt>
      <trkpt lat="45.38824" lon="4.68137">
        <ele>463.01</ele>
        <time>2020-05-21T14:43:10Z</time>
      </trkpt>
      <trkpt lat="45.38831" lon="4.68144">
        <ele>461.57</ele>
        <time>2020-05-21T14:43:11Z</time>
      </trkpt>
      <trkpt lat="45.38839" lon="4.68149">
        <ele>460.61</ele>
        <time>2020-05-21T14:43:12Z</time>
      </trkpt>
      <trkpt lat="45.38846" lon="4.68154">
        <ele>460.13</ele>
        <time>2020-05-21T14:43:13Z</time>
      </trkpt>
      <trkpt lat="45.38853" lon="4.68159">
        <ele>460.61</ele>
        <time>2020-05-21T14:43:14Z</time>
      </trkpt>
      <trkpt lat="45.38864" lon="4.68169">
        <ele>459.17</ele>
        <time>2020-05-21T14:43:16Z</time>
      </trkpt>
      <trkpt lat="45.38868" lon="4.68174">
        <ele>458.69</ele>
        <time>2020-05-21T14:43:17Z</time>
      </trkpt>
      <trkpt lat="45.3887" lon="4.68178">
        <ele>458.21</ele>
        <time>2020-05-21T14:43:18Z</time>
      </trkpt>
      <trkpt lat="45.38873" lon="4.68181">
        <ele>457.72</ele>
        <time>2020-05-21T14:43:19Z</time>
      </trkpt>
      <trkpt lat="45.38875" lon="4.68183">
        <ele>457.24</ele>
        <time>2020-05-21T14:43:20Z</time>
      </trkpt>
      <trkpt lat="45.38879" lon="4.68182">
        <ele>457.24</ele>
        <time>2020-05-21T14:43:21Z</time>
      </trkpt>
      <trkpt lat="45.38883" lon="4.68182">
        <ele>456.76</ele>
        <time>2020-05-21T14:43:22Z</time>
      </trkpt>
      <trkpt lat="45.38887" lon="4.68181">
        <ele>456.76</ele>
        <time>2020-05-21T14:43:23Z</time>
      </trkpt>
      <trkpt lat="45.38891" lon="4.6818">
        <ele>456.76</ele>
        <time>2020-05-21T14:43:24Z</time>
      </trkpt>
      <trkpt lat="45.38896" lon="4.68179">
        <ele>456.76</ele>
        <time>2020-05-21T14:43:25Z</time>
      </trkpt>
      <trkpt lat="45.38946" lon="4.68178">
        <ele>455.8</ele>
        <time>2020-05-21T14:43:37Z</time>
      </trkpt>
      <trkpt lat="45.39012" lon="4.68186">
        <ele>451.96</ele>
        <time>2020-05-21T14:43:49Z</time>
      </trkpt>
      <trkpt lat="45.39032" lon="4.68187">
        <ele>450.52</ele>
        <time>2020-05-21T14:43:52Z</time>
      </trkpt>
      <trkpt lat="45.39085" lon="4.68189">
        <ele>446.67</ele>
        <time>2020-05-21T14:43:59Z</time>
      </trkpt>
      <trkpt lat="45.39116" lon="4.68191">
        <ele>447.15</ele>
        <time>2020-05-21T14:44:03Z</time>
      </trkpt>
      <trkpt lat="45.39124" lon="4.6819">
        <ele>446.67</ele>
        <time>2020-05-21T14:44:04Z</time>
      </trkpt>
      <trkpt lat="45.39131" lon="4.68189">
        <ele>446.19</ele>
        <time>2020-05-21T14:44:05Z</time>
      </trkpt>
      <trkpt lat="45.39138" lon="4.68186">
        <ele>445.71</ele>
        <time>2020-05-21T14:44:06Z</time>
      </trkpt>
      <trkpt lat="45.39145" lon="4.68183">
        <ele>445.23</ele>
        <time>2020-05-21T14:44:07Z</time>
      </trkpt>
      <trkpt lat="45.39152" lon="4.68179">
        <ele>444.75</ele>
        <time>2020-05-21T14:44:08Z</time>
      </trkpt>
      <trkpt lat="45.39178" lon="4.68164">
        <ele>444.27</ele>
        <time>2020-05-21T14:44:12Z</time>
      </trkpt>
      <trkpt lat="45.39184" lon="4.68164">
        <ele>444.75</ele>
        <time>2020-05-21T14:44:13Z</time>
      </trkpt>
      <trkpt lat="45.39189" lon="4.68168">
        <ele>445.23</ele>
        <time>2020-05-21T14:44:14Z</time>
      </trkpt>
      <trkpt lat="45.39193" lon="4.68172">
        <ele>445.71</ele>
        <time>2020-05-21T14:44:15Z</time>
      </trkpt>
      <trkpt lat="45.39197" lon="4.68176">
        <ele>445.71</ele>
        <time>2020-05-21T14:44:16Z</time>
      </trkpt>
      <trkpt lat="45.39253" lon="4.68214">
        <ele>446.19</ele>
        <time>2020-05-21T14:44:28Z</time>
      </trkpt>
      <trkpt lat="45.39256" lon="4.68218">
        <ele>446.19</ele>
        <time>2020-05-21T14:44:29Z</time>
      </trkpt>
      <trkpt lat="45.39257" lon="4.68222">
        <ele>446.19</ele>
        <time>2020-05-21T14:44:30Z</time>
      </trkpt>
      <trkpt lat="45.39256" lon="4.68228">
        <ele>445.71</ele>
        <time>2020-05-21T14:44:31Z</time>
      </trkpt>
      <trkpt lat="45.39254" lon="4.68235">
        <ele>444.75</ele>
        <time>2020-05-21T14:44:32Z</time>
      </trkpt>
      <trkpt lat="45.39251" lon="4.68241">
        <ele>444.75</ele>
        <time>2020-05-21T14:44:33Z</time>
      </trkpt>
      <trkpt lat="45.39249" lon="4.68248">
        <ele>444.27</ele>
        <time>2020-05-21T14:44:34Z</time>
      </trkpt>
      <trkpt lat="45.39246" lon="4.68254">
        <ele>443.79</ele>
        <time>2020-05-21T14:44:35Z</time>
      </trkpt>
      <trkpt lat="45.39242" lon="4.68261">
        <ele>443.31</ele>
        <time>2020-05-21T14:44:36Z</time>
      </trkpt>
      <trkpt lat="45.39238" lon="4.68267">
        <ele>443.31</ele>
        <time>2020-05-21T14:44:37Z</time>
      </trkpt>
      <trkpt lat="45.39236" lon="4.68275">
        <ele>442.82</ele>
        <time>2020-05-21T14:44:38Z</time>
      </trkpt>
      <trkpt lat="45.39234" lon="4.68283">
        <ele>442.34</ele>
        <time>2020-05-21T14:44:39Z</time>
      </trkpt>
      <trkpt lat="45.39233" lon="4.68292">
        <ele>442.34</ele>
        <time>2020-05-21T14:44:40Z</time>
      </trkpt>
      <trkpt lat="45.39232" lon="4.68301">
        <ele>441.86</ele>
        <time>2020-05-21T14:44:41Z</time>
      </trkpt>
      <trkpt lat="45.39231" lon="4.6831">
        <ele>441.86</ele>
        <time>2020-05-21T14:44:42Z</time>
      </trkpt>
      <trkpt lat="45.39231" lon="4.6832">
        <ele>440.9</ele>
        <time>2020-05-21T14:44:43Z</time>
      </trkpt>
      <trkpt lat="45.39231" lon="4.68329">
        <ele>440.9</ele>
        <time>2020-05-21T14:44:44Z</time>
      </trkpt>
      <trkpt lat="45.39229" lon="4.68337">
        <ele>440.42</ele>
        <time>2020-05-21T14:44:45Z</time>
      </trkpt>
      <trkpt lat="45.39226" lon="4.68342">
        <ele>440.42</ele>
        <time>2020-05-21T14:44:46Z</time>
      </trkpt>
      <trkpt lat="45.39221" lon="4.68347">
        <ele>439.46</ele>
        <time>2020-05-21T14:44:47Z</time>
      </trkpt>
      <trkpt lat="45.39214" lon="4.68352">
        <ele>438.02</ele>
        <time>2020-05-21T14:44:48Z</time>
      </trkpt>
      <trkpt lat="45.39201" lon="4.68364">
        <ele>434.65</ele>
        <time>2020-05-21T14:44:50Z</time>
      </trkpt>
      <trkpt lat="45.39196" lon="4.68369">
        <ele>433.69</ele>
        <time>2020-05-21T14:44:51Z</time>
      </trkpt>
      <trkpt lat="45.39195" lon="4.68375">
        <ele>433.69</ele>
        <time>2020-05-21T14:44:52Z</time>
      </trkpt>
      <trkpt lat="45.39194" lon="4.68399">
        <ele>432.25</ele>
        <time>2020-05-21T14:44:55Z</time>
      </trkpt>
      <trkpt lat="45.39194" lon="4.68406">
        <ele>432.25</ele>
        <time>2020-05-21T14:44:56Z</time>
      </trkpt>
      <trkpt lat="45.39191" lon="4.68426">
        <ele>431.29</ele>
        <time>2020-05-21T14:44:59Z</time>
      </trkpt>
      <trkpt lat="45.39191" lon="4.68434">
        <ele>431.29</ele>
        <time>2020-05-21T14:45:00Z</time>
      </trkpt>
      <trkpt lat="45.39192" lon="4.68441">
        <ele>430.81</ele>
        <time>2020-05-21T14:45:01Z</time>
      </trkpt>
      <trkpt lat="45.39194" lon="4.68449">
        <ele>430.33</ele>
        <time>2020-05-21T14:45:02Z</time>
      </trkpt>
      <trkpt lat="45.39195" lon="4.68457">
        <ele>429.85</ele>
        <time>2020-05-21T14:45:03Z</time>
      </trkpt>
      <trkpt lat="45.39197" lon="4.68464">
        <ele>429.37</ele>
        <time>2020-05-21T14:45:04Z</time>
      </trkpt>
      <trkpt lat="45.39199" lon="4.68479">
        <ele>429.37</ele>
        <time>2020-05-21T14:45:07Z</time>
      </trkpt>
      <trkpt lat="45.39198" lon="4.68482">
        <ele>429.37</ele>
        <time>2020-05-21T14:45:08Z</time>
      </trkpt>
      <trkpt lat="45.39198" lon="4.68485">
        <ele>429.37</ele>
        <time>2020-05-21T14:45:09Z</time>
      </trkpt>
      <trkpt lat="45.39188" lon="4.68539">
        <ele>429.37</ele>
        <time>2020-05-21T14:45:19Z</time>
      </trkpt>
      <trkpt lat="45.39193" lon="4.68606">
        <ele>430.33</ele>
        <time>2020-05-21T14:45:31Z</time>
      </trkpt>
      <trkpt lat="45.39197" lon="4.68631">
        <ele>429.37</ele>
        <time>2020-05-21T14:45:37Z</time>
      </trkpt>
      <trkpt lat="45.39197" lon="4.68635">
        <ele>429.37</ele>
        <time>2020-05-21T14:45:38Z</time>
      </trkpt>
      <trkpt lat="45.39198" lon="4.68639">
        <ele>428.89</ele>
        <time>2020-05-21T14:45:39Z</time>
      </trkpt>
      <trkpt lat="45.39199" lon="4.68644">
        <ele>428.4</ele>
        <time>2020-05-21T14:45:40Z</time>
      </trkpt>
      <trkpt lat="45.39201" lon="4.68649">
        <ele>427.92</ele>
        <time>2020-05-21T14:45:41Z</time>
      </trkpt>
      <trkpt lat="45.39203" lon="4.68654">
        <ele>427.44</ele>
        <time>2020-05-21T14:45:42Z</time>
      </trkpt>
      <trkpt lat="45.39204" lon="4.6866">
        <ele>427.44</ele>
        <time>2020-05-21T14:45:43Z</time>
      </trkpt>
      <trkpt lat="45.39208" lon="4.68683">
        <ele>426</ele>
        <time>2020-05-21T14:45:48Z</time>
      </trkpt>
      <trkpt lat="45.39206" lon="4.68685">
        <ele>425.52</ele>
        <time>2020-05-21T14:45:49Z</time>
      </trkpt>
      <trkpt lat="45.392" lon="4.68689">
        <ele>425.52</ele>
        <time>2020-05-21T14:45:51Z</time>
      </trkpt>
      <trkpt lat="45.39199" lon="4.68693">
        <ele>425.52</ele>
        <time>2020-05-21T14:45:52Z</time>
      </trkpt>
      <trkpt lat="45.39201" lon="4.68698">
        <ele>425.52</ele>
        <time>2020-05-21T14:45:53Z</time>
      </trkpt>
      <trkpt lat="45.39204" lon="4.68702">
        <ele>424.56</ele>
        <time>2020-05-21T14:45:54Z</time>
      </trkpt>
      <trkpt lat="45.39207" lon="4.68707">
        <ele>424.08</ele>
        <time>2020-05-21T14:45:55Z</time>
      </trkpt>
      <trkpt lat="45.3922" lon="4.68724">
        <ele>422.16</ele>
        <time>2020-05-21T14:45:58Z</time>
      </trkpt>
      <trkpt lat="45.39225" lon="4.68728">
        <ele>421.68</ele>
        <time>2020-05-21T14:45:59Z</time>
      </trkpt>
      <trkpt lat="45.3923" lon="4.68731">
        <ele>421.68</ele>
        <time>2020-05-21T14:46:00Z</time>
      </trkpt>
      <trkpt lat="45.39235" lon="4.68732">
        <ele>421.68</ele>
        <time>2020-05-21T14:46:01Z</time>
      </trkpt>
      <trkpt lat="45.3924" lon="4.68733">
        <ele>421.68</ele>
        <time>2020-05-21T14:46:02Z</time>
      </trkpt>
      <trkpt lat="45.39244" lon="4.68735">
        <ele>421.68</ele>
        <time>2020-05-21T14:46:03Z</time>
      </trkpt>
      <trkpt lat="45.39248" lon="4.68737">
        <ele>422.16</ele>
        <time>2020-05-21T14:46:04Z</time>
      </trkpt>
      <trkpt lat="45.39251" lon="4.6874">
        <ele>422.64</ele>
        <time>2020-05-21T14:46:05Z</time>
      </trkpt>
      <trkpt lat="45.39253" lon="4.68743">
        <ele>422.64</ele>
        <time>2020-05-21T14:46:06Z</time>
      </trkpt>
      <trkpt lat="45.39253" lon="4.68747">
        <ele>422.64</ele>
        <time>2020-05-21T14:46:07Z</time>
      </trkpt>
      <trkpt lat="45.39254" lon="4.68751">
        <ele>422.64</ele>
        <time>2020-05-21T14:46:08Z</time>
      </trkpt>
      <trkpt lat="45.39254" lon="4.68755">
        <ele>422.64</ele>
        <time>2020-05-21T14:46:09Z</time>
      </trkpt>
      <trkpt lat="45.39253" lon="4.6876">
        <ele>423.12</ele>
        <time>2020-05-21T14:46:10Z</time>
      </trkpt>
      <trkpt lat="45.39253" lon="4.68764">
        <ele>423.12</ele>
        <time>2020-05-21T14:46:11Z</time>
      </trkpt>
      <trkpt lat="45.39253" lon="4.68769">
        <ele>422.64</ele>
        <time>2020-05-21T14:46:12Z</time>
      </trkpt>
      <trkpt lat="45.39252" lon="4.68774">
        <ele>423.12</ele>
        <time>2020-05-21T14:46:13Z</time>
      </trkpt>
      <trkpt lat="45.39251" lon="4.68777">
        <ele>422.64</ele>
        <time>2020-05-21T14:46:14Z</time>
      </trkpt>
      <trkpt lat="45.3925" lon="4.68785">
        <ele>424.08</ele>
        <time>2020-05-21T14:46:23Z</time>
      </trkpt>
      <trkpt lat="45.39249" lon="4.68789">
        <ele>423.6</ele>
        <time>2020-05-21T14:46:29Z</time>
      </trkpt>
      <trkpt lat="45.39244" lon="4.68791">
        <ele>423.12</ele>
        <time>2020-05-21T14:46:39Z</time>
      </trkpt>
      <trkpt lat="45.39241" lon="4.68795">
        <ele>423.12</ele>
        <time>2020-05-21T14:46:44Z</time>
      </trkpt>
      <trkpt lat="45.39239" lon="4.68797">
        <ele>423.12</ele>
        <time>2020-05-21T14:46:45Z</time>
      </trkpt>
      <trkpt lat="45.39237" lon="4.688">
        <ele>423.12</ele>
        <time>2020-05-21T14:46:46Z</time>
      </trkpt>
      <trkpt lat="45.39236" lon="4.68805">
        <ele>422.64</ele>
        <time>2020-05-21T14:46:47Z</time>
      </trkpt>
      <trkpt lat="45.39236" lon="4.68812">
        <ele>421.68</ele>
        <time>2020-05-21T14:46:48Z</time>
      </trkpt>
      <trkpt lat="45.39237" lon="4.68819">
        <ele>420.71</ele>
        <time>2020-05-21T14:46:49Z</time>
      </trkpt>
      <trkpt lat="45.39239" lon="4.68836">
        <ele>419.27</ele>
        <time>2020-05-21T14:46:51Z</time>
      </trkpt>
      <trkpt lat="45.39242" lon="4.68853">
        <ele>418.79</ele>
        <time>2020-05-21T14:46:53Z</time>
      </trkpt>
      <trkpt lat="45.39279" lon="4.68943">
        <ele>418.79</ele>
        <time>2020-05-21T14:47:07Z</time>
      </trkpt>
      <trkpt lat="45.39287" lon="4.68953">
        <ele>418.79</ele>
        <time>2020-05-21T14:47:09Z</time>
      </trkpt>
      <trkpt lat="45.39296" lon="4.68962">
        <ele>418.31</ele>
        <time>2020-05-21T14:47:11Z</time>
      </trkpt>
      <trkpt lat="45.393" lon="4.68969">
        <ele>417.83</ele>
        <time>2020-05-21T14:47:12Z</time>
      </trkpt>
      <trkpt lat="45.39304" lon="4.68977">
        <ele>416.87</ele>
        <time>2020-05-21T14:47:13Z</time>
      </trkpt>
      <trkpt lat="45.39315" lon="4.69005">
        <ele>414.47</ele>
        <time>2020-05-21T14:47:16Z</time>
      </trkpt>
      <trkpt lat="45.3935" lon="4.69065">
        <ele>411.1</ele>
        <time>2020-05-21T14:47:23Z</time>
      </trkpt>
      <trkpt lat="45.39356" lon="4.69072">
        <ele>410.62</ele>
        <time>2020-05-21T14:47:24Z</time>
      </trkpt>
      <trkpt lat="45.39362" lon="4.69078">
        <ele>410.14</ele>
        <time>2020-05-21T14:47:25Z</time>
      </trkpt>
      <trkpt lat="45.39368" lon="4.69084">
        <ele>410.14</ele>
        <time>2020-05-21T14:47:26Z</time>
      </trkpt>
      <trkpt lat="45.39397" lon="4.69109">
        <ele>407.74</ele>
        <time>2020-05-21T14:47:31Z</time>
      </trkpt>
      <trkpt lat="45.39399" lon="4.69116">
        <ele>407.26</ele>
        <time>2020-05-21T14:47:32Z</time>
      </trkpt>
      <trkpt lat="45.39399" lon="4.69123">
        <ele>407.26</ele>
        <time>2020-05-21T14:47:33Z</time>
      </trkpt>
      <trkpt lat="45.39397" lon="4.6913">
        <ele>406.77</ele>
        <time>2020-05-21T14:47:34Z</time>
      </trkpt>
      <trkpt lat="45.39394" lon="4.69137">
        <ele>406.29</ele>
        <time>2020-05-21T14:47:35Z</time>
      </trkpt>
      <trkpt lat="45.39394" lon="4.69146">
        <ele>405.81</ele>
        <time>2020-05-21T14:47:36Z</time>
      </trkpt>
      <trkpt lat="45.39395" lon="4.69156">
        <ele>405.33</ele>
        <time>2020-05-21T14:47:37Z</time>
      </trkpt>
      <trkpt lat="45.39397" lon="4.69165">
        <ele>404.37</ele>
        <time>2020-05-21T14:47:38Z</time>
      </trkpt>
      <trkpt lat="45.39398" lon="4.69175">
        <ele>403.89</ele>
        <time>2020-05-21T14:47:39Z</time>
      </trkpt>
      <trkpt lat="45.39404" lon="4.6922">
        <ele>401.97</ele>
        <time>2020-05-21T14:47:43Z</time>
      </trkpt>
      <trkpt lat="45.39429" lon="4.69316">
        <ele>399.57</ele>
        <time>2020-05-21T14:47:53Z</time>
      </trkpt>
      <trkpt lat="45.39434" lon="4.6932">
        <ele>399.57</ele>
        <time>2020-05-21T14:47:54Z</time>
      </trkpt>
      <trkpt lat="45.39467" lon="4.69324">
        <ele>398.12</ele>
        <time>2020-05-21T14:47:59Z</time>
      </trkpt>
      <trkpt lat="45.39508" lon="4.69319">
        <ele>396.68</ele>
        <time>2020-05-21T14:48:05Z</time>
      </trkpt>
      <trkpt lat="45.39553" lon="4.69306">
        <ele>392.36</ele>
        <time>2020-05-21T14:48:11Z</time>
      </trkpt>
      <trkpt lat="45.39586" lon="4.69296">
        <ele>389.95</ele>
        <time>2020-05-21T14:48:15Z</time>
      </trkpt>
      <trkpt lat="45.39666" lon="4.6925">
        <ele>391.87</ele>
        <time>2020-05-21T14:48:27Z</time>
      </trkpt>
      <trkpt lat="45.39711" lon="4.69234">
        <ele>390.91</ele>
        <time>2020-05-21T14:48:34Z</time>
      </trkpt>
      <trkpt lat="45.39793" lon="4.69223">
        <ele>389.47</ele>
        <time>2020-05-21T14:48:47Z</time>
      </trkpt>
      <trkpt lat="45.3982" lon="4.69219">
        <ele>390.43</ele>
        <time>2020-05-21T14:48:53Z</time>
      </trkpt>
      <trkpt lat="45.39824" lon="4.69219">
        <ele>390.43</ele>
        <time>2020-05-21T14:48:54Z</time>
      </trkpt>
      <trkpt lat="45.39836" lon="4.69219">
        <ele>391.87</ele>
        <time>2020-05-21T14:48:57Z</time>
      </trkpt>
      <trkpt lat="45.39872" lon="4.69225">
        <ele>394.76</ele>
        <time>2020-05-21T14:49:08Z</time>
      </trkpt>
      <trkpt lat="45.39898" lon="4.69229">
        <ele>397.16</ele>
        <time>2020-05-21T14:49:16Z</time>
      </trkpt>
      <trkpt lat="45.39937" lon="4.69223">
        <ele>400.05</ele>
        <time>2020-05-21T14:49:30Z</time>
      </trkpt>
      <trkpt lat="45.39983" lon="4.69188">
        <ele>401.97</ele>
        <time>2020-05-21T14:49:47Z</time>
      </trkpt>
      <trkpt lat="45.40023" lon="4.69173">
        <ele>403.89</ele>
        <time>2020-05-21T14:50:02Z</time>
      </trkpt>
      <trkpt lat="45.40068" lon="4.69154">
        <ele>402.93</ele>
        <time>2020-05-21T14:50:14Z</time>
      </trkpt>
      <trkpt lat="45.4014" lon="4.69095">
        <ele>400.05</ele>
        <time>2020-05-21T14:50:30Z</time>
      </trkpt>
      <trkpt lat="45.40145" lon="4.6909">
        <ele>400.05</ele>
        <time>2020-05-21T14:50:31Z</time>
      </trkpt>
      <trkpt lat="45.40148" lon="4.69084">
        <ele>399.57</ele>
        <time>2020-05-21T14:50:32Z</time>
      </trkpt>
      <trkpt lat="45.4017" lon="4.6905">
        <ele>400.05</ele>
        <time>2020-05-21T14:50:38Z</time>
      </trkpt>
      <trkpt lat="45.40174" lon="4.69046">
        <ele>400.05</ele>
        <time>2020-05-21T14:50:39Z</time>
      </trkpt>
      <trkpt lat="45.40195" lon="4.69025">
        <ele>399.57</ele>
        <time>2020-05-21T14:50:44Z</time>
      </trkpt>
      <trkpt lat="45.40203" lon="4.69016">
        <ele>399.57</ele>
        <time>2020-05-21T14:50:46Z</time>
      </trkpt>
      <trkpt lat="45.40215" lon="4.69001">
        <ele>401.01</ele>
        <time>2020-05-21T14:50:49Z</time>
      </trkpt>
      <trkpt lat="45.40222" lon="4.6899">
        <ele>400.53</ele>
        <time>2020-05-21T14:50:51Z</time>
      </trkpt>
      <trkpt lat="45.40267" lon="4.68905">
        <ele>402.93</ele>
        <time>2020-05-21T14:51:06Z</time>
      </trkpt>
      <trkpt lat="45.40302" lon="4.68839">
        <ele>405.81</ele>
        <time>2020-05-21T14:51:18Z</time>
      </trkpt>
      <trkpt lat="45.40305" lon="4.68834">
        <ele>405.81</ele>
        <time>2020-05-21T14:51:19Z</time>
      </trkpt>
      <trkpt lat="45.40312" lon="4.68826">
        <ele>405.81</ele>
        <time>2020-05-21T14:51:21Z</time>
      </trkpt>
      <trkpt lat="45.40316" lon="4.68823">
        <ele>405.33</ele>
        <time>2020-05-21T14:51:22Z</time>
      </trkpt>
      <trkpt lat="45.4032" lon="4.6882">
        <ele>405.33</ele>
        <time>2020-05-21T14:51:23Z</time>
      </trkpt>
      <trkpt lat="45.40325" lon="4.68818">
        <ele>405.33</ele>
        <time>2020-05-21T14:51:24Z</time>
      </trkpt>
      <trkpt lat="45.4033" lon="4.68816">
        <ele>405.33</ele>
        <time>2020-05-21T14:51:25Z</time>
      </trkpt>
      <trkpt lat="45.40396" lon="4.68788">
        <ele>403.41</ele>
        <time>2020-05-21T14:51:37Z</time>
      </trkpt>
      <trkpt lat="45.40411" lon="4.6878">
        <ele>402.45</ele>
        <time>2020-05-21T14:51:40Z</time>
      </trkpt>
      <trkpt lat="45.40417" lon="4.68781">
        <ele>401.97</ele>
        <time>2020-05-21T14:51:41Z</time>
      </trkpt>
      <trkpt lat="45.40422" lon="4.68785">
        <ele>401.97</ele>
        <time>2020-05-21T14:51:42Z</time>
      </trkpt>
      <trkpt lat="45.40428" lon="4.6879">
        <ele>401.49</ele>
        <time>2020-05-21T14:51:43Z</time>
      </trkpt>
      <trkpt lat="45.40433" lon="4.68796">
        <ele>401.49</ele>
        <time>2020-05-21T14:51:44Z</time>
      </trkpt>
      <trkpt lat="45.40438" lon="4.68803">
        <ele>400.53</ele>
        <time>2020-05-21T14:51:45Z</time>
      </trkpt>
      <trkpt lat="45.40444" lon="4.6881">
        <ele>399.57</ele>
        <time>2020-05-21T14:51:46Z</time>
      </trkpt>
      <trkpt lat="45.4045" lon="4.68817">
        <ele>398.6</ele>
        <time>2020-05-21T14:51:47Z</time>
      </trkpt>
      <trkpt lat="45.40478" lon="4.68848">
        <ele>395.72</ele>
        <time>2020-05-21T14:51:51Z</time>
      </trkpt>
      <trkpt lat="45.40484" lon="4.68857">
        <ele>395.24</ele>
        <time>2020-05-21T14:51:52Z</time>
      </trkpt>
      <trkpt lat="45.40489" lon="4.68867">
        <ele>394.76</ele>
        <time>2020-05-21T14:51:53Z</time>
      </trkpt>
      <trkpt lat="45.40494" lon="4.68878">
        <ele>394.28</ele>
        <time>2020-05-21T14:51:54Z</time>
      </trkpt>
      <trkpt lat="45.40504" lon="4.68908">
        <ele>394.76</ele>
        <time>2020-05-21T14:51:57Z</time>
      </trkpt>
      <trkpt lat="45.40507" lon="4.68918">
        <ele>394.76</ele>
        <time>2020-05-21T14:51:58Z</time>
      </trkpt>
      <trkpt lat="45.40512" lon="4.68926">
        <ele>394.76</ele>
        <time>2020-05-21T14:51:59Z</time>
      </trkpt>
      <trkpt lat="45.40516" lon="4.68935">
        <ele>395.24</ele>
        <time>2020-05-21T14:52:00Z</time>
      </trkpt>
      <trkpt lat="45.40519" lon="4.68943">
        <ele>395.24</ele>
        <time>2020-05-21T14:52:01Z</time>
      </trkpt>
      <trkpt lat="45.40522" lon="4.68952">
        <ele>395.24</ele>
        <time>2020-05-21T14:52:02Z</time>
      </trkpt>
    </trkseg>
  </trk>
</gpx>